<?xml version='1.0' encoding='UTF-8'?>
<gpx version="1.1" creator="https://www.komoot.de" xmlns="http://www.topografix.com/GPX/1/1" xmlns:xsi="http://www.w3.org/2001/XMLSchema-instance" xsi:schemaLocation="http://www.topografix.com/GPX/1/1 http://www.topografix.com/GPX/1/1/gpx.xsd">
  <metadata>
    <name>58_740Arxhof</name>
    <author>
      <link href="https://www.komoot.de">
        <text>komoot</text>
        <type>text/html</type>
      </link>
    </author>
  </metadata>
  <trk>
    <name>58_740Arxhof</name>
    <trkseg>
      <trkpt lat="47.541275" lon="7.870903">
        <ele>342.684512</ele>
        <time>2021-11-14T21:00:39.603Z</time>
      </trkpt>
      <trkpt lat="47.540933" lon="7.871187">
        <ele>342.684512</ele>
        <time>2021-11-14T21:00:48.552Z</time>
      </trkpt>
      <trkpt lat="47.540894" lon="7.871220">
        <ele>342.684512</ele>
        <time>2021-11-14T21:00:49.686Z</time>
      </trkpt>
      <trkpt lat="47.540693" lon="7.871390">
        <ele>342.684512</ele>
        <time>2021-11-14T21:00:55.080Z</time>
      </trkpt>
      <trkpt lat="47.540463" lon="7.871584">
        <ele>342.745628</ele>
        <time>2021-11-14T21:01:01.263Z</time>
      </trkpt>
      <trkpt lat="47.540265" lon="7.871808">
        <ele>343.196254</ele>
        <time>2021-11-14T21:01:06.741Z</time>
      </trkpt>
      <trkpt lat="47.540216" lon="7.871851">
        <ele>343.299266</ele>
        <time>2021-11-14T21:01:08.204Z</time>
      </trkpt>
      <trkpt lat="47.540034" lon="7.871970">
        <ele>343.659097</ele>
        <time>2021-11-14T21:01:12.765Z</time>
      </trkpt>
      <trkpt lat="47.539930" lon="7.872041">
        <ele>343.866222</ele>
        <time>2021-11-14T21:01:15.344Z</time>
      </trkpt>
      <trkpt lat="47.539841" lon="7.872151">
        <ele>344.075873</ele>
        <time>2021-11-14T21:01:18.367Z</time>
      </trkpt>
      <trkpt lat="47.539678" lon="7.872430">
        <ele>344.526402</ele>
        <time>2021-11-14T21:01:23.880Z</time>
      </trkpt>
      <trkpt lat="47.539222" lon="7.873416">
        <ele>345.964591</ele>
        <time>2021-11-14T21:01:41.422Z</time>
      </trkpt>
      <trkpt lat="47.538278" lon="7.874319">
        <ele>347.100189</ele>
        <time>2021-11-14T21:02:01.075Z</time>
      </trkpt>
      <trkpt lat="47.537716" lon="7.874966">
        <ele>347.882126</ele>
        <time>2021-11-14T21:02:15.051Z</time>
      </trkpt>
      <trkpt lat="47.537261" lon="7.875237">
        <ele>348.862241</ele>
        <time>2021-11-14T21:02:24.567Z</time>
      </trkpt>
      <trkpt lat="47.537182" lon="7.875293">
        <ele>349.037278</ele>
        <time>2021-11-14T21:02:26.556Z</time>
      </trkpt>
      <trkpt lat="47.536921" lon="7.875537">
        <ele>349.654113</ele>
        <time>2021-11-14T21:02:32.523Z</time>
      </trkpt>
      <trkpt lat="47.536757" lon="7.875759">
        <ele>350.098134</ele>
        <time>2021-11-14T21:02:37.125Z</time>
      </trkpt>
      <trkpt lat="47.536632" lon="7.875912">
        <ele>350.422216</ele>
        <time>2021-11-14T21:02:40.293Z</time>
      </trkpt>
      <trkpt lat="47.536444" lon="7.876177">
        <ele>350.940892</ele>
        <time>2021-11-14T21:02:47.254Z</time>
      </trkpt>
      <trkpt lat="47.535851" lon="7.877319">
        <ele>355.098700</ele>
        <time>2021-11-14T21:03:18.568Z</time>
      </trkpt>
      <trkpt lat="47.535770" lon="7.877432">
        <ele>355.641881</ele>
        <time>2021-11-14T21:03:22.748Z</time>
      </trkpt>
      <trkpt lat="47.535635" lon="7.877484">
        <ele>356.322821</ele>
        <time>2021-11-14T21:03:28.615Z</time>
      </trkpt>
      <trkpt lat="47.535551" lon="7.877487">
        <ele>356.732997</ele>
        <time>2021-11-14T21:03:30.524Z</time>
      </trkpt>
      <trkpt lat="47.535322" lon="7.877590">
        <ele>357.901296</ele>
        <time>2021-11-14T21:03:40.576Z</time>
      </trkpt>
      <trkpt lat="47.535088" lon="7.877742">
        <ele>359.148618</ele>
        <time>2021-11-14T21:03:48.407Z</time>
      </trkpt>
      <trkpt lat="47.534855" lon="7.878090">
        <ele>360.775169</ele>
        <time>2021-11-14T21:04:00.390Z</time>
      </trkpt>
      <trkpt lat="47.534778" lon="7.878270">
        <ele>361.489948</ele>
        <time>2021-11-14T21:04:07.698Z</time>
      </trkpt>
      <trkpt lat="47.534825" lon="7.878414">
        <ele>362.026459</ele>
        <time>2021-11-14T21:04:10.324Z</time>
      </trkpt>
      <trkpt lat="47.534946" lon="7.878790">
        <ele>363.423643</ele>
        <time>2021-11-14T21:04:22.372Z</time>
      </trkpt>
      <trkpt lat="47.534908" lon="7.878975">
        <ele>364.072281</ele>
        <time>2021-11-14T21:04:26.430Z</time>
      </trkpt>
      <trkpt lat="47.534616" lon="7.879490">
        <ele>366.328151</ele>
        <time>2021-11-14T21:04:43.376Z</time>
      </trkpt>
      <trkpt lat="47.533892" lon="7.880353">
        <ele>369.903613</ele>
        <time>2021-11-14T21:05:11.116Z</time>
      </trkpt>
      <trkpt lat="47.533606" lon="7.880961">
        <ele>371.010837</ele>
        <time>2021-11-14T21:05:23.425Z</time>
      </trkpt>
      <trkpt lat="47.533374" lon="7.881639">
        <ele>372.146589</ele>
        <time>2021-11-14T21:05:34.470Z</time>
      </trkpt>
      <trkpt lat="47.533014" lon="7.882949">
        <ele>372.960731</ele>
        <time>2021-11-14T21:05:52.385Z</time>
      </trkpt>
      <trkpt lat="47.532859" lon="7.883508">
        <ele>372.896193</ele>
        <time>2021-11-14T21:05:58.263Z</time>
      </trkpt>
      <trkpt lat="47.532713" lon="7.884122">
        <ele>372.826672</ele>
        <time>2021-11-14T21:06:03.960Z</time>
      </trkpt>
      <trkpt lat="47.532699" lon="7.884224">
        <ele>372.815556</ele>
        <time>2021-11-14T21:06:04.914Z</time>
      </trkpt>
      <trkpt lat="47.532670" lon="7.884773">
        <ele>372.701794</ele>
        <time>2021-11-14T21:06:09.408Z</time>
      </trkpt>
      <trkpt lat="47.532658" lon="7.884989">
        <ele>372.471630</ele>
        <time>2021-11-14T21:06:11.020Z</time>
      </trkpt>
      <trkpt lat="47.532650" lon="7.885569">
        <ele>371.855551</ele>
        <time>2021-11-14T21:06:15.522Z</time>
      </trkpt>
      <trkpt lat="47.532505" lon="7.887120">
        <ele>370.192696</ele>
        <time>2021-11-14T21:06:27.474Z</time>
      </trkpt>
      <trkpt lat="47.532288" lon="7.887728">
        <ele>369.463253</ele>
        <time>2021-11-14T21:06:32.650Z</time>
      </trkpt>
      <trkpt lat="47.532011" lon="7.888896">
        <ele>368.151088</ele>
        <time>2021-11-14T21:06:41.880Z</time>
      </trkpt>
      <trkpt lat="47.531843" lon="7.889349">
        <ele>367.603267</ele>
        <time>2021-11-14T21:06:45.917Z</time>
      </trkpt>
      <trkpt lat="47.531560" lon="7.889776">
        <ele>367.114796</ele>
        <time>2021-11-14T21:06:50.857Z</time>
      </trkpt>
      <trkpt lat="47.531265" lon="7.889937">
        <ele>367.131115</ele>
        <time>2021-11-14T21:06:54.825Z</time>
      </trkpt>
      <trkpt lat="47.531076" lon="7.890029">
        <ele>367.141441</ele>
        <time>2021-11-14T21:06:57.666Z</time>
      </trkpt>
      <trkpt lat="47.530606" lon="7.890373">
        <ele>367.168653</ele>
        <time>2021-11-14T21:07:05.515Z</time>
      </trkpt>
      <trkpt lat="47.530322" lon="7.890690">
        <ele>367.187112</ele>
        <time>2021-11-14T21:07:11.508Z</time>
      </trkpt>
      <trkpt lat="47.529972" lon="7.891210">
        <ele>367.392328</ele>
        <time>2021-11-14T21:07:20.670Z</time>
      </trkpt>
      <trkpt lat="47.529714" lon="7.891609">
        <ele>367.783228</ele>
        <time>2021-11-14T21:07:28.004Z</time>
      </trkpt>
      <trkpt lat="47.529695" lon="7.891638">
        <ele>367.811820</ele>
        <time>2021-11-14T21:07:28.991Z</time>
      </trkpt>
      <trkpt lat="47.529235" lon="7.892158">
        <ele>368.418245</ele>
        <time>2021-11-14T21:07:39.924Z</time>
      </trkpt>
      <trkpt lat="47.528331" lon="7.892682">
        <ele>369.588086</ele>
        <time>2021-11-14T21:07:58.627Z</time>
      </trkpt>
      <trkpt lat="47.528003" lon="7.892732">
        <ele>370.085428</ele>
        <time>2021-11-14T21:08:04.333Z</time>
      </trkpt>
      <trkpt lat="47.527498" lon="7.892650">
        <ele>370.851693</ele>
        <time>2021-11-14T21:08:13.805Z</time>
      </trkpt>
      <trkpt lat="47.527011" lon="7.893061">
        <ele>371.697143</ele>
        <time>2021-11-14T21:08:26.998Z</time>
      </trkpt>
      <trkpt lat="47.526709" lon="7.893617">
        <ele>372.951937</ele>
        <time>2021-11-14T21:08:39.530Z</time>
      </trkpt>
      <trkpt lat="47.526504" lon="7.894030">
        <ele>373.916755</ele>
        <time>2021-11-14T21:08:49.711Z</time>
      </trkpt>
      <trkpt lat="47.526451" lon="7.893983">
        <ele>374.088957</ele>
        <time>2021-11-14T21:08:51.100Z</time>
      </trkpt>
      <trkpt lat="47.526401" lon="7.893964">
        <ele>374.232849</ele>
        <time>2021-11-14T21:08:51.918Z</time>
      </trkpt>
      <trkpt lat="47.526335" lon="7.893960">
        <ele>374.416981</ele>
        <time>2021-11-14T21:08:53.991Z</time>
      </trkpt>
      <trkpt lat="47.526257" lon="7.894278">
        <ele>375.053817</ele>
        <time>2021-11-14T21:09:00.203Z</time>
      </trkpt>
      <trkpt lat="47.525725" lon="7.895110">
        <ele>377.028403</ele>
        <time>2021-11-14T21:09:19.285Z</time>
      </trkpt>
      <trkpt lat="47.525603" lon="7.895265">
        <ele>377.270068</ele>
        <time>2021-11-14T21:09:24.901Z</time>
      </trkpt>
      <trkpt lat="47.525631" lon="7.895442">
        <ele>377.454622</ele>
        <time>2021-11-14T21:09:27.751Z</time>
      </trkpt>
      <trkpt lat="47.525631" lon="7.895583">
        <ele>377.597764</ele>
        <time>2021-11-14T21:09:28.943Z</time>
      </trkpt>
      <trkpt lat="47.525622" lon="7.895944">
        <ele>377.964499</ele>
        <time>2021-11-14T21:09:36.378Z</time>
      </trkpt>
      <trkpt lat="47.525590" lon="7.896117">
        <ele>378.146597</ele>
        <time>2021-11-14T21:09:37.931Z</time>
      </trkpt>
      <trkpt lat="47.525518" lon="7.896336">
        <ele>378.393876</ele>
        <time>2021-11-14T21:09:42.738Z</time>
      </trkpt>
      <trkpt lat="47.524834" lon="7.897636">
        <ele>379.510128</ele>
        <time>2021-11-14T21:09:59.662Z</time>
      </trkpt>
      <trkpt lat="47.524617" lon="7.898216">
        <ele>379.499020</ele>
        <time>2021-11-14T21:10:05.835Z</time>
      </trkpt>
      <trkpt lat="47.524360" lon="7.898951">
        <ele>379.485155</ele>
        <time>2021-11-14T21:10:13.376Z</time>
      </trkpt>
      <trkpt lat="47.524309" lon="7.899115">
        <ele>379.482130</ele>
        <time>2021-11-14T21:10:15.290Z</time>
      </trkpt>
      <trkpt lat="47.523896" lon="7.900001">
        <ele>380.205157</ele>
        <time>2021-11-14T21:10:27.212Z</time>
      </trkpt>
      <trkpt lat="47.523861" lon="7.900049">
        <ele>380.287878</ele>
        <time>2021-11-14T21:10:28.192Z</time>
      </trkpt>
      <trkpt lat="47.523890" lon="7.900131">
        <ele>380.396271</ele>
        <time>2021-11-14T21:10:29.146Z</time>
      </trkpt>
      <trkpt lat="47.523945" lon="7.900256">
        <ele>380.570974</ele>
        <time>2021-11-14T21:10:30.737Z</time>
      </trkpt>
      <trkpt lat="47.523989" lon="7.900340">
        <ele>380.695460</ele>
        <time>2021-11-14T21:10:31.787Z</time>
      </trkpt>
      <trkpt lat="47.523957" lon="7.900371">
        <ele>380.761769</ele>
        <time>2021-11-14T21:10:32.492Z</time>
      </trkpt>
      <trkpt lat="47.523878" lon="7.900445">
        <ele>380.923865</ele>
        <time>2021-11-14T21:10:34.609Z</time>
      </trkpt>
      <trkpt lat="47.523739" lon="7.900557">
        <ele>381.198271</ele>
        <time>2021-11-14T21:10:37.540Z</time>
      </trkpt>
      <trkpt lat="47.523648" lon="7.900606">
        <ele>381.366179</ele>
        <time>2021-11-14T21:10:39.719Z</time>
      </trkpt>
      <trkpt lat="47.523620" lon="7.900698">
        <ele>381.484346</ele>
        <time>2021-11-14T21:10:41.683Z</time>
      </trkpt>
      <trkpt lat="47.523567" lon="7.900820">
        <ele>381.654216</ele>
        <time>2021-11-14T21:10:43.780Z</time>
      </trkpt>
      <trkpt lat="47.523433" lon="7.901043">
        <ele>382.003763</ele>
        <time>2021-11-14T21:10:49.024Z</time>
      </trkpt>
      <trkpt lat="47.523340" lon="7.901197">
        <ele>382.245688</ele>
        <time>2021-11-14T21:10:53.066Z</time>
      </trkpt>
      <trkpt lat="47.523036" lon="7.901580">
        <ele>383.413506</ele>
        <time>2021-11-14T21:11:04.762Z</time>
      </trkpt>
      <trkpt lat="47.522688" lon="7.901843">
        <ele>385.027047</ele>
        <time>2021-11-14T21:11:17.081Z</time>
      </trkpt>
      <trkpt lat="47.522554" lon="7.901999">
        <ele>385.730992</ele>
        <time>2021-11-14T21:11:23.405Z</time>
      </trkpt>
      <trkpt lat="47.522260" lon="7.902356">
        <ele>387.301195</ele>
        <time>2021-11-14T21:11:35.654Z</time>
      </trkpt>
      <trkpt lat="47.522132" lon="7.902476">
        <ele>387.926852</ele>
        <time>2021-11-14T21:11:40.299Z</time>
      </trkpt>
      <trkpt lat="47.522065" lon="7.902526">
        <ele>388.236705</ele>
        <time>2021-11-14T21:11:42.472Z</time>
      </trkpt>
      <trkpt lat="47.522038" lon="7.902562">
        <ele>388.386752</ele>
        <time>2021-11-14T21:11:43.935Z</time>
      </trkpt>
      <trkpt lat="47.522013" lon="7.902637">
        <ele>388.620016</ele>
        <time>2021-11-14T21:11:46.021Z</time>
      </trkpt>
      <trkpt lat="47.521792" lon="7.903347">
        <ele>390.571925</ele>
        <time>2021-11-14T21:12:02.185Z</time>
      </trkpt>
      <trkpt lat="47.521549" lon="7.903821">
        <ele>391.744725</ele>
        <time>2021-11-14T21:12:14.808Z</time>
      </trkpt>
      <trkpt lat="47.521464" lon="7.903986">
        <ele>392.153707</ele>
        <time>2021-11-14T21:12:19.040Z</time>
      </trkpt>
      <trkpt lat="47.521297" lon="7.904312">
        <ele>392.960096</ele>
        <time>2021-11-14T21:12:26.180Z</time>
      </trkpt>
      <trkpt lat="47.520989" lon="7.905130">
        <ele>394.805808</ele>
        <time>2021-11-14T21:12:41.609Z</time>
      </trkpt>
      <trkpt lat="47.520678" lon="7.906050">
        <ele>395.566013</ele>
        <time>2021-11-14T21:12:55.058Z</time>
      </trkpt>
      <trkpt lat="47.520566" lon="7.906668">
        <ele>395.804409</ele>
        <time>2021-11-14T21:13:02.139Z</time>
      </trkpt>
      <trkpt lat="47.520528" lon="7.906930">
        <ele>395.904248</ele>
        <time>2021-11-14T21:13:05.399Z</time>
      </trkpt>
      <trkpt lat="47.520515" lon="7.907103">
        <ele>395.969101</ele>
        <time>2021-11-14T21:13:07.197Z</time>
      </trkpt>
      <trkpt lat="47.520506" lon="7.907236">
        <ele>396.018901</ele>
        <time>2021-11-14T21:13:08.273Z</time>
      </trkpt>
      <trkpt lat="47.520551" lon="7.907422">
        <ele>396.092512</ele>
        <time>2021-11-14T21:13:10.683Z</time>
      </trkpt>
      <trkpt lat="47.520733" lon="7.907655">
        <ele>396.225244</ele>
        <time>2021-11-14T21:13:13.870Z</time>
      </trkpt>
      <trkpt lat="47.520738" lon="7.907839">
        <ele>396.275008</ele>
        <time>2021-11-14T21:13:16.013Z</time>
      </trkpt>
      <trkpt lat="47.520493" lon="7.908683">
        <ele>396.409153</ele>
        <time>2021-11-14T21:13:24.192Z</time>
      </trkpt>
      <trkpt lat="47.519997" lon="7.910833">
        <ele>397.067638</ele>
        <time>2021-11-14T21:13:50.139Z</time>
      </trkpt>
      <trkpt lat="47.519891" lon="7.911129">
        <ele>397.295878</ele>
        <time>2021-11-14T21:13:54.729Z</time>
      </trkpt>
      <trkpt lat="47.519720" lon="7.911522">
        <ele>397.614358</ele>
        <time>2021-11-14T21:14:00.813Z</time>
      </trkpt>
      <trkpt lat="47.519421" lon="7.912098">
        <ele>398.109272</ele>
        <time>2021-11-14T21:14:10.379Z</time>
      </trkpt>
      <trkpt lat="47.517688" lon="7.914418">
        <ele>400.569946</ele>
        <time>2021-11-14T21:14:54.958Z</time>
      </trkpt>
      <trkpt lat="47.517281" lon="7.915238">
        <ele>401.220773</ele>
        <time>2021-11-14T21:15:07.972Z</time>
      </trkpt>
      <trkpt lat="47.517140" lon="7.915259">
        <ele>401.354970</ele>
        <time>2021-11-14T21:15:10.472Z</time>
      </trkpt>
      <trkpt lat="47.516806" lon="7.914896">
        <ele>401.747317</ele>
        <time>2021-11-14T21:15:18.047Z</time>
      </trkpt>
      <trkpt lat="47.516748" lon="7.914873">
        <ele>401.804177</ele>
        <time>2021-11-14T21:15:19.218Z</time>
      </trkpt>
      <trkpt lat="47.516662" lon="7.914835">
        <ele>401.889166</ele>
        <time>2021-11-14T21:15:21.010Z</time>
      </trkpt>
      <trkpt lat="47.516626" lon="7.914830">
        <ele>401.923406</ele>
        <time>2021-11-14T21:15:21.705Z</time>
      </trkpt>
      <trkpt lat="47.516590" lon="7.914840">
        <ele>401.958092</ele>
        <time>2021-11-14T21:15:22.300Z</time>
      </trkpt>
      <trkpt lat="47.516569" lon="7.914864">
        <ele>401.983213</ele>
        <time>2021-11-14T21:15:22.835Z</time>
      </trkpt>
      <trkpt lat="47.516544" lon="7.914936">
        <ele>402.034991</ele>
        <time>2021-11-14T21:15:23.681Z</time>
      </trkpt>
      <trkpt lat="47.516391" lon="7.915243">
        <ele>402.271126</ele>
        <time>2021-11-14T21:15:28.474Z</time>
      </trkpt>
      <trkpt lat="47.515014" lon="7.917030">
        <ele>404.036389</ele>
        <time>2021-11-14T21:16:02.251Z</time>
      </trkpt>
      <trkpt lat="47.514635" lon="7.917349">
        <ele>404.641380</ele>
        <time>2021-11-14T21:16:10.369Z</time>
      </trkpt>
      <trkpt lat="47.514561" lon="7.917409">
        <ele>404.758461</ele>
        <time>2021-11-14T21:16:12.261Z</time>
      </trkpt>
      <trkpt lat="47.514255" lon="7.917714">
        <ele>405.270362</ele>
        <time>2021-11-14T21:16:19.730Z</time>
      </trkpt>
      <trkpt lat="47.513378" lon="7.918393">
        <ele>406.792569</ele>
        <time>2021-11-14T21:16:41.457Z</time>
      </trkpt>
      <trkpt lat="47.513160" lon="7.918764">
        <ele>407.416798</ele>
        <time>2021-11-14T21:16:48.926Z</time>
      </trkpt>
      <trkpt lat="47.513058" lon="7.918896">
        <ele>407.671410</ele>
        <time>2021-11-14T21:16:52.114Z</time>
      </trkpt>
      <trkpt lat="47.512938" lon="7.919052">
        <ele>407.971544</ele>
        <time>2021-11-14T21:16:55.874Z</time>
      </trkpt>
      <trkpt lat="47.512664" lon="7.919306">
        <ele>408.579123</ele>
        <time>2021-11-14T21:17:03.206Z</time>
      </trkpt>
      <trkpt lat="47.512255" lon="7.919538">
        <ele>409.402300</ele>
        <time>2021-11-14T21:17:12.876Z</time>
      </trkpt>
      <trkpt lat="47.512085" lon="7.919732">
        <ele>409.723728</ele>
        <time>2021-11-14T21:17:17.528Z</time>
      </trkpt>
      <trkpt lat="47.511974" lon="7.919968">
        <ele>409.940291</ele>
        <time>2021-11-14T21:17:21.631Z</time>
      </trkpt>
      <trkpt lat="47.511964" lon="7.919989">
        <ele>409.959640</ele>
        <time>2021-11-14T21:17:22.065Z</time>
      </trkpt>
      <trkpt lat="47.511883" lon="7.920133">
        <ele>410.100758</ele>
        <time>2021-11-14T21:17:24.719Z</time>
      </trkpt>
      <trkpt lat="47.511632" lon="7.920105">
        <ele>410.381392</ele>
        <time>2021-11-14T21:17:31.369Z</time>
      </trkpt>
      <trkpt lat="47.511613" lon="7.920183">
        <ele>410.443833</ele>
        <time>2021-11-14T21:17:32.285Z</time>
      </trkpt>
      <trkpt lat="47.511186" lon="7.920984">
        <ele>411.212263</ele>
        <time>2021-11-14T21:17:44.926Z</time>
      </trkpt>
      <trkpt lat="47.511067" lon="7.921207">
        <ele>411.426281</ele>
        <time>2021-11-14T21:17:48.219Z</time>
      </trkpt>
      <trkpt lat="47.511052" lon="7.921232">
        <ele>411.451462</ele>
        <time>2021-11-14T21:17:48.659Z</time>
      </trkpt>
      <trkpt lat="47.510872" lon="7.921477">
        <ele>411.720678</ele>
        <time>2021-11-14T21:17:53.003Z</time>
      </trkpt>
      <trkpt lat="47.510639" lon="7.921796">
        <ele>412.064030</ele>
        <time>2021-11-14T21:17:58.516Z</time>
      </trkpt>
      <trkpt lat="47.510002" lon="7.922345">
        <ele>412.861480</ele>
        <time>2021-11-14T21:18:11.473Z</time>
      </trkpt>
      <trkpt lat="47.509688" lon="7.922616">
        <ele>413.254712</ele>
        <time>2021-11-14T21:18:19.004Z</time>
      </trkpt>
      <trkpt lat="47.509615" lon="7.922742">
        <ele>413.376023</ele>
        <time>2021-11-14T21:18:22.023Z</time>
      </trkpt>
      <trkpt lat="47.509583" lon="7.922962">
        <ele>413.540483</ele>
        <time>2021-11-14T21:18:24.807Z</time>
      </trkpt>
      <trkpt lat="47.509550" lon="7.923245">
        <ele>413.948204</ele>
        <time>2021-11-14T21:18:29.574Z</time>
      </trkpt>
      <trkpt lat="47.509595" lon="7.923295">
        <ele>414.070875</ele>
        <time>2021-11-14T21:18:30.677Z</time>
      </trkpt>
      <trkpt lat="47.509668" lon="7.923400">
        <ele>414.292784</ele>
        <time>2021-11-14T21:18:32.584Z</time>
      </trkpt>
      <trkpt lat="47.509817" lon="7.923703">
        <ele>414.844740</ele>
        <time>2021-11-14T21:18:38.780Z</time>
      </trkpt>
      <trkpt lat="47.509869" lon="7.923971">
        <ele>415.255385</ele>
        <time>2021-11-14T21:18:42.665Z</time>
      </trkpt>
      <trkpt lat="47.509886" lon="7.924134">
        <ele>415.498280</ele>
        <time>2021-11-14T21:18:46.025Z</time>
      </trkpt>
      <trkpt lat="47.509806" lon="7.924174">
        <ele>415.682381</ele>
        <time>2021-11-14T21:18:47.787Z</time>
      </trkpt>
      <trkpt lat="47.509676" lon="7.924247">
        <ele>415.985521</ele>
        <time>2021-11-14T21:18:50.679Z</time>
      </trkpt>
      <trkpt lat="47.509605" lon="7.924290">
        <ele>416.152773</ele>
        <time>2021-11-14T21:18:52.678Z</time>
      </trkpt>
      <trkpt lat="47.509572" lon="7.924311">
        <ele>416.231088</ele>
        <time>2021-11-14T21:18:53.936Z</time>
      </trkpt>
      <trkpt lat="47.509223" lon="7.924628">
        <ele>417.123806</ele>
        <time>2021-11-14T21:19:04.015Z</time>
      </trkpt>
      <trkpt lat="47.509032" lon="7.924863">
        <ele>417.676017</ele>
        <time>2021-11-14T21:19:09.910Z</time>
      </trkpt>
      <trkpt lat="47.509016" lon="7.924882">
        <ele>417.723288</ele>
        <time>2021-11-14T21:19:10.507Z</time>
      </trkpt>
      <trkpt lat="47.508667" lon="7.925295">
        <ele>418.752986</ele>
        <time>2021-11-14T21:19:21.752Z</time>
      </trkpt>
      <trkpt lat="47.508355" lon="7.925609">
        <ele>419.622449</ele>
        <time>2021-11-14T21:19:30.125Z</time>
      </trkpt>
      <trkpt lat="47.508106" lon="7.925799">
        <ele>420.268044</ele>
        <time>2021-11-14T21:19:36.440Z</time>
      </trkpt>
      <trkpt lat="47.508002" lon="7.925879">
        <ele>420.538150</ele>
        <time>2021-11-14T21:19:38.827Z</time>
      </trkpt>
      <trkpt lat="47.507856" lon="7.925990">
        <ele>420.916404</ele>
        <time>2021-11-14T21:19:42.684Z</time>
      </trkpt>
      <trkpt lat="47.506112" lon="7.927414">
        <ele>426.934097</ele>
        <time>2021-11-14T21:20:35.679Z</time>
      </trkpt>
      <trkpt lat="47.505881" lon="7.927601">
        <ele>427.782007</ele>
        <time>2021-11-14T21:20:44.374Z</time>
      </trkpt>
      <trkpt lat="47.505868" lon="7.927611">
        <ele>427.829950</ele>
        <time>2021-11-14T21:20:44.838Z</time>
      </trkpt>
      <trkpt lat="47.505814" lon="7.927657">
        <ele>428.033834</ele>
        <time>2021-11-14T21:20:47.394Z</time>
      </trkpt>
      <trkpt lat="47.505253" lon="7.928170">
        <ele>430.191720</ele>
        <time>2021-11-14T21:21:08.063Z</time>
      </trkpt>
      <trkpt lat="47.504799" lon="7.928777">
        <ele>432.193702</ele>
        <time>2021-11-14T21:21:23.463Z</time>
      </trkpt>
      <trkpt lat="47.504724" lon="7.928871">
        <ele>432.515293</ele>
        <time>2021-11-14T21:21:27.428Z</time>
      </trkpt>
      <trkpt lat="47.504650" lon="7.928941">
        <ele>432.802677</ele>
        <time>2021-11-14T21:21:29.962Z</time>
      </trkpt>
      <trkpt lat="47.504005" lon="7.929312">
        <ele>433.870974</ele>
        <time>2021-11-14T21:21:44.403Z</time>
      </trkpt>
      <trkpt lat="47.503815" lon="7.929426">
        <ele>434.117302</ele>
        <time>2021-11-14T21:21:47.362Z</time>
      </trkpt>
      <trkpt lat="47.503598" lon="7.929585">
        <ele>434.408224</ele>
        <time>2021-11-14T21:21:52.638Z</time>
      </trkpt>
      <trkpt lat="47.503528" lon="7.929650">
        <ele>434.507508</ele>
        <time>2021-11-14T21:21:53.710Z</time>
      </trkpt>
      <trkpt lat="47.503485" lon="7.929688">
        <ele>434.567680</ele>
        <time>2021-11-14T21:21:55.222Z</time>
      </trkpt>
      <trkpt lat="47.503014" lon="7.930220">
        <ele>435.279526</ele>
        <time>2021-11-14T21:22:05.134Z</time>
      </trkpt>
      <trkpt lat="47.502761" lon="7.930610">
        <ele>435.593638</ele>
        <time>2021-11-14T21:22:11.487Z</time>
      </trkpt>
      <trkpt lat="47.502613" lon="7.930856">
        <ele>435.773304</ele>
        <time>2021-11-14T21:22:15.285Z</time>
      </trkpt>
      <trkpt lat="47.502400" lon="7.931256">
        <ele>436.051099</ele>
        <time>2021-11-14T21:22:22.089Z</time>
      </trkpt>
      <trkpt lat="47.502023" lon="7.932158">
        <ele>436.629613</ele>
        <time>2021-11-14T21:22:35.075Z</time>
      </trkpt>
      <trkpt lat="47.501901" lon="7.932351">
        <ele>436.773776</ele>
        <time>2021-11-14T21:22:38.834Z</time>
      </trkpt>
      <trkpt lat="47.501794" lon="7.932466">
        <ele>436.842798</ele>
        <time>2021-11-14T21:22:40.713Z</time>
      </trkpt>
      <trkpt lat="47.501463" lon="7.932668">
        <ele>437.011070</ele>
        <time>2021-11-14T21:22:46.853Z</time>
      </trkpt>
      <trkpt lat="47.501075" lon="7.932885">
        <ele>437.206011</ele>
        <time>2021-11-14T21:22:54.392Z</time>
      </trkpt>
      <trkpt lat="47.500990" lon="7.932950">
        <ele>437.250977</ele>
        <time>2021-11-14T21:22:56.210Z</time>
      </trkpt>
      <trkpt lat="47.500843" lon="7.933102">
        <ele>437.335254</ele>
        <time>2021-11-14T21:22:59.089Z</time>
      </trkpt>
      <trkpt lat="47.500435" lon="7.933872">
        <ele>437.656726</ele>
        <time>2021-11-14T21:23:08.920Z</time>
      </trkpt>
      <trkpt lat="47.500386" lon="7.933937">
        <ele>437.719645</ele>
        <time>2021-11-14T21:23:09.779Z</time>
      </trkpt>
      <trkpt lat="47.500352" lon="7.933976">
        <ele>437.760778</ele>
        <time>2021-11-14T21:23:10.541Z</time>
      </trkpt>
      <trkpt lat="47.500275" lon="7.934029">
        <ele>437.841981</ele>
        <time>2021-11-14T21:23:11.649Z</time>
      </trkpt>
      <trkpt lat="47.500208" lon="7.934071">
        <ele>437.911559</ele>
        <time>2021-11-14T21:23:12.882Z</time>
      </trkpt>
      <trkpt lat="47.500193" lon="7.934023">
        <ele>437.945725</ele>
        <time>2021-11-14T21:23:13.361Z</time>
      </trkpt>
      <trkpt lat="47.500169" lon="7.933984">
        <ele>437.979806</ele>
        <time>2021-11-14T21:23:13.794Z</time>
      </trkpt>
      <trkpt lat="47.500138" lon="7.933956">
        <ele>438.014533</ele>
        <time>2021-11-14T21:23:14.338Z</time>
      </trkpt>
      <trkpt lat="47.500067" lon="7.933946">
        <ele>438.082734</ele>
        <time>2021-11-14T21:23:15.286Z</time>
      </trkpt>
      <trkpt lat="47.500034" lon="7.933965">
        <ele>438.116593</ele>
        <time>2021-11-14T21:23:16.105Z</time>
      </trkpt>
      <trkpt lat="47.499993" lon="7.933864">
        <ele>438.192716</ele>
        <time>2021-11-14T21:23:17.647Z</time>
      </trkpt>
      <trkpt lat="47.499822" lon="7.933272">
        <ele>438.608660</ele>
        <time>2021-11-14T21:23:25.627Z</time>
      </trkpt>
      <trkpt lat="47.499538" lon="7.932868">
        <ele>438.985322</ele>
        <time>2021-11-14T21:23:33.608Z</time>
      </trkpt>
      <trkpt lat="47.499421" lon="7.932805">
        <ele>439.104377</ele>
        <time>2021-11-14T21:23:36.663Z</time>
      </trkpt>
      <trkpt lat="47.499354" lon="7.932769">
        <ele>439.172537</ele>
        <time>2021-11-14T21:23:38.390Z</time>
      </trkpt>
      <trkpt lat="47.499088" lon="7.932741">
        <ele>439.494558</ele>
        <time>2021-11-14T21:23:44.267Z</time>
      </trkpt>
      <trkpt lat="47.498997" lon="7.932758">
        <ele>439.663903</ele>
        <time>2021-11-14T21:23:46.305Z</time>
      </trkpt>
      <trkpt lat="47.498925" lon="7.932781">
        <ele>439.799897</ele>
        <time>2021-11-14T21:23:48.012Z</time>
      </trkpt>
      <trkpt lat="47.498481" lon="7.933011">
        <ele>440.668404</ele>
        <time>2021-11-14T21:23:57.266Z</time>
      </trkpt>
      <trkpt lat="47.498431" lon="7.932995">
        <ele>440.762852</ele>
        <time>2021-11-14T21:23:58.488Z</time>
      </trkpt>
      <trkpt lat="47.498391" lon="7.932972">
        <ele>440.842080</ele>
        <time>2021-11-14T21:23:59.407Z</time>
      </trkpt>
      <trkpt lat="47.498196" lon="7.932613">
        <ele>441.416669</ele>
        <time>2021-11-14T21:24:06.131Z</time>
      </trkpt>
      <trkpt lat="47.498138" lon="7.932522">
        <ele>441.572720</ele>
        <time>2021-11-14T21:24:08.131Z</time>
      </trkpt>
      <trkpt lat="47.498068" lon="7.932426">
        <ele>441.748910</ele>
        <time>2021-11-14T21:24:10.578Z</time>
      </trkpt>
      <trkpt lat="47.497907" lon="7.932254">
        <ele>442.115504</ele>
        <time>2021-11-14T21:24:15.280Z</time>
      </trkpt>
      <trkpt lat="47.497676" lon="7.932013">
        <ele>442.637298</ele>
        <time>2021-11-14T21:24:21.759Z</time>
      </trkpt>
      <trkpt lat="47.497430" lon="7.931757">
        <ele>443.086896</ele>
        <time>2021-11-14T21:24:29.350Z</time>
      </trkpt>
      <trkpt lat="47.497221" lon="7.931528">
        <ele>443.468760</ele>
        <time>2021-11-14T21:24:35.347Z</time>
      </trkpt>
      <trkpt lat="47.497104" lon="7.931414">
        <ele>443.674462</ele>
        <time>2021-11-14T21:24:38.145Z</time>
      </trkpt>
      <trkpt lat="47.496998" lon="7.931330">
        <ele>443.851030</ele>
        <time>2021-11-14T21:24:40.556Z</time>
      </trkpt>
      <trkpt lat="47.496424" lon="7.931075">
        <ele>444.731102</ele>
        <time>2021-11-14T21:24:51.305Z</time>
      </trkpt>
      <trkpt lat="47.496205" lon="7.930904">
        <ele>445.094714</ele>
        <time>2021-11-14T21:24:55.325Z</time>
      </trkpt>
      <trkpt lat="47.496162" lon="7.930842">
        <ele>445.182870</ele>
        <time>2021-11-14T21:24:56.890Z</time>
      </trkpt>
      <trkpt lat="47.496117" lon="7.930763">
        <ele>445.285391</ele>
        <time>2021-11-14T21:24:58.158Z</time>
      </trkpt>
      <trkpt lat="47.496051" lon="7.930607">
        <ele>445.549451</ele>
        <time>2021-11-14T21:25:00.940Z</time>
      </trkpt>
      <trkpt lat="47.495985" lon="7.930428">
        <ele>445.861379</ele>
        <time>2021-11-14T21:25:03.772Z</time>
      </trkpt>
      <trkpt lat="47.495801" lon="7.929891">
        <ele>446.782402</ele>
        <time>2021-11-14T21:25:13.430Z</time>
      </trkpt>
      <trkpt lat="47.495622" lon="7.929400">
        <ele>447.635827</ele>
        <time>2021-11-14T21:25:22.043Z</time>
      </trkpt>
      <trkpt lat="47.495562" lon="7.929221">
        <ele>447.941483</ele>
        <time>2021-11-14T21:25:25.002Z</time>
      </trkpt>
      <trkpt lat="47.495530" lon="7.929063">
        <ele>448.193796</ele>
        <time>2021-11-14T21:25:27.477Z</time>
      </trkpt>
      <trkpt lat="47.495455" lon="7.928595">
        <ele>448.929545</ele>
        <time>2021-11-14T21:25:36.304Z</time>
      </trkpt>
      <trkpt lat="47.495268" lon="7.927740">
        <ele>450.919710</ele>
        <time>2021-11-14T21:25:53.313Z</time>
      </trkpt>
      <trkpt lat="47.495031" lon="7.927006">
        <ele>453.001709</ele>
        <time>2021-11-14T21:26:10.215Z</time>
      </trkpt>
      <trkpt lat="47.494945" lon="7.926765">
        <ele>453.699238</ele>
        <time>2021-11-14T21:26:16.858Z</time>
      </trkpt>
      <trkpt lat="47.494515" lon="7.925509">
        <ele>457.210544</ele>
        <time>2021-11-14T21:26:45.277Z</time>
      </trkpt>
      <trkpt lat="47.494438" lon="7.925289">
        <ele>457.791456</ele>
        <time>2021-11-14T21:26:50.710Z</time>
      </trkpt>
      <trkpt lat="47.494034" lon="7.924101">
        <ele>460.909766</ele>
        <time>2021-11-14T21:27:15.774Z</time>
      </trkpt>
      <trkpt lat="47.493708" lon="7.923049">
        <ele>463.706154</ele>
        <time>2021-11-14T21:27:37.346Z</time>
      </trkpt>
      <trkpt lat="47.493397" lon="7.921760">
        <ele>467.140644</ele>
        <time>2021-11-14T21:28:04.325Z</time>
      </trkpt>
      <trkpt lat="47.493307" lon="7.921373">
        <ele>468.167650</ele>
        <time>2021-11-14T21:28:12.819Z</time>
      </trkpt>
      <trkpt lat="47.493236" lon="7.921091">
        <ele>468.922800</ele>
        <time>2021-11-14T21:28:19.200Z</time>
      </trkpt>
      <trkpt lat="47.493132" lon="7.920716">
        <ele>470.156625</ele>
        <time>2021-11-14T21:28:28.250Z</time>
      </trkpt>
      <trkpt lat="47.492813" lon="7.919900">
        <ele>473.150369</ele>
        <time>2021-11-14T21:28:49.733Z</time>
      </trkpt>
      <trkpt lat="47.492584" lon="7.919482">
        <ele>474.859271</ele>
        <time>2021-11-14T21:29:02.506Z</time>
      </trkpt>
      <trkpt lat="47.492227" lon="7.918989">
        <ele>477.154095</ele>
        <time>2021-11-14T21:29:19.407Z</time>
      </trkpt>
      <trkpt lat="47.491324" lon="7.917985">
        <ele>481.782395</ele>
        <time>2021-11-14T21:29:56.192Z</time>
      </trkpt>
      <trkpt lat="47.490822" lon="7.917158">
        <ele>484.821453</ele>
        <time>2021-11-14T21:30:18.352Z</time>
      </trkpt>
      <trkpt lat="47.490607" lon="7.916690">
        <ele>485.826906</ele>
        <time>2021-11-14T21:30:28.550Z</time>
      </trkpt>
      <trkpt lat="47.490429" lon="7.916164">
        <ele>486.859928</ele>
        <time>2021-11-14T21:30:38.419Z</time>
      </trkpt>
      <trkpt lat="47.490283" lon="7.915612">
        <ele>487.900863</ele>
        <time>2021-11-14T21:30:48.247Z</time>
      </trkpt>
      <trkpt lat="47.489987" lon="7.914083">
        <ele>490.692148</ele>
        <time>2021-11-14T21:31:14.028Z</time>
      </trkpt>
      <trkpt lat="47.489951" lon="7.913893">
        <ele>491.038157</ele>
        <time>2021-11-14T21:31:17.022Z</time>
      </trkpt>
      <trkpt lat="47.489922" lon="7.913738">
        <ele>491.320172</ele>
        <time>2021-11-14T21:31:19.527Z</time>
      </trkpt>
      <trkpt lat="47.489843" lon="7.913398">
        <ele>491.950615</ele>
        <time>2021-11-14T21:31:24.874Z</time>
      </trkpt>
      <trkpt lat="47.489607" lon="7.912646">
        <ele>493.404508</ele>
        <time>2021-11-14T21:31:39.102Z</time>
      </trkpt>
      <trkpt lat="47.489216" lon="7.911685">
        <ele>496.030735</ele>
        <time>2021-11-14T21:32:01.416Z</time>
      </trkpt>
      <trkpt lat="47.489040" lon="7.911300">
        <ele>497.302842</ele>
        <time>2021-11-14T21:32:10.883Z</time>
      </trkpt>
      <trkpt lat="47.488908" lon="7.911009">
        <ele>498.262032</ele>
        <time>2021-11-14T21:32:19.444Z</time>
      </trkpt>
      <trkpt lat="47.488699" lon="7.910498">
        <ele>499.896730</ele>
        <time>2021-11-14T21:32:33.107Z</time>
      </trkpt>
      <trkpt lat="47.488366" lon="7.909318">
        <ele>503.042010</ele>
        <time>2021-11-14T21:32:58.980Z</time>
      </trkpt>
      <trkpt lat="47.488241" lon="7.908835">
        <ele>504.195676</ele>
        <time>2021-11-14T21:33:08.166Z</time>
      </trkpt>
      <trkpt lat="47.488185" lon="7.908663">
        <ele>504.621542</ele>
        <time>2021-11-14T21:33:12.218Z</time>
      </trkpt>
      <trkpt lat="47.488080" lon="7.908344">
        <ele>505.413014</ele>
        <time>2021-11-14T21:33:18.179Z</time>
      </trkpt>
      <trkpt lat="47.487763" lon="7.907711">
        <ele>507.170434</ele>
        <time>2021-11-14T21:33:33.237Z</time>
      </trkpt>
      <trkpt lat="47.487587" lon="7.907459">
        <ele>508.095753</ele>
        <time>2021-11-14T21:33:39.696Z</time>
      </trkpt>
      <trkpt lat="47.487378" lon="7.907191">
        <ele>509.198804</ele>
        <time>2021-11-14T21:33:46.895Z</time>
      </trkpt>
      <trkpt lat="47.487197" lon="7.906946">
        <ele>510.177210</ele>
        <time>2021-11-14T21:33:53.036Z</time>
      </trkpt>
      <trkpt lat="47.486969" lon="7.906583">
        <ele>511.512994</ele>
        <time>2021-11-14T21:34:01.345Z</time>
      </trkpt>
      <trkpt lat="47.486769" lon="7.905976">
        <ele>513.333199</ele>
        <time>2021-11-14T21:34:17.374Z</time>
      </trkpt>
      <trkpt lat="47.486724" lon="7.905485">
        <ele>514.709949</ele>
        <time>2021-11-14T21:34:30.046Z</time>
      </trkpt>
      <trkpt lat="47.486755" lon="7.904487">
        <ele>518.842925</ele>
        <time>2021-11-14T21:34:56.912Z</time>
      </trkpt>
      <trkpt lat="47.486721" lon="7.904326">
        <ele>519.540729</ele>
        <time>2021-11-14T21:35:01.927Z</time>
      </trkpt>
      <trkpt lat="47.486688" lon="7.904238">
        <ele>519.957073</ele>
        <time>2021-11-14T21:35:05.081Z</time>
      </trkpt>
      <trkpt lat="47.486480" lon="7.904016">
        <ele>521.527054</ele>
        <time>2021-11-14T21:35:14.186Z</time>
      </trkpt>
      <trkpt lat="47.486247" lon="7.904043">
        <ele>522.957806</ele>
        <time>2021-11-14T21:35:22.854Z</time>
      </trkpt>
      <trkpt lat="47.486049" lon="7.904262">
        <ele>524.471099</ele>
        <time>2021-11-14T21:35:34.249Z</time>
      </trkpt>
      <trkpt lat="47.485593" lon="7.905145">
        <ele>527.415236</ele>
        <time>2021-11-14T21:36:04.016Z</time>
      </trkpt>
      <trkpt lat="47.485331" lon="7.905337">
        <ele>528.351263</ele>
        <time>2021-11-14T21:36:12.600Z</time>
      </trkpt>
      <trkpt lat="47.485073" lon="7.905345">
        <ele>529.177441</ele>
        <time>2021-11-14T21:36:19.212Z</time>
      </trkpt>
      <trkpt lat="47.485049" lon="7.905336">
        <ele>529.256707</ele>
        <time>2021-11-14T21:36:20.809Z</time>
      </trkpt>
      <trkpt lat="47.484936" lon="7.905289">
        <ele>529.632500</ele>
        <time>2021-11-14T21:36:23.438Z</time>
      </trkpt>
      <trkpt lat="47.484713" lon="7.905133">
        <ele>530.422203</ele>
        <time>2021-11-14T21:36:29.058Z</time>
      </trkpt>
      <trkpt lat="47.484481" lon="7.904947">
        <ele>531.266971</ele>
        <time>2021-11-14T21:36:32.435Z</time>
      </trkpt>
      <trkpt lat="47.484248" lon="7.904856">
        <ele>530.544749</ele>
        <time>2021-11-14T21:36:35.463Z</time>
      </trkpt>
      <trkpt lat="47.484124" lon="7.904824">
        <ele>530.059087</ele>
        <time>2021-11-14T21:36:36.940Z</time>
      </trkpt>
      <trkpt lat="47.484064" lon="7.904808">
        <ele>529.823855</ele>
        <time>2021-11-14T21:36:37.609Z</time>
      </trkpt>
      <trkpt lat="47.484005" lon="7.904793">
        <ele>529.592874</ele>
        <time>2021-11-14T21:36:38.341Z</time>
      </trkpt>
      <trkpt lat="47.483385" lon="7.904708">
        <ele>527.190428</ele>
        <time>2021-11-14T21:36:44.795Z</time>
      </trkpt>
      <trkpt lat="47.483329" lon="7.904705">
        <ele>526.974217</ele>
        <time>2021-11-14T21:36:45.302Z</time>
      </trkpt>
      <trkpt lat="47.483101" lon="7.904680">
        <ele>526.092093</ele>
        <time>2021-11-14T21:36:47.432Z</time>
      </trkpt>
      <trkpt lat="47.482433" lon="7.904538">
        <ele>522.769659</ele>
        <time>2021-11-14T21:36:53.403Z</time>
      </trkpt>
      <trkpt lat="47.482157" lon="7.904346">
        <ele>520.686649</ele>
        <time>2021-11-14T21:36:56.116Z</time>
      </trkpt>
      <trkpt lat="47.481709" lon="7.903892">
        <ele>516.977994</ele>
        <time>2021-11-14T21:37:00.955Z</time>
      </trkpt>
      <trkpt lat="47.481588" lon="7.903776">
        <ele>515.993270</ele>
        <time>2021-11-14T21:37:02.241Z</time>
      </trkpt>
      <trkpt lat="47.481478" lon="7.903693">
        <ele>515.149926</ele>
        <time>2021-11-14T21:37:03.373Z</time>
      </trkpt>
      <trkpt lat="47.480980" lon="7.903461">
        <ele>511.712842</ele>
        <time>2021-11-14T21:37:08.204Z</time>
      </trkpt>
      <trkpt lat="47.478367" lon="7.903166">
        <ele>497.458618</ele>
        <time>2021-11-14T21:37:32.836Z</time>
      </trkpt>
      <trkpt lat="47.478182" lon="7.903109">
        <ele>496.358117</ele>
        <time>2021-11-14T21:37:34.580Z</time>
      </trkpt>
      <trkpt lat="47.478118" lon="7.903075">
        <ele>495.962101</ele>
        <time>2021-11-14T21:37:35.178Z</time>
      </trkpt>
      <trkpt lat="47.476982" lon="7.902234">
        <ele>488.303049</ele>
        <time>2021-11-14T21:37:46.672Z</time>
      </trkpt>
      <trkpt lat="47.476536" lon="7.901977">
        <ele>485.317534</ele>
        <time>2021-11-14T21:37:51.039Z</time>
      </trkpt>
      <trkpt lat="47.476364" lon="7.901870">
        <ele>484.153688</ele>
        <time>2021-11-14T21:37:52.734Z</time>
      </trkpt>
      <trkpt lat="47.475300" lon="7.901112">
        <ele>477.325836</ele>
        <time>2021-11-14T21:38:03.643Z</time>
      </trkpt>
      <trkpt lat="47.475163" lon="7.901034">
        <ele>476.526573</ele>
        <time>2021-11-14T21:38:04.969Z</time>
      </trkpt>
      <trkpt lat="47.474888" lon="7.900841">
        <ele>474.869330</ele>
        <time>2021-11-14T21:38:07.822Z</time>
      </trkpt>
      <trkpt lat="47.474617" lon="7.900560">
        <ele>473.067481</ele>
        <time>2021-11-14T21:38:10.951Z</time>
      </trkpt>
      <trkpt lat="47.474336" lon="7.900125">
        <ele>470.899583</ele>
        <time>2021-11-14T21:38:14.793Z</time>
      </trkpt>
      <trkpt lat="47.474186" lon="7.899915">
        <ele>469.914233</ele>
        <time>2021-11-14T21:38:16.728Z</time>
      </trkpt>
      <trkpt lat="47.474087" lon="7.899774">
        <ele>469.258558</ele>
        <time>2021-11-14T21:38:18.039Z</time>
      </trkpt>
      <trkpt lat="47.473931" lon="7.899567">
        <ele>468.258706</ele>
        <time>2021-11-14T21:38:19.999Z</time>
      </trkpt>
      <trkpt lat="47.473317" lon="7.898945">
        <ele>464.708118</ele>
        <time>2021-11-14T21:38:27.239Z</time>
      </trkpt>
      <trkpt lat="47.471910" lon="7.898392">
        <ele>457.245717</ele>
        <time>2021-11-14T21:38:40.833Z</time>
      </trkpt>
      <trkpt lat="47.471825" lon="7.898370">
        <ele>456.790486</ele>
        <time>2021-11-14T21:38:41.620Z</time>
      </trkpt>
      <trkpt lat="47.471597" lon="7.898344">
        <ele>455.584095</ele>
        <time>2021-11-14T21:38:43.773Z</time>
      </trkpt>
      <trkpt lat="47.471002" lon="7.898222">
        <ele>452.578287</ele>
        <time>2021-11-14T21:38:49.367Z</time>
      </trkpt>
      <trkpt lat="47.469999" lon="7.897879">
        <ele>448.339176</ele>
        <time>2021-11-14T21:38:59.119Z</time>
      </trkpt>
      <trkpt lat="47.469806" lon="7.897795">
        <ele>447.510751</ele>
        <time>2021-11-14T21:39:01.148Z</time>
      </trkpt>
      <trkpt lat="47.469534" lon="7.897638">
        <ele>446.308459</ele>
        <time>2021-11-14T21:39:04.233Z</time>
      </trkpt>
      <trkpt lat="47.469598" lon="7.897405">
        <ele>445.700240</ele>
        <time>2021-11-14T21:39:06.024Z</time>
      </trkpt>
      <trkpt lat="47.469652" lon="7.897139">
        <ele>445.421467</ele>
        <time>2021-11-14T21:39:08.049Z</time>
      </trkpt>
      <trkpt lat="47.469678" lon="7.896938">
        <ele>445.216056</ele>
        <time>2021-11-14T21:39:09.511Z</time>
      </trkpt>
      <trkpt lat="47.469692" lon="7.896826">
        <ele>445.101732</ele>
        <time>2021-11-14T21:39:10.408Z</time>
      </trkpt>
      <trkpt lat="47.469738" lon="7.896220">
        <ele>444.489648</ele>
        <time>2021-11-14T21:39:15.001Z</time>
      </trkpt>
      <trkpt lat="47.469747" lon="7.895922">
        <ele>444.190237</ele>
        <time>2021-11-14T21:39:17.237Z</time>
      </trkpt>
      <trkpt lat="47.469734" lon="7.895575">
        <ele>443.841408</ele>
        <time>2021-11-14T21:39:20.277Z</time>
      </trkpt>
      <trkpt lat="47.469728" lon="7.895384">
        <ele>443.649488</ele>
        <time>2021-11-14T21:39:21.870Z</time>
      </trkpt>
      <trkpt lat="47.469714" lon="7.895204">
        <ele>443.467625</ele>
        <time>2021-11-14T21:39:23.545Z</time>
      </trkpt>
      <trkpt lat="47.469691" lon="7.894970">
        <ele>443.230281</ele>
        <time>2021-11-14T21:39:25.681Z</time>
      </trkpt>
      <trkpt lat="47.469658" lon="7.894567">
        <ele>442.957666</ele>
        <time>2021-11-14T21:39:29.351Z</time>
      </trkpt>
      <trkpt lat="47.469623" lon="7.894244">
        <ele>442.800604</ele>
        <time>2021-11-14T21:39:32.314Z</time>
      </trkpt>
      <trkpt lat="47.469496" lon="7.893085">
        <ele>442.236867</ele>
        <time>2021-11-14T21:39:42.569Z</time>
      </trkpt>
      <trkpt lat="47.469288" lon="7.891996">
        <ele>441.637936</ele>
        <time>2021-11-14T21:39:52.082Z</time>
      </trkpt>
      <trkpt lat="47.468951" lon="7.890216">
        <ele>440.302889</ele>
        <time>2021-11-14T21:40:07.099Z</time>
      </trkpt>
      <trkpt lat="47.468718" lon="7.888938">
        <ele>439.658412</ele>
        <time>2021-11-14T21:40:17.977Z</time>
      </trkpt>
      <trkpt lat="47.468546" lon="7.888014">
        <ele>439.369123</ele>
        <time>2021-11-14T21:40:26.303Z</time>
      </trkpt>
      <trkpt lat="47.468250" lon="7.886308">
        <ele>440.044579</ele>
        <time>2021-11-14T21:40:44.550Z</time>
      </trkpt>
      <trkpt lat="47.468174" lon="7.885724">
        <ele>440.762443</ele>
        <time>2021-11-14T21:40:53.404Z</time>
      </trkpt>
      <trkpt lat="47.468160" lon="7.885412">
        <ele>441.139873</ele>
        <time>2021-11-14T21:40:58.472Z</time>
      </trkpt>
      <trkpt lat="47.468160" lon="7.885131">
        <ele>441.479056</ele>
        <time>2021-11-14T21:41:03.125Z</time>
      </trkpt>
      <trkpt lat="47.468170" lon="7.884753">
        <ele>441.935673</ele>
        <time>2021-11-14T21:41:09.229Z</time>
      </trkpt>
      <trkpt lat="47.468175" lon="7.884477">
        <ele>442.268940</ele>
        <time>2021-11-14T21:41:14.951Z</time>
      </trkpt>
      <trkpt lat="47.468125" lon="7.883951">
        <ele>443.241618</ele>
        <time>2021-11-14T21:41:26.187Z</time>
      </trkpt>
      <trkpt lat="47.468085" lon="7.883534">
        <ele>444.022057</ele>
        <time>2021-11-14T21:41:34.450Z</time>
      </trkpt>
      <trkpt lat="47.467832" lon="7.882502">
        <ele>446.056217</ele>
        <time>2021-11-14T21:41:56.031Z</time>
      </trkpt>
      <trkpt lat="47.467789" lon="7.882188">
        <ele>446.649879</ele>
        <time>2021-11-14T21:42:01.667Z</time>
      </trkpt>
      <trkpt lat="47.467755" lon="7.881902">
        <ele>447.187970</ele>
        <time>2021-11-14T21:42:05.782Z</time>
      </trkpt>
      <trkpt lat="47.467712" lon="7.880819">
        <ele>444.283285</ele>
        <time>2021-11-14T21:42:14.557Z</time>
      </trkpt>
      <trkpt lat="47.467695" lon="7.879712">
        <ele>441.235113</ele>
        <time>2021-11-14T21:42:21.425Z</time>
      </trkpt>
      <trkpt lat="47.467758" lon="7.879308">
        <ele>440.093762</ele>
        <time>2021-11-14T21:42:23.911Z</time>
      </trkpt>
      <trkpt lat="47.467814" lon="7.879126">
        <ele>439.238881</ele>
        <time>2021-11-14T21:42:25.081Z</time>
      </trkpt>
      <trkpt lat="47.467908" lon="7.878819">
        <ele>437.511365</ele>
        <time>2021-11-14T21:42:27.108Z</time>
      </trkpt>
      <trkpt lat="47.468067" lon="7.878427">
        <ele>435.168109</ele>
        <time>2021-11-14T21:42:29.879Z</time>
      </trkpt>
      <trkpt lat="47.468104" lon="7.878354">
        <ele>434.700432</ele>
        <time>2021-11-14T21:42:30.390Z</time>
      </trkpt>
      <trkpt lat="47.468268" lon="7.878083">
        <ele>432.836047</ele>
        <time>2021-11-14T21:42:32.595Z</time>
      </trkpt>
      <trkpt lat="47.468308" lon="7.877998">
        <ele>432.305183</ele>
        <time>2021-11-14T21:42:33.225Z</time>
      </trkpt>
      <trkpt lat="47.468327" lon="7.877957">
        <ele>432.050387</ele>
        <time>2021-11-14T21:42:33.504Z</time>
      </trkpt>
      <trkpt lat="47.468377" lon="7.877826">
        <ele>431.279274</ele>
        <time>2021-11-14T21:42:34.381Z</time>
      </trkpt>
      <trkpt lat="47.468557" lon="7.876917">
        <ele>426.424180</ele>
        <time>2021-11-14T21:42:40.050Z</time>
      </trkpt>
      <trkpt lat="47.468639" lon="7.876439">
        <ele>425.232728</ele>
        <time>2021-11-14T21:42:43.243Z</time>
      </trkpt>
      <trkpt lat="47.468698" lon="7.876140">
        <ele>424.539519</ele>
        <time>2021-11-14T21:42:45.329Z</time>
      </trkpt>
      <trkpt lat="47.468806" lon="7.875696">
        <ele>423.489352</ele>
        <time>2021-11-14T21:42:48.601Z</time>
      </trkpt>
      <trkpt lat="47.468925" lon="7.875205">
        <ele>422.328502</ele>
        <time>2021-11-14T21:42:52.536Z</time>
      </trkpt>
      <trkpt lat="47.468989" lon="7.874967">
        <ele>421.758454</ele>
        <time>2021-11-14T21:42:54.352Z</time>
      </trkpt>
      <trkpt lat="47.469050" lon="7.874738">
        <ele>421.210666</ele>
        <time>2021-11-14T21:42:56.214Z</time>
      </trkpt>
      <trkpt lat="47.469068" lon="7.874689">
        <ele>421.086553</ele>
        <time>2021-11-14T21:42:56.617Z</time>
      </trkpt>
      <trkpt lat="47.469097" lon="7.874606">
        <ele>420.878619</ele>
        <time>2021-11-14T21:42:57.273Z</time>
      </trkpt>
      <trkpt lat="47.469136" lon="7.874516">
        <ele>420.640700</ele>
        <time>2021-11-14T21:42:58.033Z</time>
      </trkpt>
      <trkpt lat="47.469173" lon="7.874432">
        <ele>420.417571</ele>
        <time>2021-11-14T21:42:58.788Z</time>
      </trkpt>
      <trkpt lat="47.469224" lon="7.874328">
        <ele>420.218724</ele>
        <time>2021-11-14T21:42:59.795Z</time>
      </trkpt>
      <trkpt lat="47.469422" lon="7.873965">
        <ele>419.621787</ele>
        <time>2021-11-14T21:43:03.257Z</time>
      </trkpt>
      <trkpt lat="47.469489" lon="7.873809">
        <ele>419.385254</ele>
        <time>2021-11-14T21:43:04.662Z</time>
      </trkpt>
      <trkpt lat="47.469626" lon="7.873477">
        <ele>418.887459</ele>
        <time>2021-11-14T21:43:07.559Z</time>
      </trkpt>
      <trkpt lat="47.469682" lon="7.873326">
        <ele>418.667041</ele>
        <time>2021-11-14T21:43:08.886Z</time>
      </trkpt>
      <trkpt lat="47.469710" lon="7.873249">
        <ele>418.555145</ele>
        <time>2021-11-14T21:43:09.478Z</time>
      </trkpt>
      <trkpt lat="47.469969" lon="7.872276">
        <ele>417.216865</ele>
        <time>2021-11-14T21:43:17.424Z</time>
      </trkpt>
      <trkpt lat="47.470156" lon="7.871491">
        <ele>416.361354</ele>
        <time>2021-11-14T21:43:23.766Z</time>
      </trkpt>
      <trkpt lat="47.470217" lon="7.871214">
        <ele>416.088779</ele>
        <time>2021-11-14T21:43:25.927Z</time>
      </trkpt>
      <trkpt lat="47.470245" lon="7.871088">
        <ele>415.964683</ele>
        <time>2021-11-14T21:43:26.941Z</time>
      </trkpt>
      <trkpt lat="47.470316" lon="7.870753">
        <ele>415.636203</ele>
        <time>2021-11-14T21:43:29.761Z</time>
      </trkpt>
      <trkpt lat="47.470333" lon="7.870669">
        <ele>415.554164</ele>
        <time>2021-11-14T21:43:30.405Z</time>
      </trkpt>
      <trkpt lat="47.470350" lon="7.870570">
        <ele>415.458595</ele>
        <time>2021-11-14T21:43:31.198Z</time>
      </trkpt>
      <trkpt lat="47.470379" lon="7.870338">
        <ele>415.237850</ele>
        <time>2021-11-14T21:43:33.143Z</time>
      </trkpt>
      <trkpt lat="47.470397" lon="7.870147">
        <ele>415.057417</ele>
        <time>2021-11-14T21:43:35.274Z</time>
      </trkpt>
      <trkpt lat="47.470378" lon="7.869626">
        <ele>414.569248</ele>
        <time>2021-11-14T21:43:41.283Z</time>
      </trkpt>
      <trkpt lat="47.470309" lon="7.869201">
        <ele>414.304117</ele>
        <time>2021-11-14T21:43:46.572Z</time>
      </trkpt>
      <trkpt lat="47.470234" lon="7.868884">
        <ele>414.150402</ele>
        <time>2021-11-14T21:43:50.627Z</time>
      </trkpt>
      <trkpt lat="47.470127" lon="7.868484">
        <ele>413.953516</ele>
        <time>2021-11-14T21:43:56.082Z</time>
      </trkpt>
      <trkpt lat="47.469915" lon="7.867494">
        <ele>413.478216</ele>
        <time>2021-11-14T21:44:09.249Z</time>
      </trkpt>
      <trkpt lat="47.469808" lon="7.866690">
        <ele>412.977512</ele>
        <time>2021-11-14T21:44:18.973Z</time>
      </trkpt>
      <trkpt lat="47.469764" lon="7.866452">
        <ele>412.747161</ele>
        <time>2021-11-14T21:44:21.981Z</time>
      </trkpt>
      <trkpt lat="47.469710" lon="7.866208">
        <ele>412.507471</ele>
        <time>2021-11-14T21:44:24.945Z</time>
      </trkpt>
      <trkpt lat="47.469629" lon="7.865918">
        <ele>412.214532</ele>
        <time>2021-11-14T21:44:28.693Z</time>
      </trkpt>
      <trkpt lat="47.469305" lon="7.864692">
        <ele>410.985602</ele>
        <time>2021-11-14T21:44:43.064Z</time>
      </trkpt>
      <trkpt lat="47.469011" lon="7.863405">
        <ele>409.432649</ele>
        <time>2021-11-14T21:44:57.766Z</time>
      </trkpt>
      <trkpt lat="47.468986" lon="7.863323">
        <ele>409.325291</ele>
        <time>2021-11-14T21:44:58.622Z</time>
      </trkpt>
      <trkpt lat="47.468943" lon="7.863195">
        <ele>409.154702</ele>
        <time>2021-11-14T21:45:00.180Z</time>
      </trkpt>
      <trkpt lat="47.468859" lon="7.862978">
        <ele>408.856262</ele>
        <time>2021-11-14T21:45:02.950Z</time>
      </trkpt>
      <trkpt lat="47.468825" lon="7.862900">
        <ele>408.745495</ele>
        <time>2021-11-14T21:45:03.907Z</time>
      </trkpt>
      <trkpt lat="47.468543" lon="7.862357">
        <ele>407.928266</ele>
        <time>2021-11-14T21:45:11.333Z</time>
      </trkpt>
      <trkpt lat="47.468224" lon="7.861805">
        <ele>407.254714</ele>
        <time>2021-11-14T21:45:19.509Z</time>
      </trkpt>
      <trkpt lat="47.467944" lon="7.861300">
        <ele>406.774637</ele>
        <time>2021-11-14T21:45:26.888Z</time>
      </trkpt>
      <trkpt lat="47.467266" lon="7.860107">
        <ele>405.629023</ele>
        <time>2021-11-14T21:45:45.631Z</time>
      </trkpt>
      <trkpt lat="47.467047" lon="7.859682">
        <ele>405.232040</ele>
        <time>2021-11-14T21:45:51.833Z</time>
      </trkpt>
      <trkpt lat="47.466922" lon="7.859398">
        <ele>404.980143</ele>
        <time>2021-11-14T21:45:55.796Z</time>
      </trkpt>
      <trkpt lat="47.466824" lon="7.859137">
        <ele>404.758226</ele>
        <time>2021-11-14T21:45:59.495Z</time>
      </trkpt>
      <trkpt lat="47.466673" lon="7.858620">
        <ele>404.339606</ele>
        <time>2021-11-14T21:46:06.049Z</time>
      </trkpt>
      <trkpt lat="47.466576" lon="7.858236">
        <ele>404.034902</ele>
        <time>2021-11-14T21:46:10.751Z</time>
      </trkpt>
      <trkpt lat="47.466518" lon="7.858022">
        <ele>403.863527</ele>
        <time>2021-11-14T21:46:12.553Z</time>
      </trkpt>
      <trkpt lat="47.466347" lon="7.856973">
        <ele>402.793026</ele>
        <time>2021-11-14T21:46:20.987Z</time>
      </trkpt>
      <trkpt lat="47.466344" lon="7.856945">
        <ele>402.762023</ele>
        <time>2021-11-14T21:46:21.168Z</time>
      </trkpt>
      <trkpt lat="47.466322" lon="7.856655">
        <ele>402.442892</ele>
        <time>2021-11-14T21:46:23.534Z</time>
      </trkpt>
      <trkpt lat="47.466310" lon="7.856541">
        <ele>402.316720</ele>
        <time>2021-11-14T21:46:24.408Z</time>
      </trkpt>
      <trkpt lat="47.466334" lon="7.856525">
        <ele>402.274135</ele>
        <time>2021-11-14T21:46:24.717Z</time>
      </trkpt>
      <trkpt lat="47.466353" lon="7.856496">
        <ele>402.229971</ele>
        <time>2021-11-14T21:46:25.026Z</time>
      </trkpt>
      <trkpt lat="47.466361" lon="7.856459">
        <ele>402.187489</ele>
        <time>2021-11-14T21:46:25.293Z</time>
      </trkpt>
      <trkpt lat="47.466359" lon="7.856420">
        <ele>402.144717</ele>
        <time>2021-11-14T21:46:25.585Z</time>
      </trkpt>
      <trkpt lat="47.466324" lon="7.856362">
        <ele>402.059694</ele>
        <time>2021-11-14T21:46:26.222Z</time>
      </trkpt>
      <trkpt lat="47.466298" lon="7.856354">
        <ele>402.016735</ele>
        <time>2021-11-14T21:46:26.533Z</time>
      </trkpt>
      <trkpt lat="47.466295" lon="7.856234">
        <ele>401.885414</ele>
        <time>2021-11-14T21:46:27.453Z</time>
      </trkpt>
      <trkpt lat="47.466298" lon="7.855895">
        <ele>401.514656</ele>
        <time>2021-11-14T21:46:29.963Z</time>
      </trkpt>
      <trkpt lat="47.466324" lon="7.855062">
        <ele>400.619913</ele>
        <time>2021-11-14T21:46:36.341Z</time>
      </trkpt>
      <trkpt lat="47.466332" lon="7.854775">
        <ele>400.351269</ele>
        <time>2021-11-14T21:46:38.520Z</time>
      </trkpt>
      <trkpt lat="47.466338" lon="7.854554">
        <ele>400.144412</ele>
        <time>2021-11-14T21:46:40.206Z</time>
      </trkpt>
      <trkpt lat="47.466331" lon="7.853936">
        <ele>399.566348</ele>
        <time>2021-11-14T21:46:45.046Z</time>
      </trkpt>
      <trkpt lat="47.466256" lon="7.853287">
        <ele>398.950566</ele>
        <time>2021-11-14T21:46:50.307Z</time>
      </trkpt>
      <trkpt lat="47.465906" lon="7.851776">
        <ele>397.604307</ele>
        <time>2021-11-14T21:47:03.297Z</time>
      </trkpt>
      <trkpt lat="47.465871" lon="7.851620">
        <ele>397.479801</ele>
        <time>2021-11-14T21:47:04.612Z</time>
      </trkpt>
      <trkpt lat="47.465896" lon="7.851603">
        <ele>397.448970</ele>
        <time>2021-11-14T21:47:04.940Z</time>
      </trkpt>
      <trkpt lat="47.465931" lon="7.851497">
        <ele>397.359611</ele>
        <time>2021-11-14T21:47:05.932Z</time>
      </trkpt>
      <trkpt lat="47.465925" lon="7.851458">
        <ele>397.329314</ele>
        <time>2021-11-14T21:47:06.255Z</time>
      </trkpt>
      <trkpt lat="47.465914" lon="7.851427">
        <ele>397.302793</ele>
        <time>2021-11-14T21:47:06.539Z</time>
      </trkpt>
      <trkpt lat="47.465853" lon="7.851380">
        <ele>397.225727</ele>
        <time>2021-11-14T21:47:07.388Z</time>
      </trkpt>
      <trkpt lat="47.465829" lon="7.851383">
        <ele>397.198739</ele>
        <time>2021-11-14T21:47:07.674Z</time>
      </trkpt>
      <trkpt lat="47.465714" lon="7.850917">
        <ele>396.822964</ele>
        <time>2021-11-14T21:47:11.740Z</time>
      </trkpt>
      <trkpt lat="47.465620" lon="7.850585">
        <ele>396.550311</ele>
        <time>2021-11-14T21:47:14.692Z</time>
      </trkpt>
      <trkpt lat="47.465558" lon="7.850405">
        <ele>396.397284</ele>
        <time>2021-11-14T21:47:16.362Z</time>
      </trkpt>
      <trkpt lat="47.465348" lon="7.849875">
        <ele>395.875366</ele>
        <time>2021-11-14T21:47:21.257Z</time>
      </trkpt>
      <trkpt lat="47.465152" lon="7.849351">
        <ele>395.331931</ele>
        <time>2021-11-14T21:47:25.971Z</time>
      </trkpt>
      <trkpt lat="47.464952" lon="7.848443">
        <ele>394.465332</ele>
        <time>2021-11-14T21:47:33.461Z</time>
      </trkpt>
      <trkpt lat="47.464909" lon="7.848219">
        <ele>394.254026</ele>
        <time>2021-11-14T21:47:35.306Z</time>
      </trkpt>
      <trkpt lat="47.464850" lon="7.847870">
        <ele>393.927572</ele>
        <time>2021-11-14T21:47:38.107Z</time>
      </trkpt>
      <trkpt lat="47.464820" lon="7.847644">
        <ele>393.738545</ele>
        <time>2021-11-14T21:47:40.018Z</time>
      </trkpt>
      <trkpt lat="47.464784" lon="7.847333">
        <ele>393.519656</ele>
        <time>2021-11-14T21:47:42.526Z</time>
      </trkpt>
      <trkpt lat="47.464771" lon="7.847028">
        <ele>393.307648</ele>
        <time>2021-11-14T21:47:45.022Z</time>
      </trkpt>
      <trkpt lat="47.464737" lon="7.846119">
        <ele>392.676084</ele>
        <time>2021-11-14T21:47:52.335Z</time>
      </trkpt>
      <trkpt lat="47.464585" lon="7.844988">
        <ele>391.945239</ele>
        <time>2021-11-14T21:48:02.131Z</time>
      </trkpt>
      <trkpt lat="47.464433" lon="7.844273">
        <ele>391.865920</ele>
        <time>2021-11-14T21:48:08.846Z</time>
      </trkpt>
      <trkpt lat="47.464386" lon="7.844088">
        <ele>391.845005</ele>
        <time>2021-11-14T21:48:10.495Z</time>
      </trkpt>
      <trkpt lat="47.464354" lon="7.843960">
        <ele>391.830563</ele>
        <time>2021-11-14T21:48:11.898Z</time>
      </trkpt>
      <trkpt lat="47.464234" lon="7.843434">
        <ele>391.771814</ele>
        <time>2021-11-14T21:48:17.070Z</time>
      </trkpt>
      <trkpt lat="47.464176" lon="7.843178">
        <ele>391.743241</ele>
        <time>2021-11-14T21:48:19.487Z</time>
      </trkpt>
      <trkpt lat="47.464165" lon="7.843130">
        <ele>391.737877</ele>
        <time>2021-11-14T21:48:20.022Z</time>
      </trkpt>
      <trkpt lat="47.464075" lon="7.842774">
        <ele>391.697655</ele>
        <time>2021-11-14T21:48:24.913Z</time>
      </trkpt>
      <trkpt lat="47.464053" lon="7.842690">
        <ele>391.688121</ele>
        <time>2021-11-14T21:48:25.636Z</time>
      </trkpt>
      <trkpt lat="47.463971" lon="7.842355">
        <ele>391.725409</ele>
        <time>2021-11-14T21:48:30.566Z</time>
      </trkpt>
      <trkpt lat="47.463922" lon="7.842123">
        <ele>391.774719</ele>
        <time>2021-11-14T21:48:32.896Z</time>
      </trkpt>
      <trkpt lat="47.463874" lon="7.841863">
        <ele>391.829398</ele>
        <time>2021-11-14T21:48:37.103Z</time>
      </trkpt>
      <trkpt lat="47.463685" lon="7.841203">
        <ele>391.974812</ele>
        <time>2021-11-14T21:48:45.492Z</time>
      </trkpt>
      <trkpt lat="47.463616" lon="7.840992">
        <ele>392.022363</ele>
        <time>2021-11-14T21:48:48.440Z</time>
      </trkpt>
      <trkpt lat="47.463588" lon="7.840904">
        <ele>392.042095</ele>
        <time>2021-11-14T21:48:49.332Z</time>
      </trkpt>
      <trkpt lat="47.463287" lon="7.840028">
        <ele>392.141331</ele>
        <time>2021-11-14T21:48:58.074Z</time>
      </trkpt>
      <trkpt lat="47.463133" lon="7.839561">
        <ele>391.834135</ele>
        <time>2021-11-14T21:49:02.646Z</time>
      </trkpt>
      <trkpt lat="47.463043" lon="7.839292">
        <ele>391.656686</ele>
        <time>2021-11-14T21:49:05.097Z</time>
      </trkpt>
      <trkpt lat="47.462982" lon="7.839106">
        <ele>391.534462</ele>
        <time>2021-11-14T21:49:07.492Z</time>
      </trkpt>
      <trkpt lat="47.462967" lon="7.839047">
        <ele>391.497195</ele>
        <time>2021-11-14T21:49:07.977Z</time>
      </trkpt>
      <trkpt lat="47.462936" lon="7.838934">
        <ele>391.425095</ele>
        <time>2021-11-14T21:49:08.922Z</time>
      </trkpt>
      <trkpt lat="47.462883" lon="7.838488">
        <ele>391.157366</ele>
        <time>2021-11-14T21:49:12.876Z</time>
      </trkpt>
      <trkpt lat="47.462873" lon="7.838016">
        <ele>390.878169</ele>
        <time>2021-11-14T21:49:16.755Z</time>
      </trkpt>
      <trkpt lat="47.462871" lon="7.837954">
        <ele>390.841471</ele>
        <time>2021-11-14T21:49:17.203Z</time>
      </trkpt>
      <trkpt lat="47.462869" lon="7.837866">
        <ele>390.789414</ele>
        <time>2021-11-14T21:49:17.822Z</time>
      </trkpt>
      <trkpt lat="47.462865" lon="7.837711">
        <ele>390.697707</ele>
        <time>2021-11-14T21:49:19.127Z</time>
      </trkpt>
      <trkpt lat="47.462856" lon="7.837506">
        <ele>390.558895</ele>
        <time>2021-11-14T21:49:20.967Z</time>
      </trkpt>
      <trkpt lat="47.462851" lon="7.837404">
        <ele>390.482698</ele>
        <time>2021-11-14T21:49:21.675Z</time>
      </trkpt>
      <trkpt lat="47.462748" lon="7.836556">
        <ele>389.840758</ele>
        <time>2021-11-14T21:49:28.272Z</time>
      </trkpt>
      <trkpt lat="47.462730" lon="7.836472">
        <ele>389.775103</ele>
        <time>2021-11-14T21:49:29.125Z</time>
      </trkpt>
      <trkpt lat="47.462700" lon="7.836337">
        <ele>389.669223</ele>
        <time>2021-11-14T21:49:30.306Z</time>
      </trkpt>
      <trkpt lat="47.462666" lon="7.836201">
        <ele>389.561186</ele>
        <time>2021-11-14T21:49:31.514Z</time>
      </trkpt>
      <trkpt lat="47.462586" lon="7.835900">
        <ele>389.320210</ele>
        <time>2021-11-14T21:49:34.164Z</time>
      </trkpt>
      <trkpt lat="47.462388" lon="7.834991">
        <ele>388.612995</ele>
        <time>2021-11-14T21:49:42.629Z</time>
      </trkpt>
      <trkpt lat="47.462375" lon="7.834910">
        <ele>388.556147</ele>
        <time>2021-11-14T21:49:43.282Z</time>
      </trkpt>
      <trkpt lat="47.462357" lon="7.834782">
        <ele>388.466872</ele>
        <time>2021-11-14T21:49:44.283Z</time>
      </trkpt>
      <trkpt lat="47.462317" lon="7.834216">
        <ele>388.078274</ele>
        <time>2021-11-14T21:49:49.093Z</time>
      </trkpt>
      <trkpt lat="47.462296" lon="7.833933">
        <ele>387.883867</ele>
        <time>2021-11-14T21:49:51.478Z</time>
      </trkpt>
      <trkpt lat="47.462285" lon="7.833721">
        <ele>387.738677</ele>
        <time>2021-11-14T21:49:53.100Z</time>
      </trkpt>
      <trkpt lat="47.462217" lon="7.832953">
        <ele>387.209770</ele>
        <time>2021-11-14T21:49:59.449Z</time>
      </trkpt>
      <trkpt lat="47.462179" lon="7.832744">
        <ele>387.061983</ele>
        <time>2021-11-14T21:50:01.155Z</time>
      </trkpt>
      <trkpt lat="47.462262" lon="7.832704">
        <ele>386.973814</ele>
        <time>2021-11-14T21:50:02.611Z</time>
      </trkpt>
      <trkpt lat="47.462246" lon="7.832587">
        <ele>386.892303</ele>
        <time>2021-11-14T21:50:04.049Z</time>
      </trkpt>
      <trkpt lat="47.462233" lon="7.832513">
        <ele>386.839268</ele>
        <time>2021-11-14T21:50:04.981Z</time>
      </trkpt>
      <trkpt lat="47.462192" lon="7.832386">
        <ele>386.723076</ele>
        <time>2021-11-14T21:50:06.667Z</time>
      </trkpt>
      <trkpt lat="47.462176" lon="7.832337">
        <ele>386.678150</ele>
        <time>2021-11-14T21:50:07.334Z</time>
      </trkpt>
      <trkpt lat="47.462149" lon="7.832256">
        <ele>386.603590</ele>
        <time>2021-11-14T21:50:08.416Z</time>
      </trkpt>
      <trkpt lat="47.461985" lon="7.831682">
        <ele>386.089112</ele>
        <time>2021-11-14T21:50:15.829Z</time>
      </trkpt>
      <trkpt lat="47.461915" lon="7.831394">
        <ele>385.836438</ele>
        <time>2021-11-14T21:50:19.394Z</time>
      </trkpt>
      <trkpt lat="47.461795" lon="7.830905">
        <ele>385.406943</ele>
        <time>2021-11-14T21:50:25.398Z</time>
      </trkpt>
      <trkpt lat="47.461602" lon="7.829950">
        <ele>384.560862</ele>
        <time>2021-11-14T21:50:36.492Z</time>
      </trkpt>
      <trkpt lat="47.461622" lon="7.829595">
        <ele>384.159668</ele>
        <time>2021-11-14T21:50:40.465Z</time>
      </trkpt>
      <trkpt lat="47.461625" lon="7.829509">
        <ele>384.062684</ele>
        <time>2021-11-14T21:50:41.323Z</time>
      </trkpt>
      <trkpt lat="47.461676" lon="7.828959">
        <ele>383.437464</ele>
        <time>2021-11-14T21:50:47.411Z</time>
      </trkpt>
      <trkpt lat="47.461722" lon="7.828676">
        <ele>383.109662</ele>
        <time>2021-11-14T21:50:50.596Z</time>
      </trkpt>
      <trkpt lat="47.461803" lon="7.828145">
        <ele>382.496608</ele>
        <time>2021-11-14T21:50:56.462Z</time>
      </trkpt>
      <trkpt lat="47.461984" lon="7.826457">
        <ele>381.039861</ele>
        <time>2021-11-14T21:51:15.080Z</time>
      </trkpt>
      <trkpt lat="47.462040" lon="7.826135">
        <ele>380.827755</ele>
        <time>2021-11-14T21:51:19.294Z</time>
      </trkpt>
      <trkpt lat="47.462100" lon="7.825934">
        <ele>380.687585</ele>
        <time>2021-11-14T21:51:21.874Z</time>
      </trkpt>
      <trkpt lat="47.462225" lon="7.825725">
        <ele>380.509570</ele>
        <time>2021-11-14T21:51:25.614Z</time>
      </trkpt>
      <trkpt lat="47.462519" lon="7.825555">
        <ele>380.211707</ele>
        <time>2021-11-14T21:51:31.510Z</time>
      </trkpt>
      <trkpt lat="47.462604" lon="7.825402">
        <ele>380.085375</ele>
        <time>2021-11-14T21:51:34.124Z</time>
      </trkpt>
      <trkpt lat="47.462617" lon="7.825344">
        <ele>380.046394</ele>
        <time>2021-11-14T21:51:34.778Z</time>
      </trkpt>
      <trkpt lat="47.462626" lon="7.825283">
        <ele>380.006564</ele>
        <time>2021-11-14T21:51:35.545Z</time>
      </trkpt>
      <trkpt lat="47.462608" lon="7.825120">
        <ele>379.933118</ele>
        <time>2021-11-14T21:51:37.779Z</time>
      </trkpt>
      <trkpt lat="47.462540" lon="7.824993">
        <ele>379.891987</ele>
        <time>2021-11-14T21:51:39.933Z</time>
      </trkpt>
      <trkpt lat="47.462517" lon="7.824972">
        <ele>379.881836</ele>
        <time>2021-11-14T21:51:40.445Z</time>
      </trkpt>
      <trkpt lat="47.462476" lon="7.824944">
        <ele>379.864877</ele>
        <time>2021-11-14T21:51:41.258Z</time>
      </trkpt>
      <trkpt lat="47.462431" lon="7.824918">
        <ele>379.846734</ele>
        <time>2021-11-14T21:51:42.063Z</time>
      </trkpt>
      <trkpt lat="47.462402" lon="7.824900">
        <ele>379.834923</ele>
        <time>2021-11-14T21:51:42.643Z</time>
      </trkpt>
      <trkpt lat="47.462349" lon="7.824857">
        <ele>379.812222</ele>
        <time>2021-11-14T21:51:43.871Z</time>
      </trkpt>
      <trkpt lat="47.462317" lon="7.824823">
        <ele>379.797426</ele>
        <time>2021-11-14T21:51:44.647Z</time>
      </trkpt>
      <trkpt lat="47.462262" lon="7.824736">
        <ele>379.767184</ele>
        <time>2021-11-14T21:51:46.236Z</time>
      </trkpt>
      <trkpt lat="47.462242" lon="7.824692">
        <ele>379.753723</ele>
        <time>2021-11-14T21:51:46.933Z</time>
      </trkpt>
      <trkpt lat="47.462217" lon="7.824625">
        <ele>379.734293</ele>
        <time>2021-11-14T21:51:47.912Z</time>
      </trkpt>
      <trkpt lat="47.462137" lon="7.823536">
        <ele>379.456174</ele>
        <time>2021-11-14T21:52:02.143Z</time>
      </trkpt>
      <trkpt lat="47.462017" lon="7.821859">
        <ele>378.797894</ele>
        <time>2021-11-14T21:52:23.502Z</time>
      </trkpt>
      <trkpt lat="47.461957" lon="7.821317">
        <ele>378.530474</ele>
        <time>2021-11-14T21:52:30.052Z</time>
      </trkpt>
      <trkpt lat="47.461915" lon="7.820994">
        <ele>378.370319</ele>
        <time>2021-11-14T21:52:33.872Z</time>
      </trkpt>
      <trkpt lat="47.461850" lon="7.820572">
        <ele>378.159577</ele>
        <time>2021-11-14T21:52:38.949Z</time>
      </trkpt>
      <trkpt lat="47.461826" lon="7.820279">
        <ele>378.015868</ele>
        <time>2021-11-14T21:52:42.466Z</time>
      </trkpt>
      <trkpt lat="47.461829" lon="7.819984">
        <ele>377.884645</ele>
        <time>2021-11-14T21:52:45.912Z</time>
      </trkpt>
      <trkpt lat="47.461852" lon="7.819816">
        <ele>377.810518</ele>
        <time>2021-11-14T21:52:47.944Z</time>
      </trkpt>
      <trkpt lat="47.461962" lon="7.819234">
        <ele>377.549180</ele>
        <time>2021-11-14T21:52:55.222Z</time>
      </trkpt>
      <trkpt lat="47.461960" lon="7.819120">
        <ele>377.499864</ele>
        <time>2021-11-14T21:52:56.562Z</time>
      </trkpt>
      <trkpt lat="47.462012" lon="7.818948">
        <ele>377.418384</ele>
        <time>2021-11-14T21:52:58.179Z</time>
      </trkpt>
      <trkpt lat="47.462122" lon="7.818441">
        <ele>377.188117</ele>
        <time>2021-11-14T21:53:02.821Z</time>
      </trkpt>
      <trkpt lat="47.462262" lon="7.817447">
        <ele>376.818369</ele>
        <time>2021-11-14T21:53:12.173Z</time>
      </trkpt>
      <trkpt lat="47.462434" lon="7.816598">
        <ele>376.752061</ele>
        <time>2021-11-14T21:53:20.965Z</time>
      </trkpt>
      <trkpt lat="47.462785" lon="7.815763">
        <ele>376.678501</ele>
        <time>2021-11-14T21:53:30.692Z</time>
      </trkpt>
      <trkpt lat="47.462859" lon="7.815548">
        <ele>376.660451</ele>
        <time>2021-11-14T21:53:33.258Z</time>
      </trkpt>
      <trkpt lat="47.462865" lon="7.815524">
        <ele>376.658537</ele>
        <time>2021-11-14T21:53:33.540Z</time>
      </trkpt>
      <trkpt lat="47.462867" lon="7.815468">
        <ele>376.654341</ele>
        <time>2021-11-14T21:53:34.066Z</time>
      </trkpt>
      <trkpt lat="47.462863" lon="7.815440">
        <ele>376.652200</ele>
        <time>2021-11-14T21:53:34.375Z</time>
      </trkpt>
      <trkpt lat="47.462902" lon="7.815377">
        <ele>376.645810</ele>
        <time>2021-11-14T21:53:35.416Z</time>
      </trkpt>
      <trkpt lat="47.463209" lon="7.814244">
        <ele>376.420477</ele>
        <time>2021-11-14T21:53:51.586Z</time>
      </trkpt>
      <trkpt lat="47.463323" lon="7.813790">
        <ele>376.323047</ele>
        <time>2021-11-14T21:53:57.966Z</time>
      </trkpt>
      <trkpt lat="47.463516" lon="7.813197">
        <ele>376.190647</ele>
        <time>2021-11-14T21:54:06.587Z</time>
      </trkpt>
      <trkpt lat="47.463585" lon="7.813014">
        <ele>376.148493</ele>
        <time>2021-11-14T21:54:09.222Z</time>
      </trkpt>
      <trkpt lat="47.463671" lon="7.812852">
        <ele>376.107057</ele>
        <time>2021-11-14T21:54:11.749Z</time>
      </trkpt>
      <trkpt lat="47.463905" lon="7.812397">
        <ele>375.905953</ele>
        <time>2021-11-14T21:54:18.514Z</time>
      </trkpt>
      <trkpt lat="47.463958" lon="7.812269">
        <ele>375.851362</ele>
        <time>2021-11-14T21:54:20.405Z</time>
      </trkpt>
      <trkpt lat="47.464174" lon="7.811536">
        <ele>375.560549</ele>
        <time>2021-11-14T21:54:30.036Z</time>
      </trkpt>
      <trkpt lat="47.464316" lon="7.810976">
        <ele>375.343025</ele>
        <time>2021-11-14T21:54:37.501Z</time>
      </trkpt>
      <trkpt lat="47.464325" lon="7.810936">
        <ele>375.327693</ele>
        <time>2021-11-14T21:54:37.949Z</time>
      </trkpt>
      <trkpt lat="47.464370" lon="7.810752">
        <ele>375.256529</ele>
        <time>2021-11-14T21:54:40.623Z</time>
      </trkpt>
      <trkpt lat="47.464364" lon="7.810630">
        <ele>375.212041</ele>
        <time>2021-11-14T21:54:42.149Z</time>
      </trkpt>
      <trkpt lat="47.464385" lon="7.810619">
        <ele>375.200056</ele>
        <time>2021-11-14T21:54:42.409Z</time>
      </trkpt>
      <trkpt lat="47.464417" lon="7.810573">
        <ele>375.176051</ele>
        <time>2021-11-14T21:54:43.205Z</time>
      </trkpt>
      <trkpt lat="47.464452" lon="7.810429">
        <ele>375.131024</ele>
        <time>2021-11-14T21:54:44.643Z</time>
      </trkpt>
      <trkpt lat="47.464510" lon="7.810204">
        <ele>375.131206</ele>
        <time>2021-11-14T21:54:47.041Z</time>
      </trkpt>
      <trkpt lat="47.464553" lon="7.810043">
        <ele>375.131336</ele>
        <time>2021-11-14T21:54:48.851Z</time>
      </trkpt>
      <trkpt lat="47.464574" lon="7.809967">
        <ele>375.131398</ele>
        <time>2021-11-14T21:54:49.575Z</time>
      </trkpt>
      <trkpt lat="47.464595" lon="7.809881">
        <ele>375.131467</ele>
        <time>2021-11-14T21:54:50.549Z</time>
      </trkpt>
      <trkpt lat="47.464602" lon="7.809851">
        <ele>375.131491</ele>
        <time>2021-11-14T21:54:50.907Z</time>
      </trkpt>
      <trkpt lat="47.464662" lon="7.809564">
        <ele>375.131718</ele>
        <time>2021-11-14T21:54:54.090Z</time>
      </trkpt>
      <trkpt lat="47.464811" lon="7.808597">
        <ele>375.132466</ele>
        <time>2021-11-14T21:55:03.937Z</time>
      </trkpt>
      <trkpt lat="47.464826" lon="7.808468">
        <ele>375.132564</ele>
        <time>2021-11-14T21:55:05.359Z</time>
      </trkpt>
      <trkpt lat="47.464869" lon="7.807851">
        <ele>375.114151</ele>
        <time>2021-11-14T21:55:11.796Z</time>
      </trkpt>
      <trkpt lat="47.464860" lon="7.807604">
        <ele>374.964542</ele>
        <time>2021-11-14T21:55:14.402Z</time>
      </trkpt>
      <trkpt lat="47.464839" lon="7.807091">
        <ele>374.653697</ele>
        <time>2021-11-14T21:55:19.644Z</time>
      </trkpt>
      <trkpt lat="47.464820" lon="7.806610">
        <ele>374.362278</ele>
        <time>2021-11-14T21:55:24.297Z</time>
      </trkpt>
      <trkpt lat="47.464830" lon="7.806346">
        <ele>374.202353</ele>
        <time>2021-11-14T21:55:26.667Z</time>
      </trkpt>
      <trkpt lat="47.464852" lon="7.806188">
        <ele>374.104785</ele>
        <time>2021-11-14T21:55:28.046Z</time>
      </trkpt>
      <trkpt lat="47.464879" lon="7.806011">
        <ele>373.995039</ele>
        <time>2021-11-14T21:55:29.515Z</time>
      </trkpt>
      <trkpt lat="47.465361" lon="7.804383">
        <ele>371.954920</ele>
        <time>2021-11-14T21:55:42.339Z</time>
      </trkpt>
      <trkpt lat="47.465464" lon="7.803785">
        <ele>370.985000</ele>
        <time>2021-11-14T21:55:46.747Z</time>
      </trkpt>
      <trkpt lat="47.465562" lon="7.802933">
        <ele>369.626645</ele>
        <time>2021-11-14T21:55:52.978Z</time>
      </trkpt>
      <trkpt lat="47.465578" lon="7.802806">
        <ele>369.423600</ele>
        <time>2021-11-14T21:55:53.947Z</time>
      </trkpt>
      <trkpt lat="47.465594" lon="7.802678">
        <ele>369.257299</ele>
        <time>2021-11-14T21:55:54.886Z</time>
      </trkpt>
      <trkpt lat="47.465633" lon="7.802373">
        <ele>368.921149</ele>
        <time>2021-11-14T21:55:57.161Z</time>
      </trkpt>
      <trkpt lat="47.465663" lon="7.802142">
        <ele>368.666419</ele>
        <time>2021-11-14T21:55:58.893Z</time>
      </trkpt>
      <trkpt lat="47.465735" lon="7.801577">
        <ele>368.043789</ele>
        <time>2021-11-14T21:56:03.146Z</time>
      </trkpt>
      <trkpt lat="47.465866" lon="7.800659">
        <ele>367.027756</ele>
        <time>2021-11-14T21:56:10.610Z</time>
      </trkpt>
      <trkpt lat="47.466033" lon="7.800108">
        <ele>366.388517</ele>
        <time>2021-11-14T21:56:15.696Z</time>
      </trkpt>
      <trkpt lat="47.466090" lon="7.800039">
        <ele>366.290420</ele>
        <time>2021-11-14T21:56:16.561Z</time>
      </trkpt>
      <trkpt lat="47.466042" lon="7.799777">
        <ele>366.046011</ele>
        <time>2021-11-14T21:56:36.390Z</time>
      </trkpt>
      <trkpt lat="47.466172" lon="7.799019">
        <ele>365.341900</ele>
        <time>2021-11-14T21:57:32.816Z</time>
      </trkpt>
      <trkpt lat="47.466186" lon="7.797669">
        <ele>364.126243</ele>
        <time>2021-11-14T21:59:09.103Z</time>
      </trkpt>
      <trkpt lat="47.466430" lon="7.795789">
        <ele>362.681296</ele>
        <time>2021-11-14T22:01:26.372Z</time>
      </trkpt>
      <trkpt lat="47.466774" lon="7.793016">
        <ele>361.759134</ele>
        <time>2021-11-14T22:04:55.149Z</time>
      </trkpt>
      <trkpt lat="47.467088" lon="7.790479">
        <ele>361.794773</ele>
        <time>2021-11-14T22:08:12.069Z</time>
      </trkpt>
      <trkpt lat="47.467163" lon="7.789876">
        <ele>361.838635</ele>
        <time>2021-11-14T22:08:57.215Z</time>
      </trkpt>
      <trkpt lat="47.467228" lon="7.789417">
        <ele>361.512307</ele>
        <time>2021-11-14T22:09:03.201Z</time>
      </trkpt>
      <trkpt lat="47.467240" lon="7.789331">
        <ele>361.427075</ele>
        <time>2021-11-14T22:09:04.192Z</time>
      </trkpt>
      <trkpt lat="47.467307" lon="7.788932">
        <ele>361.028032</ele>
        <time>2021-11-14T22:09:09.264Z</time>
      </trkpt>
      <trkpt lat="47.467339" lon="7.788734">
        <ele>360.830436</ele>
        <time>2021-11-14T22:09:11.433Z</time>
      </trkpt>
      <trkpt lat="47.467451" lon="7.788042">
        <ele>360.139793</ele>
        <time>2021-11-14T22:09:19.515Z</time>
      </trkpt>
      <trkpt lat="47.467504" lon="7.787622">
        <ele>359.725096</ele>
        <time>2021-11-14T22:09:23.942Z</time>
      </trkpt>
      <trkpt lat="47.467538" lon="7.787352">
        <ele>359.458525</ele>
        <time>2021-11-14T22:09:26.844Z</time>
      </trkpt>
      <trkpt lat="47.467566" lon="7.787128">
        <ele>359.239540</ele>
        <time>2021-11-14T22:09:29.109Z</time>
      </trkpt>
      <trkpt lat="47.467577" lon="7.787046">
        <ele>359.164627</ele>
        <time>2021-11-14T22:09:29.969Z</time>
      </trkpt>
      <trkpt lat="47.467559" lon="7.786904">
        <ele>359.035162</ele>
        <time>2021-11-14T22:09:31.645Z</time>
      </trkpt>
      <trkpt lat="47.467636" lon="7.786830">
        <ele>358.913442</ele>
        <time>2021-11-14T22:09:32.947Z</time>
      </trkpt>
      <trkpt lat="47.468403" lon="7.786854">
        <ele>357.896488</ele>
        <time>2021-11-14T22:09:45.140Z</time>
      </trkpt>
      <trkpt lat="47.468535" lon="7.786880">
        <ele>357.719966</ele>
        <time>2021-11-14T22:09:47.295Z</time>
      </trkpt>
      <trkpt lat="47.468582" lon="7.786483">
        <ele>357.358803</ele>
        <time>2021-11-14T22:09:52.202Z</time>
      </trkpt>
      <trkpt lat="47.468800" lon="7.784631">
        <ele>358.303615</ele>
        <time>2021-11-14T22:10:19.077Z</time>
      </trkpt>
      <trkpt lat="47.468701" lon="7.784599">
        <ele>358.462040</ele>
        <time>2021-11-14T22:10:21.688Z</time>
      </trkpt>
      <trkpt lat="47.468262" lon="7.784478">
        <ele>359.160166</ele>
        <time>2021-11-14T22:10:33.528Z</time>
      </trkpt>
      <trkpt lat="47.467967" lon="7.784535">
        <ele>359.625274</ele>
        <time>2021-11-14T22:10:41.642Z</time>
      </trkpt>
      <trkpt lat="47.467898" lon="7.784577">
        <ele>359.756757</ele>
        <time>2021-11-14T22:10:43.939Z</time>
      </trkpt>
      <trkpt lat="47.467487" lon="7.784862">
        <ele>360.680151</ele>
        <time>2021-11-14T22:10:56.223Z</time>
      </trkpt>
      <trkpt lat="47.467418" lon="7.784909">
        <ele>360.834683</ele>
        <time>2021-11-14T22:10:58.485Z</time>
      </trkpt>
      <trkpt lat="47.467180" lon="7.785057">
        <ele>361.359882</ele>
        <time>2021-11-14T22:11:05.017Z</time>
      </trkpt>
      <trkpt lat="47.467119" lon="7.785066">
        <ele>361.484589</ele>
        <time>2021-11-14T22:11:06.934Z</time>
      </trkpt>
      <trkpt lat="47.467092" lon="7.784779">
        <ele>361.883076</ele>
        <time>2021-11-14T22:11:11.206Z</time>
      </trkpt>
      <trkpt lat="47.467074" lon="7.784580">
        <ele>362.159181</ele>
        <time>2021-11-14T22:11:14.386Z</time>
      </trkpt>
      <trkpt lat="47.467108" lon="7.784196">
        <ele>362.691769</ele>
        <time>2021-11-14T22:11:19.995Z</time>
      </trkpt>
      <trkpt lat="47.467114" lon="7.784127">
        <ele>362.787440</ele>
        <time>2021-11-14T22:11:20.744Z</time>
      </trkpt>
      <trkpt lat="47.467275" lon="7.783266">
        <ele>362.752108</ele>
        <time>2021-11-14T22:11:30.926Z</time>
      </trkpt>
      <trkpt lat="47.467308" lon="7.783125">
        <ele>362.566935</ele>
        <time>2021-11-14T22:11:32.079Z</time>
      </trkpt>
      <trkpt lat="47.467374" lon="7.782864">
        <ele>362.221110</ele>
        <time>2021-11-14T22:11:34.556Z</time>
      </trkpt>
      <trkpt lat="47.467411" lon="7.782717">
        <ele>362.026445</ele>
        <time>2021-11-14T22:11:35.762Z</time>
      </trkpt>
      <trkpt lat="47.467673" lon="7.781405">
        <ele>360.328682</ele>
        <time>2021-11-14T22:11:45.385Z</time>
      </trkpt>
      <trkpt lat="47.467837" lon="7.780341">
        <ele>357.903448</ele>
        <time>2021-11-14T22:11:52.650Z</time>
      </trkpt>
      <trkpt lat="47.467858" lon="7.780201">
        <ele>357.548243</ele>
        <time>2021-11-14T22:11:53.561Z</time>
      </trkpt>
      <trkpt lat="47.468054" lon="7.778980">
        <ele>354.439821</ele>
        <time>2021-11-14T22:12:01.900Z</time>
      </trkpt>
      <trkpt lat="47.468174" lon="7.778263">
        <ele>353.121163</ele>
        <time>2021-11-14T22:12:06.856Z</time>
      </trkpt>
      <trkpt lat="47.468193" lon="7.778169">
        <ele>353.024378</ele>
        <time>2021-11-14T22:12:07.525Z</time>
      </trkpt>
      <trkpt lat="47.468501" lon="7.776957">
        <ele>351.747093</ele>
        <time>2021-11-14T22:12:17.234Z</time>
      </trkpt>
      <trkpt lat="47.468600" lon="7.776294">
        <ele>351.077304</ele>
        <time>2021-11-14T22:12:22.976Z</time>
      </trkpt>
      <trkpt lat="47.468628" lon="7.776074">
        <ele>350.856470</ele>
        <time>2021-11-14T22:12:25.602Z</time>
      </trkpt>
      <trkpt lat="47.468932" lon="7.773715">
        <ele>353.775055</ele>
        <time>2021-11-14T22:13:01.847Z</time>
      </trkpt>
      <trkpt lat="47.468986" lon="7.773126">
        <ele>355.045780</ele>
        <time>2021-11-14T22:13:12.194Z</time>
      </trkpt>
      <trkpt lat="47.468989" lon="7.772749">
        <ele>356.157629</ele>
        <time>2021-11-14T22:13:20.310Z</time>
      </trkpt>
      <trkpt lat="47.468967" lon="7.772389">
        <ele>357.223598</ele>
        <time>2021-11-14T22:13:27.406Z</time>
      </trkpt>
      <trkpt lat="47.468873" lon="7.771700">
        <ele>359.296429</ele>
        <time>2021-11-14T22:13:42.091Z</time>
      </trkpt>
      <trkpt lat="47.468826" lon="7.771365">
        <ele>360.305399</ele>
        <time>2021-11-14T22:13:49.830Z</time>
      </trkpt>
      <trkpt lat="47.468536" lon="7.771456">
        <ele>361.598672</ele>
        <time>2021-11-14T22:14:01.891Z</time>
      </trkpt>
      <trkpt lat="47.468386" lon="7.771493">
        <ele>362.422251</ele>
        <time>2021-11-14T22:14:08.546Z</time>
      </trkpt>
      <trkpt lat="47.468070" lon="7.771596">
        <ele>364.606451</ele>
        <time>2021-11-14T22:14:21.082Z</time>
      </trkpt>
      <trkpt lat="47.467645" lon="7.771735">
        <ele>367.544526</ele>
        <time>2021-11-14T22:14:38.547Z</time>
      </trkpt>
      <trkpt lat="47.467401" lon="7.771730">
        <ele>369.191711</ele>
        <time>2021-11-14T22:14:48.302Z</time>
      </trkpt>
      <trkpt lat="47.467189" lon="7.771712">
        <ele>370.625089</ele>
        <time>2021-11-14T22:14:58.468Z</time>
      </trkpt>
      <trkpt lat="47.466562" lon="7.771587">
        <ele>375.079172</ele>
        <time>2021-11-14T22:15:26.696Z</time>
      </trkpt>
      <trkpt lat="47.465847" lon="7.771333">
        <ele>381.202707</ele>
        <time>2021-11-14T22:15:59.199Z</time>
      </trkpt>
      <trkpt lat="47.465703" lon="7.771236">
        <ele>382.520367</ele>
        <time>2021-11-14T22:16:06.892Z</time>
      </trkpt>
      <trkpt lat="47.465526" lon="7.771121">
        <ele>384.130270</ele>
        <time>2021-11-14T22:16:17.005Z</time>
      </trkpt>
      <trkpt lat="47.465368" lon="7.771073">
        <ele>385.473495</ele>
        <time>2021-11-14T22:16:24.404Z</time>
      </trkpt>
      <trkpt lat="47.464478" lon="7.771253">
        <ele>394.226832</ele>
        <time>2021-11-14T22:17:11.734Z</time>
      </trkpt>
      <trkpt lat="47.464404" lon="7.771263">
        <ele>395.049416</ele>
        <time>2021-11-14T22:17:15.990Z</time>
      </trkpt>
      <trkpt lat="47.464288" lon="7.771281">
        <ele>396.340572</ele>
        <time>2021-11-14T22:17:21.911Z</time>
      </trkpt>
      <trkpt lat="47.464242" lon="7.771294">
        <ele>396.858999</ele>
        <time>2021-11-14T22:17:26.910Z</time>
      </trkpt>
      <trkpt lat="47.463553" lon="7.771602">
        <ele>404.826863</ele>
        <time>2021-11-14T22:18:09.195Z</time>
      </trkpt>
      <trkpt lat="47.463299" lon="7.771649">
        <ele>407.660536</ele>
        <time>2021-11-14T22:18:25.019Z</time>
      </trkpt>
      <trkpt lat="47.462518" lon="7.771714">
        <ele>416.952414</ele>
        <time>2021-11-14T22:19:18.357Z</time>
      </trkpt>
      <trkpt lat="47.462061" lon="7.771749">
        <ele>422.455917</ele>
        <time>2021-11-14T22:19:45.634Z</time>
      </trkpt>
      <trkpt lat="47.462028" lon="7.771752">
        <ele>422.853543</ele>
        <time>2021-11-14T22:19:47.678Z</time>
      </trkpt>
      <trkpt lat="47.461913" lon="7.771756">
        <ele>424.236980</ele>
        <time>2021-11-14T22:19:55.867Z</time>
      </trkpt>
      <trkpt lat="47.461805" lon="7.771735">
        <ele>425.547025</ele>
        <time>2021-11-14T22:20:01.987Z</time>
      </trkpt>
      <trkpt lat="47.461018" lon="7.771505">
        <ele>434.608287</ele>
        <time>2021-11-14T22:20:51.110Z</time>
      </trkpt>
      <trkpt lat="47.460712" lon="7.771416">
        <ele>437.876783</ele>
        <time>2021-11-14T22:21:09.381Z</time>
      </trkpt>
      <trkpt lat="47.460283" lon="7.771307">
        <ele>442.438839</ele>
        <time>2021-11-14T22:21:33.835Z</time>
      </trkpt>
      <trkpt lat="47.459942" lon="7.771269">
        <ele>446.022870</ele>
        <time>2021-11-14T22:21:51.784Z</time>
      </trkpt>
      <trkpt lat="47.458785" lon="7.771330">
        <ele>458.278312</ele>
        <time>2021-11-14T22:22:54.853Z</time>
      </trkpt>
      <trkpt lat="47.457577" lon="7.771218">
        <ele>471.113340</ele>
        <time>2021-11-14T22:24:07.591Z</time>
      </trkpt>
      <trkpt lat="47.456814" lon="7.771144">
        <ele>479.149175</ele>
        <time>2021-11-14T22:24:53.513Z</time>
      </trkpt>
      <trkpt lat="47.456467" lon="7.771104">
        <ele>482.806970</ele>
        <time>2021-11-14T22:25:13.384Z</time>
      </trkpt>
      <trkpt lat="47.455755" lon="7.771310">
        <ele>489.330800</ele>
        <time>2021-11-14T22:25:52.177Z</time>
      </trkpt>
      <trkpt lat="47.454564" lon="7.772194">
        <ele>498.077298</ele>
        <time>2021-11-14T22:26:44.962Z</time>
      </trkpt>
      <trkpt lat="47.454404" lon="7.772245">
        <ele>499.151588</ele>
        <time>2021-11-14T22:26:50.081Z</time>
      </trkpt>
      <trkpt lat="47.453980" lon="7.772200">
        <ele>501.143201</ele>
        <time>2021-11-14T22:27:02.882Z</time>
      </trkpt>
      <trkpt lat="47.453848" lon="7.772112">
        <ele>501.805697</ele>
        <time>2021-11-14T22:27:07.157Z</time>
      </trkpt>
      <trkpt lat="47.453416" lon="7.771572">
        <ele>504.393798</ele>
        <time>2021-11-14T22:27:25.902Z</time>
      </trkpt>
      <trkpt lat="47.452871" lon="7.771333">
        <ele>506.994772</ele>
        <time>2021-11-14T22:27:44.494Z</time>
      </trkpt>
      <trkpt lat="47.452509" lon="7.771079">
        <ele>508.783585</ele>
        <time>2021-11-14T22:27:58.428Z</time>
      </trkpt>
      <trkpt lat="47.452291" lon="7.770916">
        <ele>509.862824</ele>
        <time>2021-11-14T22:28:07.221Z</time>
      </trkpt>
      <trkpt lat="47.452041" lon="7.770729">
        <ele>511.100584</ele>
        <time>2021-11-14T22:28:17.525Z</time>
      </trkpt>
      <trkpt lat="47.451426" lon="7.770036">
        <ele>514.516574</ele>
        <time>2021-11-14T22:28:43.621Z</time>
      </trkpt>
      <trkpt lat="47.451308" lon="7.769875">
        <ele>515.225898</ele>
        <time>2021-11-14T22:28:47.990Z</time>
      </trkpt>
      <trkpt lat="47.451217" lon="7.769745">
        <ele>515.441884</ele>
        <time>2021-11-14T22:28:51.853Z</time>
      </trkpt>
      <trkpt lat="47.451197" lon="7.769677">
        <ele>515.412832</ele>
        <time>2021-11-14T22:28:53.382Z</time>
      </trkpt>
      <trkpt lat="47.451184" lon="7.769584">
        <ele>515.375627</ele>
        <time>2021-11-14T22:28:55.045Z</time>
      </trkpt>
      <trkpt lat="47.451171" lon="7.769212">
        <ele>515.229694</ele>
        <time>2021-11-14T22:28:59.557Z</time>
      </trkpt>
      <trkpt lat="47.451134" lon="7.768791">
        <ele>515.063371</ele>
        <time>2021-11-14T22:29:04.216Z</time>
      </trkpt>
      <trkpt lat="47.451069" lon="7.768123">
        <ele>514.798972</ele>
        <time>2021-11-14T22:29:09.561Z</time>
      </trkpt>
      <trkpt lat="47.451065" lon="7.767935">
        <ele>514.725282</ele>
        <time>2021-11-14T22:29:11.346Z</time>
      </trkpt>
      <trkpt lat="47.451066" lon="7.767828">
        <ele>514.683358</ele>
        <time>2021-11-14T22:29:12.113Z</time>
      </trkpt>
      <trkpt lat="47.451120" lon="7.767294">
        <ele>514.471826</ele>
        <time>2021-11-14T22:29:15.861Z</time>
      </trkpt>
      <trkpt lat="47.451119" lon="7.767203">
        <ele>514.403014</ele>
        <time>2021-11-14T22:29:16.440Z</time>
      </trkpt>
      <trkpt lat="47.451103" lon="7.767132">
        <ele>514.089782</ele>
        <time>2021-11-14T22:29:16.917Z</time>
      </trkpt>
      <trkpt lat="47.451026" lon="7.766973">
        <ele>513.271246</ele>
        <time>2021-11-14T22:29:18.348Z</time>
      </trkpt>
      <trkpt lat="47.450777" lon="7.766704">
        <ele>511.362628</ele>
        <time>2021-11-14T22:29:21.283Z</time>
      </trkpt>
      <trkpt lat="47.450678" lon="7.766592">
        <ele>510.591127</ele>
        <time>2021-11-14T22:29:22.480Z</time>
      </trkpt>
      <trkpt lat="47.450521" lon="7.766413">
        <ele>509.364106</ele>
        <time>2021-11-14T22:29:24.229Z</time>
      </trkpt>
      <trkpt lat="47.449615" lon="7.765656">
        <ele>502.789848</ele>
        <time>2021-11-14T22:29:33.508Z</time>
      </trkpt>
      <trkpt lat="47.449522" lon="7.765582">
        <ele>501.908931</ele>
        <time>2021-11-14T22:29:34.415Z</time>
      </trkpt>
      <trkpt lat="47.449371" lon="7.765478">
        <ele>500.519475</ele>
        <time>2021-11-14T22:29:35.961Z</time>
      </trkpt>
      <trkpt lat="47.449330" lon="7.765441">
        <ele>500.118826</ele>
        <time>2021-11-14T22:29:36.392Z</time>
      </trkpt>
      <trkpt lat="47.449309" lon="7.765407">
        <ele>499.859085</ele>
        <time>2021-11-14T22:29:36.649Z</time>
      </trkpt>
      <trkpt lat="47.449197" lon="7.765003">
        <ele>497.396152</ele>
        <time>2021-11-14T22:29:39.307Z</time>
      </trkpt>
      <trkpt lat="47.449117" lon="7.764686">
        <ele>495.487567</ele>
        <time>2021-11-14T22:29:41.288Z</time>
      </trkpt>
      <trkpt lat="47.449104" lon="7.764651">
        <ele>495.262320</ele>
        <time>2021-11-14T22:29:41.539Z</time>
      </trkpt>
      <trkpt lat="47.449090" lon="7.764621">
        <ele>495.056713</ele>
        <time>2021-11-14T22:29:41.772Z</time>
      </trkpt>
      <trkpt lat="47.449068" lon="7.764572">
        <ele>494.724943</ele>
        <time>2021-11-14T22:29:42.136Z</time>
      </trkpt>
      <trkpt lat="47.448997" lon="7.764469">
        <ele>493.895301</ele>
        <time>2021-11-14T22:29:43.001Z</time>
      </trkpt>
      <trkpt lat="47.448981" lon="7.764430">
        <ele>493.637992</ele>
        <time>2021-11-14T22:29:43.265Z</time>
      </trkpt>
      <trkpt lat="47.448974" lon="7.764320">
        <ele>493.014763</ele>
        <time>2021-11-14T22:29:44.163Z</time>
      </trkpt>
      <trkpt lat="47.449018" lon="7.763977">
        <ele>491.045466</ele>
        <time>2021-11-14T22:29:47.224Z</time>
      </trkpt>
      <trkpt lat="47.449068" lon="7.763893">
        <ele>490.414232</ele>
        <time>2021-11-14T22:29:48.126Z</time>
      </trkpt>
      <trkpt lat="47.449334" lon="7.763906">
        <ele>488.183907</ele>
        <time>2021-11-14T22:29:51.517Z</time>
      </trkpt>
      <trkpt lat="47.449423" lon="7.763910">
        <ele>487.371313</ele>
        <time>2021-11-14T22:29:52.572Z</time>
      </trkpt>
      <trkpt lat="47.449641" lon="7.763856">
        <ele>485.354113</ele>
        <time>2021-11-14T22:29:55.252Z</time>
      </trkpt>
      <trkpt lat="47.450213" lon="7.763596">
        <ele>479.892969</ele>
        <time>2021-11-14T22:30:02.557Z</time>
      </trkpt>
      <trkpt lat="47.450591" lon="7.763529">
        <ele>476.418627</ele>
        <time>2021-11-14T22:30:07.270Z</time>
      </trkpt>
      <trkpt lat="47.450817" lon="7.763325">
        <ele>474.002269</ele>
        <time>2021-11-14T22:30:10.667Z</time>
      </trkpt>
      <trkpt lat="47.450847" lon="7.763266">
        <ele>473.546716</ele>
        <time>2021-11-14T22:30:11.250Z</time>
      </trkpt>
      <trkpt lat="47.450838" lon="7.763197">
        <ele>473.113051</ele>
        <time>2021-11-14T22:30:11.817Z</time>
      </trkpt>
      <trkpt lat="47.450610" lon="7.762726">
        <ele>469.998695</ele>
        <time>2021-11-14T22:30:16.772Z</time>
      </trkpt>
      <trkpt lat="47.450560" lon="7.762685">
        <ele>469.579092</ele>
        <time>2021-11-14T22:30:17.482Z</time>
      </trkpt>
      <trkpt lat="47.450507" lon="7.762657">
        <ele>469.166033</ele>
        <time>2021-11-14T22:30:18.194Z</time>
      </trkpt>
      <trkpt lat="47.450194" lon="7.762510">
        <ele>466.755776</ele>
        <time>2021-11-14T22:30:22.343Z</time>
      </trkpt>
      <trkpt lat="47.449966" lon="7.762399">
        <ele>464.994074</ele>
        <time>2021-11-14T22:30:25.358Z</time>
      </trkpt>
      <trkpt lat="47.449829" lon="7.762363">
        <ele>463.972844</ele>
        <time>2021-11-14T22:30:27.131Z</time>
      </trkpt>
      <trkpt lat="47.449598" lon="7.762322">
        <ele>462.265307</ele>
        <time>2021-11-14T22:30:30.047Z</time>
      </trkpt>
      <trkpt lat="47.449520" lon="7.762314">
        <ele>461.691469</ele>
        <time>2021-11-14T22:30:31.054Z</time>
      </trkpt>
      <trkpt lat="47.449019" lon="7.762253">
        <ele>458.033155</ele>
        <time>2021-11-14T22:30:37.688Z</time>
      </trkpt>
      <trkpt lat="47.448580" lon="7.762093">
        <ele>454.865097</ele>
        <time>2021-11-14T22:30:43.769Z</time>
      </trkpt>
      <trkpt lat="47.447451" lon="7.761515">
        <ele>446.493669</ele>
        <time>2021-11-14T22:30:59.136Z</time>
      </trkpt>
      <trkpt lat="47.445946" lon="7.760212">
        <ele>428.769489</ele>
        <time>2021-11-14T22:31:20.232Z</time>
      </trkpt>
      <trkpt lat="47.445735" lon="7.760004">
        <ele>426.092707</ele>
        <time>2021-11-14T22:31:23.345Z</time>
      </trkpt>
      <trkpt lat="47.445458" lon="7.759563">
        <ele>421.703682</ele>
        <time>2021-11-14T22:31:28.286Z</time>
      </trkpt>
      <trkpt lat="47.445401" lon="7.759495">
        <ele>420.913959</ele>
        <time>2021-11-14T22:31:29.120Z</time>
      </trkpt>
      <trkpt lat="47.445150" lon="7.759617">
        <ele>418.064978</ele>
        <time>2021-11-14T22:31:32.462Z</time>
      </trkpt>
      <trkpt lat="47.444345" lon="7.759836">
        <ele>409.239057</ele>
        <time>2021-11-14T22:31:42.222Z</time>
      </trkpt>
      <trkpt lat="47.443729" lon="7.759804">
        <ele>404.742881</ele>
        <time>2021-11-14T22:31:49.831Z</time>
      </trkpt>
      <trkpt lat="47.443616" lon="7.759700">
        <ele>403.856469</ele>
        <time>2021-11-14T22:31:51.449Z</time>
      </trkpt>
      <trkpt lat="47.443553" lon="7.759787">
        <ele>403.282384</ele>
        <time>2021-11-14T22:31:52.233Z</time>
      </trkpt>
      <trkpt lat="47.443311" lon="7.760032">
        <ele>401.329174</ele>
        <time>2021-11-14T22:31:54.879Z</time>
      </trkpt>
      <trkpt lat="47.443255" lon="7.760116">
        <ele>400.797927</ele>
        <time>2021-11-14T22:31:55.614Z</time>
      </trkpt>
      <trkpt lat="47.443200" lon="7.760059">
        <ele>400.350634</ele>
        <time>2021-11-14T22:31:56.269Z</time>
      </trkpt>
      <trkpt lat="47.443041" lon="7.759900">
        <ele>399.072319</ele>
        <time>2021-11-14T22:31:57.991Z</time>
      </trkpt>
      <trkpt lat="47.443002" lon="7.759874">
        <ele>398.787413</ele>
        <time>2021-11-14T22:31:58.395Z</time>
      </trkpt>
      <trkpt lat="47.442943" lon="7.759844">
        <ele>398.371911</ele>
        <time>2021-11-14T22:31:58.976Z</time>
      </trkpt>
      <trkpt lat="47.442870" lon="7.759812">
        <ele>397.864843</ele>
        <time>2021-11-14T22:31:59.762Z</time>
      </trkpt>
      <trkpt lat="47.442760" lon="7.759773">
        <ele>397.111518</ele>
        <time>2021-11-14T22:32:00.814Z</time>
      </trkpt>
      <trkpt lat="47.441986" lon="7.759617">
        <ele>400.101159</ele>
        <time>2021-11-14T22:32:10.540Z</time>
      </trkpt>
      <trkpt lat="47.441551" lon="7.759290">
        <ele>403.002318</ele>
        <time>2021-11-14T22:32:29.113Z</time>
      </trkpt>
      <trkpt lat="47.441501" lon="7.759205">
        <ele>403.455277</ele>
        <time>2021-11-14T22:32:33.283Z</time>
      </trkpt>
      <trkpt lat="47.441419" lon="7.759058">
        <ele>404.221449</ele>
        <time>2021-11-14T22:32:40.028Z</time>
      </trkpt>
      <trkpt lat="47.441385" lon="7.758985">
        <ele>404.577842</ele>
        <time>2021-11-14T22:32:43.329Z</time>
      </trkpt>
      <trkpt lat="47.441226" lon="7.758702">
        <ele>406.057164</ele>
        <time>2021-11-14T22:33:01.045Z</time>
      </trkpt>
      <trkpt lat="47.440922" lon="7.758380">
        <ele>410.980010</ele>
        <time>2021-11-14T22:33:29.734Z</time>
      </trkpt>
      <trkpt lat="47.440672" lon="7.758163">
        <ele>416.150209</ele>
        <time>2021-11-14T22:33:55.062Z</time>
      </trkpt>
      <trkpt lat="47.440212" lon="7.757840">
        <ele>425.232283</ele>
        <time>2021-11-14T22:34:41.806Z</time>
      </trkpt>
      <trkpt lat="47.439884" lon="7.757706">
        <ele>431.301222</ele>
        <time>2021-11-14T22:35:14.670Z</time>
      </trkpt>
      <trkpt lat="47.439347" lon="7.757578">
        <ele>440.528419</ele>
        <time>2021-11-14T22:36:03.536Z</time>
      </trkpt>
      <trkpt lat="47.438766" lon="7.757443">
        <ele>448.525573</ele>
        <time>2021-11-14T22:36:51.561Z</time>
      </trkpt>
      <trkpt lat="47.437931" lon="7.757166">
        <ele>460.161847</ele>
        <time>2021-11-14T22:37:46.757Z</time>
      </trkpt>
      <trkpt lat="47.437319" lon="7.756811">
        <ele>466.550380</ele>
        <time>2021-11-14T22:38:18.687Z</time>
      </trkpt>
      <trkpt lat="47.436505" lon="7.756529">
        <ele>472.773082</ele>
        <time>2021-11-14T22:38:54.678Z</time>
      </trkpt>
      <trkpt lat="47.436069" lon="7.756301">
        <ele>476.215250</ele>
        <time>2021-11-14T22:39:13.867Z</time>
      </trkpt>
      <trkpt lat="47.435521" lon="7.755885">
        <ele>479.389487</ele>
        <time>2021-11-14T22:39:37.647Z</time>
      </trkpt>
      <trkpt lat="47.435322" lon="7.755657">
        <ele>480.593645</ele>
        <time>2021-11-14T22:39:47.014Z</time>
      </trkpt>
      <trkpt lat="47.435162" lon="7.755469">
        <ele>481.571169</ele>
        <time>2021-11-14T22:39:53.988Z</time>
      </trkpt>
      <trkpt lat="47.434847" lon="7.755234">
        <ele>483.258732</ele>
        <time>2021-11-14T22:40:05.495Z</time>
      </trkpt>
      <trkpt lat="47.433995" lon="7.755221">
        <ele>485.803638</ele>
        <time>2021-11-14T22:40:30.590Z</time>
      </trkpt>
      <trkpt lat="47.432260" lon="7.754664">
        <ele>487.237855</ele>
        <time>2021-11-14T22:40:55.928Z</time>
      </trkpt>
      <trkpt lat="47.431813" lon="7.754709">
        <ele>487.465888</ele>
        <time>2021-11-14T22:41:02.547Z</time>
      </trkpt>
      <trkpt lat="47.431550" lon="7.754908">
        <ele>487.616261</ele>
        <time>2021-11-14T22:41:06.759Z</time>
      </trkpt>
      <trkpt lat="47.431353" lon="7.755088">
        <ele>487.734133</ele>
        <time>2021-11-14T22:41:09.902Z</time>
      </trkpt>
      <trkpt lat="47.431261" lon="7.755176">
        <ele>487.789905</ele>
        <time>2021-11-14T22:41:12.566Z</time>
      </trkpt>
      <trkpt lat="47.431137" lon="7.755296">
        <ele>487.865338</ele>
        <time>2021-11-14T22:41:15.769Z</time>
      </trkpt>
      <trkpt lat="47.431019" lon="7.755438">
        <ele>487.942779</ele>
        <time>2021-11-14T22:41:17.914Z</time>
      </trkpt>
      <trkpt lat="47.430932" lon="7.755571">
        <ele>488.345263</ele>
        <time>2021-11-14T22:41:22.358Z</time>
      </trkpt>
      <trkpt lat="47.430651" lon="7.756251">
        <ele>490.872186</ele>
        <time>2021-11-14T22:41:34.806Z</time>
      </trkpt>
      <trkpt lat="47.429823" lon="7.757390">
        <ele>496.174337</ele>
        <time>2021-11-14T22:42:20.161Z</time>
      </trkpt>
      <trkpt lat="47.429479" lon="7.758067">
        <ele>499.657359</ele>
        <time>2021-11-14T22:42:41.902Z</time>
      </trkpt>
      <trkpt lat="47.428620" lon="7.759414">
        <ele>507.430002</ele>
        <time>2021-11-14T22:43:32.890Z</time>
      </trkpt>
      <trkpt lat="47.428453" lon="7.759548">
        <ele>508.567877</ele>
        <time>2021-11-14T22:43:39.219Z</time>
      </trkpt>
      <trkpt lat="47.428359" lon="7.759581">
        <ele>509.143803</ele>
        <time>2021-11-14T22:43:44.000Z</time>
      </trkpt>
      <trkpt lat="47.428259" lon="7.759570">
        <ele>509.741558</ele>
        <time>2021-11-14T22:43:47.907Z</time>
      </trkpt>
      <trkpt lat="47.427740" lon="7.759448">
        <ele>512.874227</ele>
        <time>2021-11-14T22:44:07.221Z</time>
      </trkpt>
      <trkpt lat="47.427468" lon="7.759390">
        <ele>514.512421</ele>
        <time>2021-11-14T22:44:18.591Z</time>
      </trkpt>
      <trkpt lat="47.427229" lon="7.759330">
        <ele>515.957517</ele>
        <time>2021-11-14T22:44:28.318Z</time>
      </trkpt>
      <trkpt lat="47.426765" lon="7.759237">
        <ele>518.801049</ele>
        <time>2021-11-14T22:44:45.625Z</time>
      </trkpt>
      <trkpt lat="47.426393" lon="7.759162">
        <ele>521.289982</ele>
        <time>2021-11-14T22:44:59.349Z</time>
      </trkpt>
      <trkpt lat="47.426062" lon="7.759081">
        <ele>523.514148</ele>
        <time>2021-11-14T22:45:12.870Z</time>
      </trkpt>
      <trkpt lat="47.425993" lon="7.759039">
        <ele>524.008837</ele>
        <time>2021-11-14T22:45:16.190Z</time>
      </trkpt>
      <trkpt lat="47.425928" lon="7.758994">
        <ele>524.484665</ele>
        <time>2021-11-14T22:45:19.440Z</time>
      </trkpt>
      <trkpt lat="47.425825" lon="7.758936">
        <ele>525.215355</ele>
        <time>2021-11-14T22:45:24.055Z</time>
      </trkpt>
      <trkpt lat="47.425722" lon="7.758880">
        <ele>525.942900</ele>
        <time>2021-11-14T22:45:28.649Z</time>
      </trkpt>
      <trkpt lat="47.425435" lon="7.758763">
        <ele>527.916546</ele>
        <time>2021-11-14T22:45:40.833Z</time>
      </trkpt>
      <trkpt lat="47.425349" lon="7.758735">
        <ele>528.500333</ele>
        <time>2021-11-14T22:45:46.159Z</time>
      </trkpt>
      <trkpt lat="47.425276" lon="7.758756">
        <ele>528.993352</ele>
        <time>2021-11-14T22:45:49.733Z</time>
      </trkpt>
      <trkpt lat="47.425222" lon="7.758764">
        <ele>529.353127</ele>
        <time>2021-11-14T22:45:51.849Z</time>
      </trkpt>
      <trkpt lat="47.425168" lon="7.758755">
        <ele>529.713378</ele>
        <time>2021-11-14T22:45:53.445Z</time>
      </trkpt>
      <trkpt lat="47.425120" lon="7.758740">
        <ele>530.038618</ele>
        <time>2021-11-14T22:45:55.986Z</time>
      </trkpt>
      <trkpt lat="47.424813" lon="7.758605">
        <ele>532.297012</ele>
        <time>2021-11-14T22:46:09.959Z</time>
      </trkpt>
      <trkpt lat="47.424709" lon="7.758492">
        <ele>533.211778</ele>
        <time>2021-11-14T22:46:15.237Z</time>
      </trkpt>
      <trkpt lat="47.424640" lon="7.758687">
        <ele>534.266915</ele>
        <time>2021-11-14T22:46:23.137Z</time>
      </trkpt>
      <trkpt lat="47.424459" lon="7.759331">
        <ele>537.610598</ele>
        <time>2021-11-14T22:46:42.377Z</time>
      </trkpt>
      <trkpt lat="47.424371" lon="7.759412">
        <ele>538.345299</ele>
        <time>2021-11-14T22:46:45.926Z</time>
      </trkpt>
      <trkpt lat="47.424340" lon="7.759418">
        <ele>538.566871</ele>
        <time>2021-11-14T22:46:48.800Z</time>
      </trkpt>
      <trkpt lat="47.424304" lon="7.759390">
        <ele>538.855171</ele>
        <time>2021-11-14T22:46:51.092Z</time>
      </trkpt>
      <trkpt lat="47.423865" lon="7.758543">
        <ele>543.636670</ele>
        <time>2021-11-14T22:47:22.195Z</time>
      </trkpt>
      <trkpt lat="47.423379" lon="7.757835">
        <ele>546.883952</ele>
        <time>2021-11-14T22:47:46.621Z</time>
      </trkpt>
      <trkpt lat="47.423220" lon="7.757667">
        <ele>547.814043</ele>
        <time>2021-11-14T22:47:52.715Z</time>
      </trkpt>
      <trkpt lat="47.423125" lon="7.757576">
        <ele>548.352761</ele>
        <time>2021-11-14T22:47:55.991Z</time>
      </trkpt>
      <trkpt lat="47.423014" lon="7.757492">
        <ele>548.946190</ele>
        <time>2021-11-14T22:47:59.132Z</time>
      </trkpt>
      <trkpt lat="47.422936" lon="7.757446">
        <ele>549.345827</ele>
        <time>2021-11-14T22:48:01.813Z</time>
      </trkpt>
      <trkpt lat="47.422839" lon="7.757410">
        <ele>549.821753</ele>
        <time>2021-11-14T22:48:04.856Z</time>
      </trkpt>
      <trkpt lat="47.422698" lon="7.757394">
        <ele>550.494707</ele>
        <time>2021-11-14T22:48:08.341Z</time>
      </trkpt>
      <trkpt lat="47.422229" lon="7.757351">
        <ele>552.612621</ele>
        <time>2021-11-14T22:48:23.116Z</time>
      </trkpt>
      <trkpt lat="47.421957" lon="7.757327">
        <ele>553.783498</ele>
        <time>2021-11-14T22:48:31.395Z</time>
      </trkpt>
      <trkpt lat="47.421843" lon="7.757289">
        <ele>554.285665</ele>
        <time>2021-11-14T22:48:35.580Z</time>
      </trkpt>
      <trkpt lat="47.421747" lon="7.757231">
        <ele>554.731317</ele>
        <time>2021-11-14T22:48:39.454Z</time>
      </trkpt>
      <trkpt lat="47.421548" lon="7.757099">
        <ele>555.668599</ele>
        <time>2021-11-14T22:48:45.775Z</time>
      </trkpt>
      <trkpt lat="47.421290" lon="7.756852">
        <ele>556.989501</ele>
        <time>2021-11-14T22:48:55.626Z</time>
      </trkpt>
      <trkpt lat="47.421222" lon="7.756747">
        <ele>557.412081</ele>
        <time>2021-11-14T22:48:58.879Z</time>
      </trkpt>
      <trkpt lat="47.421138" lon="7.756625">
        <ele>557.918145</ele>
        <time>2021-11-14T22:49:03.167Z</time>
      </trkpt>
      <trkpt lat="47.420834" lon="7.756097">
        <ele>560.016401</ele>
        <time>2021-11-14T22:49:18.151Z</time>
      </trkpt>
      <trkpt lat="47.420579" lon="7.755594">
        <ele>562.061634</ele>
        <time>2021-11-14T22:49:32.510Z</time>
      </trkpt>
      <trkpt lat="47.420480" lon="7.755388">
        <ele>562.883843</ele>
        <time>2021-11-14T22:49:38.766Z</time>
      </trkpt>
      <trkpt lat="47.420262" lon="7.754930">
        <ele>564.706017</ele>
        <time>2021-11-14T22:49:51.978Z</time>
      </trkpt>
      <trkpt lat="47.419657" lon="7.753538">
        <ele>570.360215</ele>
        <time>2021-11-14T22:50:29.879Z</time>
      </trkpt>
      <trkpt lat="47.419232" lon="7.753026">
        <ele>573.321731</ele>
        <time>2021-11-14T22:50:50.728Z</time>
      </trkpt>
      <trkpt lat="47.418773" lon="7.752612">
        <ele>576.226107</ele>
        <time>2021-11-14T22:51:10.554Z</time>
      </trkpt>
      <trkpt lat="47.418683" lon="7.752443">
        <ele>577.012093</ele>
        <time>2021-11-14T22:51:16.110Z</time>
      </trkpt>
      <trkpt lat="47.418665" lon="7.752194">
        <ele>577.916603</ele>
        <time>2021-11-14T22:51:22.277Z</time>
      </trkpt>
      <trkpt lat="47.418685" lon="7.751883">
        <ele>579.020358</ele>
        <time>2021-11-14T22:51:30.224Z</time>
      </trkpt>
      <trkpt lat="47.418629" lon="7.751526">
        <ele>580.315137</ele>
        <time>2021-11-14T22:51:39.581Z</time>
      </trkpt>
      <trkpt lat="47.418425" lon="7.750815">
        <ele>583.043714</ele>
        <time>2021-11-14T22:51:58.922Z</time>
      </trkpt>
      <trkpt lat="47.418447" lon="7.750223">
        <ele>585.138489</ele>
        <time>2021-11-14T22:52:13.869Z</time>
      </trkpt>
      <trkpt lat="47.418231" lon="7.748818">
        <ele>589.025885</ele>
        <time>2021-11-14T22:52:44.454Z</time>
      </trkpt>
      <trkpt lat="47.418073" lon="7.746158">
        <ele>594.305080</ele>
        <time>2021-11-14T22:53:30.672Z</time>
      </trkpt>
      <trkpt lat="47.418029" lon="7.745535">
        <ele>595.260074</ele>
        <time>2021-11-14T22:53:40.862Z</time>
      </trkpt>
      <trkpt lat="47.417933" lon="7.744575">
        <ele>596.739601</ele>
        <time>2021-11-14T22:53:55.836Z</time>
      </trkpt>
      <trkpt lat="47.417833" lon="7.743809">
        <ele>597.506025</ele>
        <time>2021-11-14T22:54:06.995Z</time>
      </trkpt>
      <trkpt lat="47.417780" lon="7.743449">
        <ele>597.826240</ele>
        <time>2021-11-14T22:54:12.158Z</time>
      </trkpt>
      <trkpt lat="47.417748" lon="7.743354">
        <ele>597.918475</ele>
        <time>2021-11-14T22:54:13.535Z</time>
      </trkpt>
      <trkpt lat="47.417625" lon="7.743018">
        <ele>598.250510</ele>
        <time>2021-11-14T22:54:18.707Z</time>
      </trkpt>
      <trkpt lat="47.417227" lon="7.742401">
        <ele>598.991418</ele>
        <time>2021-11-14T22:54:30.058Z</time>
      </trkpt>
      <trkpt lat="47.416369" lon="7.741422">
        <ele>599.811921</ele>
        <time>2021-11-14T22:54:49.043Z</time>
      </trkpt>
      <trkpt lat="47.415396" lon="7.739746">
        <ele>600.561218</ele>
        <time>2021-11-14T22:55:14.432Z</time>
      </trkpt>
      <trkpt lat="47.415295" lon="7.739537">
        <ele>600.611581</ele>
        <time>2021-11-14T22:55:17.236Z</time>
      </trkpt>
      <trkpt lat="47.415497" lon="7.739267">
        <ele>600.690514</ele>
        <time>2021-11-14T22:55:25.644Z</time>
      </trkpt>
      <trkpt lat="47.415865" lon="7.738510">
        <ele>600.873298</ele>
        <time>2021-11-14T22:55:44.028Z</time>
      </trkpt>
      <trkpt lat="47.416109" lon="7.737885">
        <ele>600.218420</ele>
        <time>2021-11-14T22:55:56.577Z</time>
      </trkpt>
      <trkpt lat="47.416486" lon="7.737163">
        <ele>598.954040</ele>
        <time>2021-11-14T22:56:11.551Z</time>
      </trkpt>
      <trkpt lat="47.416676" lon="7.737017">
        <ele>598.515268</ele>
        <time>2021-11-14T22:56:16.312Z</time>
      </trkpt>
      <trkpt lat="47.416984" lon="7.736846">
        <ele>597.841143</ele>
        <time>2021-11-14T22:56:23.384Z</time>
      </trkpt>
      <trkpt lat="47.417518" lon="7.736510">
        <ele>595.388565</ele>
        <time>2021-11-14T22:56:35.246Z</time>
      </trkpt>
      <trkpt lat="47.417807" lon="7.736460">
        <ele>593.491203</ele>
        <time>2021-11-14T22:56:40.901Z</time>
      </trkpt>
      <trkpt lat="47.418779" lon="7.736523">
        <ele>587.146956</ele>
        <time>2021-11-14T22:56:58.966Z</time>
      </trkpt>
      <trkpt lat="47.419802" lon="7.736343">
        <ele>577.152901</ele>
        <time>2021-11-14T22:57:17.290Z</time>
      </trkpt>
      <trkpt lat="47.420861" lon="7.736378">
        <ele>565.764954</ele>
        <time>2021-11-14T22:57:35.385Z</time>
      </trkpt>
      <trkpt lat="47.421282" lon="7.736288">
        <ele>560.977476</ele>
        <time>2021-11-14T22:57:42.701Z</time>
      </trkpt>
      <trkpt lat="47.421296" lon="7.736285">
        <ele>560.818265</ele>
        <time>2021-11-14T22:57:42.929Z</time>
      </trkpt>
      <trkpt lat="47.421691" lon="7.736142">
        <ele>556.241293</ele>
        <time>2021-11-14T22:57:49.911Z</time>
      </trkpt>
      <trkpt lat="47.421704" lon="7.736083">
        <ele>555.768797</ele>
        <time>2021-11-14T22:57:50.622Z</time>
      </trkpt>
      <trkpt lat="47.421784" lon="7.735744">
        <ele>553.034868</ele>
        <time>2021-11-14T22:57:54.900Z</time>
      </trkpt>
      <trkpt lat="47.421844" lon="7.735301">
        <ele>549.594594</ele>
        <time>2021-11-14T22:58:00.226Z</time>
      </trkpt>
      <trkpt lat="47.422293" lon="7.735294">
        <ele>544.796957</ele>
        <time>2021-11-14T22:58:39.352Z</time>
      </trkpt>
      <trkpt lat="47.422388" lon="7.735288">
        <ele>543.920245</ele>
        <time>2021-11-14T22:58:47.484Z</time>
      </trkpt>
      <trkpt lat="47.422500" lon="7.735210">
        <ele>542.778695</ele>
        <time>2021-11-14T22:58:58.507Z</time>
      </trkpt>
      <trkpt lat="47.422671" lon="7.735019">
        <ele>540.802468</ele>
        <time>2021-11-14T22:59:17.630Z</time>
      </trkpt>
      <trkpt lat="47.422710" lon="7.734975">
        <ele>540.350095</ele>
        <time>2021-11-14T22:59:21.994Z</time>
      </trkpt>
      <trkpt lat="47.423061" lon="7.734488">
        <ele>535.911310</ele>
        <time>2021-11-14T23:00:06.326Z</time>
      </trkpt>
      <trkpt lat="47.423099" lon="7.734398">
        <ele>535.249522</ele>
        <time>2021-11-14T23:00:12.891Z</time>
      </trkpt>
      <trkpt lat="47.423325" lon="7.734550">
        <ele>532.960179</ele>
        <time>2021-11-14T23:00:34.918Z</time>
      </trkpt>
      <trkpt lat="47.424230" lon="7.735230">
        <ele>523.393670</ele>
        <time>2021-11-14T23:02:05.505Z</time>
      </trkpt>
      <trkpt lat="47.424417" lon="7.735484">
        <ele>520.968500</ele>
        <time>2021-11-14T23:02:27.974Z</time>
      </trkpt>
      <trkpt lat="47.424571" lon="7.735725">
        <ele>518.826832</ele>
        <time>2021-11-14T23:02:47.486Z</time>
      </trkpt>
      <trkpt lat="47.424739" lon="7.735943">
        <ele>516.692081</ele>
        <time>2021-11-14T23:03:07.782Z</time>
      </trkpt>
      <trkpt lat="47.425774" lon="7.736576">
        <ele>507.472248</ele>
        <time>2021-11-14T23:04:47.390Z</time>
      </trkpt>
      <trkpt lat="47.425997" lon="7.736650">
        <ele>505.809260</ele>
        <time>2021-11-14T23:05:08.055Z</time>
      </trkpt>
      <trkpt lat="47.427900" lon="7.737015">
        <ele>495.431780</ele>
        <time>2021-11-14T23:08:11.834Z</time>
      </trkpt>
      <trkpt lat="47.428115" lon="7.736897">
        <ele>494.586679</ele>
        <time>2021-11-14T23:08:36.224Z</time>
      </trkpt>
      <trkpt lat="47.428150" lon="7.736813">
        <ele>494.340746</ele>
        <time>2021-11-14T23:08:42.616Z</time>
      </trkpt>
      <trkpt lat="47.428190" lon="7.736356">
        <ele>493.192001</ele>
        <time>2021-11-14T23:09:16.304Z</time>
      </trkpt>
      <trkpt lat="47.428103" lon="7.735428">
        <ele>490.153356</ele>
        <time>2021-11-14T23:10:24.437Z</time>
      </trkpt>
      <trkpt lat="47.428191" lon="7.734968">
        <ele>488.446378</ele>
        <time>2021-11-14T23:10:56.061Z</time>
      </trkpt>
      <trkpt lat="47.428615" lon="7.733879">
        <ele>483.959780</ele>
        <time>2021-11-14T23:12:16.411Z</time>
      </trkpt>
      <trkpt lat="47.428833" lon="7.733579">
        <ele>481.362763</ele>
        <time>2021-11-14T23:12:42.896Z</time>
      </trkpt>
      <trkpt lat="47.429069" lon="7.733252">
        <ele>476.745371</ele>
        <time>2021-11-14T23:13:11.029Z</time>
      </trkpt>
      <trkpt lat="47.429362" lon="7.732853">
        <ele>471.058651</ele>
        <time>2021-11-14T23:13:44.920Z</time>
      </trkpt>
      <trkpt lat="47.429959" lon="7.732498">
        <ele>461.873068</ele>
        <time>2021-11-14T23:14:37.519Z</time>
      </trkpt>
      <trkpt lat="47.430224" lon="7.731858">
        <ele>454.382090</ele>
        <time>2021-11-14T23:15:18.626Z</time>
      </trkpt>
      <trkpt lat="47.430584" lon="7.731172">
        <ele>445.233774</ele>
        <time>2021-11-14T23:16:06.431Z</time>
      </trkpt>
      <trkpt lat="47.430842" lon="7.730733">
        <ele>439.106267</ele>
        <time>2021-11-14T23:16:38.956Z</time>
      </trkpt>
      <trkpt lat="47.430854" lon="7.730687">
        <ele>438.586781</ele>
        <time>2021-11-14T23:16:41.757Z</time>
      </trkpt>
      <trkpt lat="47.430965" lon="7.730504">
        <ele>435.996924</ele>
        <time>2021-11-14T23:16:55.668Z</time>
      </trkpt>
      <trkpt lat="47.431272" lon="7.730133">
        <ele>429.820556</ele>
        <time>2021-11-14T23:17:29.171Z</time>
      </trkpt>
      <trkpt lat="47.431302" lon="7.730041">
        <ele>429.015722</ele>
        <time>2021-11-14T23:17:34.867Z</time>
      </trkpt>
      <trkpt lat="47.431421" lon="7.730117">
        <ele>427.985357</ele>
        <time>2021-11-14T23:17:35.955Z</time>
      </trkpt>
      <trkpt lat="47.431765" lon="7.730246">
        <ele>425.164485</ele>
        <time>2021-11-14T23:17:38.978Z</time>
      </trkpt>
      <trkpt lat="47.432069" lon="7.730253">
        <ele>422.747863</ele>
        <time>2021-11-14T23:17:41.625Z</time>
      </trkpt>
      <trkpt lat="47.433187" lon="7.730043">
        <ele>414.597265</ele>
        <time>2021-11-14T23:17:52.147Z</time>
      </trkpt>
      <trkpt lat="47.433636" lon="7.729886">
        <ele>413.372537</ele>
        <time>2021-11-14T23:17:57.004Z</time>
      </trkpt>
      <trkpt lat="47.434474" lon="7.729332">
        <ele>410.935831</ele>
        <time>2021-11-14T23:18:07.031Z</time>
      </trkpt>
      <trkpt lat="47.436101" lon="7.727930">
        <ele>407.897006</ele>
        <time>2021-11-14T23:18:28.022Z</time>
      </trkpt>
      <trkpt lat="47.436508" lon="7.727625">
        <ele>407.898189</ele>
        <time>2021-11-14T23:18:34.890Z</time>
      </trkpt>
      <trkpt lat="47.436769" lon="7.727452">
        <ele>408.173646</ele>
        <time>2021-11-14T23:18:39.915Z</time>
      </trkpt>
      <trkpt lat="47.437400" lon="7.726969">
        <ele>408.857935</ele>
        <time>2021-11-14T23:18:56.648Z</time>
      </trkpt>
      <trkpt lat="47.437559" lon="7.727278">
        <ele>409.110836</ele>
        <time>2021-11-14T23:19:02.905Z</time>
      </trkpt>
      <trkpt lat="47.437562" lon="7.727282">
        <ele>409.114727</ele>
        <time>2021-11-14T23:19:03.366Z</time>
      </trkpt>
      <trkpt lat="47.438029" lon="7.727947">
        <ele>408.374730</ele>
        <time>2021-11-14T23:19:12.653Z</time>
      </trkpt>
      <trkpt lat="47.438277" lon="7.728199">
        <ele>407.603732</ele>
        <time>2021-11-14T23:19:16.069Z</time>
      </trkpt>
      <trkpt lat="47.438420" lon="7.728330">
        <ele>407.172724</ele>
        <time>2021-11-14T23:19:20.273Z</time>
      </trkpt>
      <trkpt lat="47.438560" lon="7.728448">
        <ele>406.759839</ele>
        <time>2021-11-14T23:19:21.786Z</time>
      </trkpt>
      <trkpt lat="47.438996" lon="7.728816">
        <ele>405.473556</ele>
        <time>2021-11-14T23:19:26.953Z</time>
      </trkpt>
      <trkpt lat="47.440436" lon="7.730051">
        <ele>395.351692</ele>
        <time>2021-11-14T23:19:41.720Z</time>
      </trkpt>
      <trkpt lat="47.440666" lon="7.730243">
        <ele>393.558473</ele>
        <time>2021-11-14T23:19:44.112Z</time>
      </trkpt>
      <trkpt lat="47.441594" lon="7.731080">
        <ele>389.320726</ele>
        <time>2021-11-14T23:19:54.521Z</time>
      </trkpt>
      <trkpt lat="47.441706" lon="7.731181">
        <ele>388.869544</ele>
        <time>2021-11-14T23:19:55.863Z</time>
      </trkpt>
      <trkpt lat="47.442994" lon="7.732397">
        <ele>385.085451</ele>
        <time>2021-11-14T23:20:13.320Z</time>
      </trkpt>
      <trkpt lat="47.443020" lon="7.732425">
        <ele>385.034089</ele>
        <time>2021-11-14T23:20:13.616Z</time>
      </trkpt>
      <trkpt lat="47.443230" lon="7.732639">
        <ele>384.626834</ele>
        <time>2021-11-14T23:20:16.745Z</time>
      </trkpt>
      <trkpt lat="47.443386" lon="7.732819">
        <ele>384.310860</ele>
        <time>2021-11-14T23:20:18.980Z</time>
      </trkpt>
      <trkpt lat="47.443761" lon="7.733253">
        <ele>383.550440</ele>
        <time>2021-11-14T23:20:24.455Z</time>
      </trkpt>
      <trkpt lat="47.443863" lon="7.733374">
        <ele>383.314813</ele>
        <time>2021-11-14T23:20:25.912Z</time>
      </trkpt>
      <trkpt lat="47.443910" lon="7.733430">
        <ele>383.200870</ele>
        <time>2021-11-14T23:20:26.559Z</time>
      </trkpt>
      <trkpt lat="47.444242" lon="7.733828">
        <ele>382.394050</ele>
        <time>2021-11-14T23:20:31.374Z</time>
      </trkpt>
      <trkpt lat="47.444384" lon="7.733998">
        <ele>382.049148</ele>
        <time>2021-11-14T23:20:33.413Z</time>
      </trkpt>
      <trkpt lat="47.444690" lon="7.734364">
        <ele>381.306184</ele>
        <time>2021-11-14T23:20:37.843Z</time>
      </trkpt>
      <trkpt lat="47.444778" lon="7.734464">
        <ele>381.096675</ele>
        <time>2021-11-14T23:20:39.133Z</time>
      </trkpt>
      <trkpt lat="47.444952" lon="7.734628">
        <ele>380.707159</ele>
        <time>2021-11-14T23:20:41.335Z</time>
      </trkpt>
      <trkpt lat="47.445206" lon="7.734772">
        <ele>380.193646</ele>
        <time>2021-11-14T23:20:44.269Z</time>
      </trkpt>
      <trkpt lat="47.445351" lon="7.734812">
        <ele>379.889370</ele>
        <time>2021-11-14T23:20:45.807Z</time>
      </trkpt>
      <trkpt lat="47.445493" lon="7.734890">
        <ele>379.561980</ele>
        <time>2021-11-14T23:20:47.464Z</time>
      </trkpt>
      <trkpt lat="47.445550" lon="7.734931">
        <ele>379.424985</ele>
        <time>2021-11-14T23:20:48.146Z</time>
      </trkpt>
      <trkpt lat="47.445610" lon="7.734982">
        <ele>379.275411</ele>
        <time>2021-11-14T23:20:48.861Z</time>
      </trkpt>
      <trkpt lat="47.445804" lon="7.735171">
        <ele>378.773304</ele>
        <time>2021-11-14T23:20:51.383Z</time>
      </trkpt>
      <trkpt lat="47.446093" lon="7.735404">
        <ele>378.061891</ele>
        <time>2021-11-14T23:20:54.920Z</time>
      </trkpt>
      <trkpt lat="47.446470" lon="7.735676">
        <ele>377.155282</ele>
        <time>2021-11-14T23:20:59.463Z</time>
      </trkpt>
      <trkpt lat="47.447048" lon="7.735793">
        <ele>375.943547</ele>
        <time>2021-11-14T23:21:05.937Z</time>
      </trkpt>
      <trkpt lat="47.447629" lon="7.735983">
        <ele>374.860153</ele>
        <time>2021-11-14T23:21:12.514Z</time>
      </trkpt>
      <trkpt lat="47.447927" lon="7.736077">
        <ele>374.305374</ele>
        <time>2021-11-14T23:21:15.891Z</time>
      </trkpt>
      <trkpt lat="47.448235" lon="7.736115">
        <ele>373.742646</ele>
        <time>2021-11-14T23:21:19.407Z</time>
      </trkpt>
      <trkpt lat="47.448379" lon="7.736094">
        <ele>373.479191</ele>
        <time>2021-11-14T23:21:20.952Z</time>
      </trkpt>
      <trkpt lat="47.448554" lon="7.736059">
        <ele>373.157665</ele>
        <time>2021-11-14T23:21:23.036Z</time>
      </trkpt>
      <trkpt lat="47.448658" lon="7.736045">
        <ele>372.967528</ele>
        <time>2021-11-14T23:21:24.132Z</time>
      </trkpt>
      <trkpt lat="47.448771" lon="7.736054">
        <ele>372.787399</ele>
        <time>2021-11-14T23:21:25.417Z</time>
      </trkpt>
      <trkpt lat="47.448896" lon="7.736079">
        <ele>372.592766</ele>
        <time>2021-11-14T23:21:26.921Z</time>
      </trkpt>
      <trkpt lat="47.449072" lon="7.736131">
        <ele>372.315829</ele>
        <time>2021-11-14T23:21:28.867Z</time>
      </trkpt>
      <trkpt lat="47.449300" lon="7.736166">
        <ele>371.962131</ele>
        <time>2021-11-14T23:21:31.679Z</time>
      </trkpt>
      <trkpt lat="47.449358" lon="7.736158">
        <ele>371.872248</ele>
        <time>2021-11-14T23:21:32.292Z</time>
      </trkpt>
      <trkpt lat="47.449411" lon="7.736143">
        <ele>371.788984</ele>
        <time>2021-11-14T23:21:32.870Z</time>
      </trkpt>
      <trkpt lat="47.449636" lon="7.736014">
        <ele>371.416626</ele>
        <time>2021-11-14T23:21:35.843Z</time>
      </trkpt>
      <trkpt lat="47.449876" lon="7.735764">
        <ele>370.963650</ele>
        <time>2021-11-14T23:21:39.189Z</time>
      </trkpt>
      <trkpt lat="47.449999" lon="7.735674">
        <ele>370.751896</ele>
        <time>2021-11-14T23:21:40.706Z</time>
      </trkpt>
      <trkpt lat="47.450032" lon="7.735659">
        <ele>370.698626</ele>
        <time>2021-11-14T23:21:41.078Z</time>
      </trkpt>
      <trkpt lat="47.450096" lon="7.735633">
        <ele>370.596214</ele>
        <time>2021-11-14T23:21:41.818Z</time>
      </trkpt>
      <trkpt lat="47.450162" lon="7.735630">
        <ele>370.494327</ele>
        <time>2021-11-14T23:21:42.623Z</time>
      </trkpt>
      <trkpt lat="47.450235" lon="7.735644">
        <ele>370.380744</ele>
        <time>2021-11-14T23:21:43.487Z</time>
      </trkpt>
      <trkpt lat="47.450479" lon="7.735840">
        <ele>369.983429</ele>
        <time>2021-11-14T23:21:46.645Z</time>
      </trkpt>
      <trkpt lat="47.450546" lon="7.735968">
        <ele>369.840348</ele>
        <time>2021-11-14T23:21:47.971Z</time>
      </trkpt>
      <trkpt lat="47.450604" lon="7.736062">
        <ele>369.727866</ele>
        <time>2021-11-14T23:21:48.952Z</time>
      </trkpt>
      <trkpt lat="47.450657" lon="7.736137">
        <ele>369.631976</ele>
        <time>2021-11-14T23:21:49.765Z</time>
      </trkpt>
      <trkpt lat="47.450802" lon="7.736283">
        <ele>369.402670</ele>
        <time>2021-11-14T23:21:51.864Z</time>
      </trkpt>
      <trkpt lat="47.450937" lon="7.736418">
        <ele>369.189641</ele>
        <time>2021-11-14T23:21:53.921Z</time>
      </trkpt>
      <trkpt lat="47.451089" lon="7.736610">
        <ele>368.928333</ele>
        <time>2021-11-14T23:21:56.276Z</time>
      </trkpt>
      <trkpt lat="47.451187" lon="7.736763">
        <ele>368.742051</ele>
        <time>2021-11-14T23:21:58.042Z</time>
      </trkpt>
      <trkpt lat="47.451252" lon="7.736833">
        <ele>368.636942</ele>
        <time>2021-11-14T23:21:58.960Z</time>
      </trkpt>
      <trkpt lat="47.451333" lon="7.736889">
        <ele>368.520061</ele>
        <time>2021-11-14T23:22:00.004Z</time>
      </trkpt>
      <trkpt lat="47.451595" lon="7.736972">
        <ele>368.169810</ele>
        <time>2021-11-14T23:22:03.208Z</time>
      </trkpt>
      <trkpt lat="47.451812" lon="7.737022">
        <ele>367.882730</ele>
        <time>2021-11-14T23:22:05.800Z</time>
      </trkpt>
      <trkpt lat="47.451885" lon="7.737043">
        <ele>367.780820</ele>
        <time>2021-11-14T23:22:06.695Z</time>
      </trkpt>
      <trkpt lat="47.452015" lon="7.736899">
        <ele>367.517008</ele>
        <time>2021-11-14T23:22:08.518Z</time>
      </trkpt>
      <trkpt lat="47.452271" lon="7.736620">
        <ele>367.000496</ele>
        <time>2021-11-14T23:22:12.210Z</time>
      </trkpt>
      <trkpt lat="47.452433" lon="7.736548">
        <ele>366.725748</ele>
        <time>2021-11-14T23:22:14.166Z</time>
      </trkpt>
      <trkpt lat="47.452718" lon="7.736396">
        <ele>366.233664</ele>
        <time>2021-11-14T23:22:17.587Z</time>
      </trkpt>
      <trkpt lat="47.453006" lon="7.736239">
        <ele>365.735122</ele>
        <time>2021-11-14T23:22:21.060Z</time>
      </trkpt>
      <trkpt lat="47.453622" lon="7.735950">
        <ele>364.671639</ele>
        <time>2021-11-14T23:22:28.244Z</time>
      </trkpt>
      <trkpt lat="47.453883" lon="7.735834">
        <ele>364.198079</ele>
        <time>2021-11-14T23:22:31.245Z</time>
      </trkpt>
      <trkpt lat="47.454308" lon="7.735755">
        <ele>363.453774</ele>
        <time>2021-11-14T23:22:35.980Z</time>
      </trkpt>
      <trkpt lat="47.454885" lon="7.735630">
        <ele>362.440460</ele>
        <time>2021-11-14T23:22:42.535Z</time>
      </trkpt>
      <trkpt lat="47.455429" lon="7.735582">
        <ele>361.511089</ele>
        <time>2021-11-14T23:22:48.898Z</time>
      </trkpt>
      <trkpt lat="47.455549" lon="7.735588">
        <ele>361.316316</ele>
        <time>2021-11-14T23:22:50.307Z</time>
      </trkpt>
      <trkpt lat="47.455615" lon="7.735594">
        <ele>361.209050</ele>
        <time>2021-11-14T23:22:51.120Z</time>
      </trkpt>
      <trkpt lat="47.456176" lon="7.735679">
        <ele>360.294244</ele>
        <time>2021-11-14T23:22:57.524Z</time>
      </trkpt>
      <trkpt lat="47.456690" lon="7.735740">
        <ele>359.457763</ele>
        <time>2021-11-14T23:23:03.321Z</time>
      </trkpt>
      <trkpt lat="47.457063" lon="7.735820">
        <ele>358.846361</ele>
        <time>2021-11-14T23:23:07.575Z</time>
      </trkpt>
      <trkpt lat="47.457484" lon="7.735879">
        <ele>358.054523</ele>
        <time>2021-11-14T23:23:12.295Z</time>
      </trkpt>
      <trkpt lat="47.457758" lon="7.735918">
        <ele>357.538495</ele>
        <time>2021-11-14T23:23:15.337Z</time>
      </trkpt>
      <trkpt lat="47.457799" lon="7.735179">
        <ele>356.598652</ele>
        <time>2021-11-14T23:23:20.918Z</time>
      </trkpt>
      <trkpt lat="47.458298" lon="7.735177">
        <ele>355.663195</ele>
        <time>2021-11-14T23:23:26.313Z</time>
      </trkpt>
      <trkpt lat="47.458729" lon="7.735136">
        <ele>355.007975</ele>
        <time>2021-11-14T23:23:31.166Z</time>
      </trkpt>
      <trkpt lat="47.459171" lon="7.734384">
        <ele>354.062131</ele>
        <time>2021-11-14T23:23:39.224Z</time>
      </trkpt>
      <trkpt lat="47.459314" lon="7.734184">
        <ele>353.785820</ele>
        <time>2021-11-14T23:23:41.545Z</time>
      </trkpt>
      <trkpt lat="47.459335" lon="7.734155">
        <ele>353.745483</ele>
        <time>2021-11-14T23:23:41.880Z</time>
      </trkpt>
      <trkpt lat="47.459375" lon="7.734098">
        <ele>353.667502</ele>
        <time>2021-11-14T23:23:42.538Z</time>
      </trkpt>
      <trkpt lat="47.459533" lon="7.733882">
        <ele>353.365435</ele>
        <time>2021-11-14T23:23:45.109Z</time>
      </trkpt>
      <trkpt lat="47.459872" lon="7.733477">
        <ele>352.704151</ele>
        <time>2021-11-14T23:23:50.218Z</time>
      </trkpt>
      <trkpt lat="47.460742" lon="7.733028">
        <ele>351.073153</ele>
        <time>2021-11-14T23:24:00.780Z</time>
      </trkpt>
      <trkpt lat="47.461241" lon="7.732810">
        <ele>350.152175</ele>
        <time>2021-11-14T23:24:06.479Z</time>
      </trkpt>
      <trkpt lat="47.461727" lon="7.732633">
        <ele>349.084759</ele>
        <time>2021-11-14T23:24:11.857Z</time>
      </trkpt>
      <trkpt lat="47.462549" lon="7.732636">
        <ele>347.094659</ele>
        <time>2021-11-14T23:24:20.534Z</time>
      </trkpt>
      <trkpt lat="47.463439" lon="7.732609">
        <ele>345.024598</ele>
        <time>2021-11-14T23:24:29.959Z</time>
      </trkpt>
      <trkpt lat="47.464097" lon="7.732716">
        <ele>343.714926</ele>
        <time>2021-11-14T23:24:37.087Z</time>
      </trkpt>
      <trkpt lat="47.465398" lon="7.732895">
        <ele>341.442520</ele>
        <time>2021-11-14T23:24:51.790Z</time>
      </trkpt>
      <trkpt lat="47.466451" lon="7.733067">
        <ele>340.260964</ele>
        <time>2021-11-14T23:25:04.404Z</time>
      </trkpt>
      <trkpt lat="47.467031" lon="7.733067">
        <ele>339.818592</ele>
        <time>2021-11-14T23:25:12.021Z</time>
      </trkpt>
      <trkpt lat="47.468111" lon="7.733543">
        <ele>339.696936</ele>
        <time>2021-11-14T23:25:29.099Z</time>
      </trkpt>
      <trkpt lat="47.468168" lon="7.733547">
        <ele>339.690775</ele>
        <time>2021-11-14T23:25:29.682Z</time>
      </trkpt>
      <trkpt lat="47.468229" lon="7.733497">
        <ele>339.683247</ele>
        <time>2021-11-14T23:25:31.454Z</time>
      </trkpt>
      <trkpt lat="47.468421" lon="7.733200">
        <ele>339.653257</ele>
        <time>2021-11-14T23:25:35.004Z</time>
      </trkpt>
      <trkpt lat="47.468562" lon="7.733196">
        <ele>339.630395</ele>
        <time>2021-11-14T23:25:37.452Z</time>
      </trkpt>
      <trkpt lat="47.468620" lon="7.733218">
        <ele>339.617986</ele>
        <time>2021-11-14T23:25:39.115Z</time>
      </trkpt>
      <trkpt lat="47.468845" lon="7.733471">
        <ele>339.559413</ele>
        <time>2021-11-14T23:25:42.775Z</time>
      </trkpt>
      <trkpt lat="47.469087" lon="7.733776">
        <ele>339.493526</ele>
        <time>2021-11-14T23:25:47.746Z</time>
      </trkpt>
      <trkpt lat="47.469170" lon="7.733878">
        <ele>339.471163</ele>
        <time>2021-11-14T23:25:49.791Z</time>
      </trkpt>
      <trkpt lat="47.469549" lon="7.734424">
        <ele>339.361524</ele>
        <time>2021-11-14T23:25:57.349Z</time>
      </trkpt>
      <trkpt lat="47.470937" lon="7.735790">
        <ele>338.230002</ele>
        <time>2021-11-14T23:26:18.127Z</time>
      </trkpt>
      <trkpt lat="47.471007" lon="7.735877">
        <ele>338.153227</ele>
        <time>2021-11-14T23:26:19.343Z</time>
      </trkpt>
      <trkpt lat="47.471084" lon="7.736004">
        <ele>338.056386</ele>
        <time>2021-11-14T23:26:20.686Z</time>
      </trkpt>
      <trkpt lat="47.471200" lon="7.736140">
        <ele>337.932093</ele>
        <time>2021-11-14T23:26:22.655Z</time>
      </trkpt>
      <trkpt lat="47.471461" lon="7.736291">
        <ele>337.730007</ele>
        <time>2021-11-14T23:26:26.103Z</time>
      </trkpt>
      <trkpt lat="47.471811" lon="7.736488">
        <ele>337.573043</ele>
        <time>2021-11-14T23:26:30.721Z</time>
      </trkpt>
      <trkpt lat="47.473022" lon="7.737442">
        <ele>337.008547</ele>
        <time>2021-11-14T23:26:49.187Z</time>
      </trkpt>
      <trkpt lat="47.473306" lon="7.737636">
        <ele>337.000539</ele>
        <time>2021-11-14T23:26:54.420Z</time>
      </trkpt>
      <trkpt lat="47.473508" lon="7.737670">
        <ele>336.995335</ele>
        <time>2021-11-14T23:26:58.510Z</time>
      </trkpt>
      <trkpt lat="47.474657" lon="7.737686">
        <ele>336.965923</ele>
        <time>2021-11-14T23:27:16.398Z</time>
      </trkpt>
      <trkpt lat="47.474872" lon="7.737661">
        <ele>336.737752</ele>
        <time>2021-11-14T23:27:18.901Z</time>
      </trkpt>
      <trkpt lat="47.475220" lon="7.737599">
        <ele>336.013278</ele>
        <time>2021-11-14T23:27:22.989Z</time>
      </trkpt>
      <trkpt lat="47.475400" lon="7.737565">
        <ele>335.638218</ele>
        <time>2021-11-14T23:27:25.156Z</time>
      </trkpt>
      <trkpt lat="47.475490" lon="7.737890">
        <ele>335.147556</ele>
        <time>2021-11-14T23:27:28.799Z</time>
      </trkpt>
      <trkpt lat="47.475697" lon="7.738335">
        <ele>334.392883</ele>
        <time>2021-11-14T23:27:34.461Z</time>
      </trkpt>
      <trkpt lat="47.475811" lon="7.738591">
        <ele>333.964604</ele>
        <time>2021-11-14T23:27:37.617Z</time>
      </trkpt>
      <trkpt lat="47.476310" lon="7.738873">
        <ele>332.780214</ele>
        <time>2021-11-14T23:27:45.389Z</time>
      </trkpt>
      <trkpt lat="47.476800" lon="7.739141">
        <ele>331.475181</ele>
        <time>2021-11-14T23:27:52.803Z</time>
      </trkpt>
      <trkpt lat="47.477232" lon="7.739342">
        <ele>330.343895</ele>
        <time>2021-11-14T23:27:59.792Z</time>
      </trkpt>
      <trkpt lat="47.477544" lon="7.739487">
        <ele>329.526940</ele>
        <time>2021-11-14T23:28:05.153Z</time>
      </trkpt>
      <trkpt lat="47.478433" lon="7.739902">
        <ele>327.666718</ele>
        <time>2021-11-14T23:28:20.223Z</time>
      </trkpt>
      <trkpt lat="47.478734" lon="7.740055">
        <ele>327.111324</ele>
        <time>2021-11-14T23:28:25.161Z</time>
      </trkpt>
      <trkpt lat="47.478886" lon="7.740171">
        <ele>326.812871</ele>
        <time>2021-11-14T23:28:27.837Z</time>
      </trkpt>
      <trkpt lat="47.478976" lon="7.740230">
        <ele>326.641091</ele>
        <time>2021-11-14T23:28:28.980Z</time>
      </trkpt>
      <trkpt lat="47.479094" lon="7.740332">
        <ele>326.402609</ele>
        <time>2021-11-14T23:28:30.450Z</time>
      </trkpt>
      <trkpt lat="47.479203" lon="7.740474">
        <ele>326.149175</ele>
        <time>2021-11-14T23:28:32.221Z</time>
      </trkpt>
      <trkpt lat="47.479320" lon="7.740624">
        <ele>325.879021</ele>
        <time>2021-11-14T23:28:33.976Z</time>
      </trkpt>
      <trkpt lat="47.479429" lon="7.740787">
        <ele>325.608378</ele>
        <time>2021-11-14T23:28:35.889Z</time>
      </trkpt>
      <trkpt lat="47.479786" lon="7.741328">
        <ele>324.680965</ele>
        <time>2021-11-14T23:28:41.781Z</time>
      </trkpt>
      <trkpt lat="47.479843" lon="7.741440">
        <ele>324.508998</ele>
        <time>2021-11-14T23:28:42.732Z</time>
      </trkpt>
      <trkpt lat="47.479963" lon="7.741350">
        <ele>324.264838</ele>
        <time>2021-11-14T23:28:44.244Z</time>
      </trkpt>
      <trkpt lat="47.480104" lon="7.741241">
        <ele>323.976126</ele>
        <time>2021-11-14T23:28:46.022Z</time>
      </trkpt>
      <trkpt lat="47.480104" lon="7.741241">
        <ele>323.976126</ele>
        <time>2021-11-14T23:28:46.043Z</time>
      </trkpt>
      <trkpt lat="47.480294" lon="7.741119">
        <ele>323.600238</ele>
        <time>2021-11-14T23:28:48.272Z</time>
      </trkpt>
      <trkpt lat="47.480539" lon="7.740961">
        <ele>323.115206</ele>
        <time>2021-11-14T23:28:51.123Z</time>
      </trkpt>
      <trkpt lat="47.480591" lon="7.740959">
        <ele>323.020803</ele>
        <time>2021-11-14T23:28:51.778Z</time>
      </trkpt>
      <trkpt lat="47.480603" lon="7.740901">
        <ele>322.946405</ele>
        <time>2021-11-14T23:28:52.530Z</time>
      </trkpt>
      <trkpt lat="47.480662" lon="7.740802">
        <ele>322.784511</ele>
        <time>2021-11-14T23:28:53.570Z</time>
      </trkpt>
      <trkpt lat="47.480603" lon="7.740901">
        <ele>322.622617</ele>
        <time>2021-11-14T23:28:54.548Z</time>
      </trkpt>
      <trkpt lat="47.480591" lon="7.740959">
        <ele>322.548219</ele>
        <time>2021-11-14T23:28:54.947Z</time>
      </trkpt>
      <trkpt lat="47.480648" lon="7.741012">
        <ele>322.426044</ele>
        <time>2021-11-14T23:28:55.633Z</time>
      </trkpt>
      <trkpt lat="47.481177" lon="7.741735">
        <ele>321.257497</ele>
        <time>2021-11-14T23:29:03.909Z</time>
      </trkpt>
      <trkpt lat="47.481497" lon="7.741271">
        <ele>320.535845</ele>
        <time>2021-11-14T23:29:09.072Z</time>
      </trkpt>
      <trkpt lat="47.482040" lon="7.741957">
        <ele>319.396239</ele>
        <time>2021-11-14T23:29:17.061Z</time>
      </trkpt>
      <trkpt lat="47.482599" lon="7.742771">
        <ele>318.330945</ele>
        <time>2021-11-14T23:29:26.356Z</time>
      </trkpt>
      <trkpt lat="47.482639" lon="7.742728">
        <ele>318.263789</ele>
        <time>2021-11-14T23:29:27.038Z</time>
      </trkpt>
      <trkpt lat="47.482889" lon="7.742461">
        <ele>317.845005</ele>
        <time>2021-11-14T23:29:30.508Z</time>
      </trkpt>
      <trkpt lat="47.482927" lon="7.742421">
        <ele>317.781662</ele>
        <time>2021-11-14T23:29:31.169Z</time>
      </trkpt>
      <trkpt lat="47.483275" lon="7.742050">
        <ele>317.199072</ele>
        <time>2021-11-14T23:29:36.105Z</time>
      </trkpt>
      <trkpt lat="47.483828" lon="7.741475">
        <ele>316.645090</ele>
        <time>2021-11-14T23:29:44.267Z</time>
      </trkpt>
      <trkpt lat="47.483946" lon="7.741362">
        <ele>316.549618</ele>
        <time>2021-11-14T23:29:46.009Z</time>
      </trkpt>
      <trkpt lat="47.484154" lon="7.741142">
        <ele>316.375951</ele>
        <time>2021-11-14T23:29:49.221Z</time>
      </trkpt>
      <trkpt lat="47.484268" lon="7.741010">
        <ele>316.277627</ele>
        <time>2021-11-14T23:29:50.977Z</time>
      </trkpt>
      <trkpt lat="47.484365" lon="7.740878">
        <ele>316.188114</ele>
        <time>2021-11-14T23:29:52.555Z</time>
      </trkpt>
      <trkpt lat="47.484807" lon="7.739866">
        <ele>315.741320</ele>
        <time>2021-11-14T23:30:04.397Z</time>
      </trkpt>
      <trkpt lat="47.484997" lon="7.738871">
        <ele>315.597542</ele>
        <time>2021-11-14T23:30:15.950Z</time>
      </trkpt>
      <trkpt lat="47.485014" lon="7.738715">
        <ele>315.575569</ele>
        <time>2021-11-14T23:30:17.488Z</time>
      </trkpt>
      <trkpt lat="47.485032" lon="7.738535">
        <ele>315.550267</ele>
        <time>2021-11-14T23:30:19.441Z</time>
      </trkpt>
      <trkpt lat="47.485045" lon="7.738427">
        <ele>315.535013</ele>
        <time>2021-11-14T23:30:20.325Z</time>
      </trkpt>
      <trkpt lat="47.485067" lon="7.738278">
        <ele>315.513805</ele>
        <time>2021-11-14T23:30:21.777Z</time>
      </trkpt>
      <trkpt lat="47.485088" lon="7.738190">
        <ele>315.500827</ele>
        <time>2021-11-14T23:30:22.523Z</time>
      </trkpt>
      <trkpt lat="47.485121" lon="7.738124">
        <ele>315.489411</ele>
        <time>2021-11-14T23:30:23.527Z</time>
      </trkpt>
      <trkpt lat="47.485202" lon="7.737978">
        <ele>315.463143</ele>
        <time>2021-11-14T23:30:25.099Z</time>
      </trkpt>
      <trkpt lat="47.485384" lon="7.737678">
        <ele>315.364758</ele>
        <time>2021-11-14T23:30:28.490Z</time>
      </trkpt>
      <trkpt lat="47.485631" lon="7.737265">
        <ele>314.974077</ele>
        <time>2021-11-14T23:30:32.963Z</time>
      </trkpt>
      <trkpt lat="47.485696" lon="7.737158">
        <ele>314.872157</ele>
        <time>2021-11-14T23:30:34.138Z</time>
      </trkpt>
      <trkpt lat="47.485750" lon="7.737070">
        <ele>314.787954</ele>
        <time>2021-11-14T23:30:35.103Z</time>
      </trkpt>
      <trkpt lat="47.485806" lon="7.737111">
        <ele>314.722460</ele>
        <time>2021-11-14T23:30:35.791Z</time>
      </trkpt>
      <trkpt lat="47.485875" lon="7.737156">
        <ele>314.643418</ele>
        <time>2021-11-14T23:30:37.073Z</time>
      </trkpt>
      <trkpt lat="47.485976" lon="7.737217">
        <ele>314.529066</ele>
        <time>2021-11-14T23:30:38.367Z</time>
      </trkpt>
      <trkpt lat="47.486045" lon="7.737286">
        <ele>314.441770</ele>
        <time>2021-11-14T23:30:39.467Z</time>
      </trkpt>
      <trkpt lat="47.486087" lon="7.737329">
        <ele>314.388233</ele>
        <time>2021-11-14T23:30:40.000Z</time>
      </trkpt>
      <trkpt lat="47.486287" lon="7.737642">
        <ele>314.083088</ele>
        <time>2021-11-14T23:30:43.515Z</time>
      </trkpt>
      <trkpt lat="47.486314" lon="7.737686">
        <ele>314.040987</ele>
        <time>2021-11-14T23:30:43.917Z</time>
      </trkpt>
      <trkpt lat="47.486354" lon="7.737753">
        <ele>313.977657</ele>
        <time>2021-11-14T23:30:44.539Z</time>
      </trkpt>
      <trkpt lat="47.486384" lon="7.737805">
        <ele>313.929224</ele>
        <time>2021-11-14T23:30:45.181Z</time>
      </trkpt>
      <trkpt lat="47.486495" lon="7.737981">
        <ele>313.758689</ele>
        <time>2021-11-14T23:30:47.327Z</time>
      </trkpt>
      <trkpt lat="47.486621" lon="7.738169">
        <ele>313.571125</ele>
        <time>2021-11-14T23:30:49.355Z</time>
      </trkpt>
      <trkpt lat="47.486676" lon="7.738293">
        <ele>313.527307</ele>
        <time>2021-11-14T23:30:50.895Z</time>
      </trkpt>
      <trkpt lat="47.486689" lon="7.738358">
        <ele>313.523896</ele>
        <time>2021-11-14T23:30:51.428Z</time>
      </trkpt>
      <trkpt lat="47.486827" lon="7.738319">
        <ele>313.513434</ele>
        <time>2021-11-14T23:30:53.064Z</time>
      </trkpt>
      <trkpt lat="47.487288" lon="7.738117">
        <ele>313.477631</ele>
        <time>2021-11-14T23:30:59.361Z</time>
      </trkpt>
      <trkpt lat="47.487552" lon="7.737858">
        <ele>313.454044</ele>
        <time>2021-11-14T23:31:04.364Z</time>
      </trkpt>
      <trkpt lat="47.487621" lon="7.737779">
        <ele>313.447547</ele>
        <time>2021-11-14T23:31:06.003Z</time>
      </trkpt>
      <trkpt lat="47.487864" lon="7.737500">
        <ele>313.424644</ele>
        <time>2021-11-14T23:31:11.546Z</time>
      </trkpt>
      <trkpt lat="47.488046" lon="7.737266">
        <ele>313.406690</ele>
        <time>2021-11-14T23:31:16.042Z</time>
      </trkpt>
      <trkpt lat="47.488606" lon="7.735964">
        <ele>312.885009</ele>
        <time>2021-11-14T23:31:31.660Z</time>
      </trkpt>
      <trkpt lat="47.488804" lon="7.735382">
        <ele>312.641298</ele>
        <time>2021-11-14T23:31:37.053Z</time>
      </trkpt>
      <trkpt lat="47.488949" lon="7.734979">
        <ele>312.470533</ele>
        <time>2021-11-14T23:31:40.697Z</time>
      </trkpt>
      <trkpt lat="47.489032" lon="7.734791">
        <ele>312.351327</ele>
        <time>2021-11-14T23:31:42.390Z</time>
      </trkpt>
      <trkpt lat="47.489918" lon="7.732395">
        <ele>309.102174</ele>
        <time>2021-11-14T23:32:02.867Z</time>
      </trkpt>
      <trkpt lat="47.489972" lon="7.732312">
        <ele>308.991002</ele>
        <time>2021-11-14T23:32:03.685Z</time>
      </trkpt>
      <trkpt lat="47.491123" lon="7.730521">
        <ele>306.611577</ele>
        <time>2021-11-14T23:32:23.281Z</time>
      </trkpt>
      <trkpt lat="47.491189" lon="7.730425">
        <ele>306.499422</ele>
        <time>2021-11-14T23:32:24.373Z</time>
      </trkpt>
      <trkpt lat="47.491229" lon="7.730369">
        <ele>306.432689</ele>
        <time>2021-11-14T23:32:25.058Z</time>
      </trkpt>
      <trkpt lat="47.491274" lon="7.730304">
        <ele>306.356480</ele>
        <time>2021-11-14T23:32:25.831Z</time>
      </trkpt>
      <trkpt lat="47.491352" lon="7.730195">
        <ele>306.226464</ele>
        <time>2021-11-14T23:32:27.149Z</time>
      </trkpt>
      <trkpt lat="47.491749" lon="7.729641">
        <ele>305.565159</ele>
        <time>2021-11-14T23:32:33.591Z</time>
      </trkpt>
      <trkpt lat="47.491764" lon="7.729620">
        <ele>305.540134</ele>
        <time>2021-11-14T23:32:33.834Z</time>
      </trkpt>
      <trkpt lat="47.492018" lon="7.729265">
        <ele>305.116723</ele>
        <time>2021-11-14T23:32:37.963Z</time>
      </trkpt>
      <trkpt lat="47.492160" lon="7.729079">
        <ele>304.886901</ele>
        <time>2021-11-14T23:32:40.166Z</time>
      </trkpt>
      <trkpt lat="47.492253" lon="7.728955">
        <ele>304.735194</ele>
        <time>2021-11-14T23:32:41.626Z</time>
      </trkpt>
      <trkpt lat="47.492640" lon="7.728394">
        <ele>304.205159</ele>
        <time>2021-11-14T23:32:48.238Z</time>
      </trkpt>
      <trkpt lat="47.493051" lon="7.727844">
        <ele>303.755105</ele>
        <time>2021-11-14T23:32:55.103Z</time>
      </trkpt>
      <trkpt lat="47.493304" lon="7.727627">
        <ele>303.517597</ele>
        <time>2021-11-14T23:32:58.675Z</time>
      </trkpt>
      <trkpt lat="47.493736" lon="7.727441">
        <ele>303.152170</ele>
        <time>2021-11-14T23:33:04.471Z</time>
      </trkpt>
      <trkpt lat="47.493928" lon="7.727382">
        <ele>302.997604</ele>
        <time>2021-11-14T23:33:07.051Z</time>
      </trkpt>
      <trkpt lat="47.495388" lon="7.727405">
        <ele>302.476532</ele>
        <time>2021-11-14T23:33:27.610Z</time>
      </trkpt>
      <trkpt lat="47.495736" lon="7.727409">
        <ele>302.346119</ele>
        <time>2021-11-14T23:33:32.216Z</time>
      </trkpt>
      <trkpt lat="47.495777" lon="7.727410">
        <ele>302.318606</ele>
        <time>2021-11-14T23:33:32.767Z</time>
      </trkpt>
      <trkpt lat="47.495921" lon="7.727411">
        <ele>302.221986</ele>
        <time>2021-11-14T23:33:34.620Z</time>
      </trkpt>
      <trkpt lat="47.496039" lon="7.727411">
        <ele>302.142812</ele>
        <time>2021-11-14T23:33:36.145Z</time>
      </trkpt>
      <trkpt lat="47.496162" lon="7.727414">
        <ele>302.060272</ele>
        <time>2021-11-14T23:33:37.742Z</time>
      </trkpt>
      <trkpt lat="47.496367" lon="7.727420">
        <ele>301.922698</ele>
        <time>2021-11-14T23:33:40.334Z</time>
      </trkpt>
      <trkpt lat="47.496689" lon="7.727441">
        <ele>301.706438</ele>
        <time>2021-11-14T23:33:44.387Z</time>
      </trkpt>
      <trkpt lat="47.498171" lon="7.727736">
        <ele>300.818483</ele>
        <time>2021-11-14T23:34:03.493Z</time>
      </trkpt>
      <trkpt lat="47.499222" lon="7.727694">
        <ele>300.294116</ele>
        <time>2021-11-14T23:34:17.855Z</time>
      </trkpt>
      <trkpt lat="47.500808" lon="7.727366">
        <ele>299.525807</ele>
        <time>2021-11-14T23:34:39.422Z</time>
      </trkpt>
      <trkpt lat="47.501683" lon="7.727114">
        <ele>298.362111</ele>
        <time>2021-11-14T23:34:51.025Z</time>
      </trkpt>
      <trkpt lat="47.502070" lon="7.727002">
        <ele>297.702188</ele>
        <time>2021-11-14T23:34:55.275Z</time>
      </trkpt>
      <trkpt lat="47.502089" lon="7.726997">
        <ele>297.669892</ele>
        <time>2021-11-14T23:34:55.457Z</time>
      </trkpt>
      <trkpt lat="47.502204" lon="7.726964">
        <ele>297.473852</ele>
        <time>2021-11-14T23:34:56.601Z</time>
      </trkpt>
      <trkpt lat="47.502370" lon="7.726942">
        <ele>297.194932</ele>
        <time>2021-11-14T23:34:58.739Z</time>
      </trkpt>
      <trkpt lat="47.502557" lon="7.726941">
        <ele>296.881978</ele>
        <time>2021-11-14T23:35:00.588Z</time>
      </trkpt>
      <trkpt lat="47.502785" lon="7.727007">
        <ele>296.493182</ele>
        <time>2021-11-14T23:35:03.422Z</time>
      </trkpt>
      <trkpt lat="47.502799" lon="7.726911">
        <ele>296.382272</ele>
        <time>2021-11-14T23:35:08.056Z</time>
      </trkpt>
      <trkpt lat="47.502702" lon="7.726704">
        <ele>296.114667</ele>
        <time>2021-11-14T23:35:19.912Z</time>
      </trkpt>
      <trkpt lat="47.502679" lon="7.726592">
        <ele>295.990320</ele>
        <time>2021-11-14T23:35:25.388Z</time>
      </trkpt>
      <trkpt lat="47.502648" lon="7.726280">
        <ele>295.655334</ele>
        <time>2021-11-14T23:35:40.204Z</time>
      </trkpt>
      <trkpt lat="47.502625" lon="7.726282">
        <ele>295.619106</ele>
        <time>2021-11-14T23:35:41.776Z</time>
      </trkpt>
      <trkpt lat="47.502192" lon="7.726362">
        <ele>294.932973</ele>
        <time>2021-11-14T23:36:12.120Z</time>
      </trkpt>
      <trkpt lat="47.502182" lon="7.726363">
        <ele>294.917213</ele>
        <time>2021-11-14T23:36:12.807Z</time>
      </trkpt>
      <trkpt lat="47.502192" lon="7.726362">
        <ele>294.901454</ele>
        <time>2021-11-14T23:36:13.496Z</time>
      </trkpt>
      <trkpt lat="47.502625" lon="7.726282">
        <ele>294.215320</ele>
        <time>2021-11-14T23:36:43.841Z</time>
      </trkpt>
      <trkpt lat="47.502648" lon="7.726280">
        <ele>294.179093</ele>
        <time>2021-11-14T23:36:45.416Z</time>
      </trkpt>
      <trkpt lat="47.502619" lon="7.725752">
        <ele>293.616376</ele>
        <time>2021-11-14T23:37:10.309Z</time>
      </trkpt>
      <trkpt lat="47.503561" lon="7.725596">
        <ele>293.844574</ele>
        <time>2021-11-14T23:38:58.769Z</time>
      </trkpt>
      <trkpt lat="47.503457" lon="7.724469">
        <ele>294.088374</ele>
        <time>2021-11-14T23:40:26.675Z</time>
      </trkpt>
      <trkpt lat="47.503494" lon="7.724462">
        <ele>294.100209</ele>
        <time>2021-11-14T23:40:27.561Z</time>
      </trkpt>
      <trkpt lat="47.503945" lon="7.724377">
        <ele>293.745031</ele>
        <time>2021-11-14T23:40:36.521Z</time>
      </trkpt>
      <trkpt lat="47.504048" lon="7.724357">
        <ele>293.638223</ele>
        <time>2021-11-14T23:40:38.309Z</time>
      </trkpt>
      <trkpt lat="47.504396" lon="7.724291">
        <ele>293.277495</ele>
        <time>2021-11-14T23:40:44.658Z</time>
      </trkpt>
      <trkpt lat="47.504514" lon="7.724269">
        <ele>293.155212</ele>
        <time>2021-11-14T23:40:46.857Z</time>
      </trkpt>
      <trkpt lat="47.504610" lon="7.724250">
        <ele>293.055629</ele>
        <time>2021-11-14T23:40:48.601Z</time>
      </trkpt>
      <trkpt lat="47.504856" lon="7.724220">
        <ele>292.801843</ele>
        <time>2021-11-14T23:40:52.581Z</time>
      </trkpt>
      <trkpt lat="47.505012" lon="7.724231">
        <ele>292.641266</ele>
        <time>2021-11-14T23:40:55.152Z</time>
      </trkpt>
      <trkpt lat="47.505073" lon="7.724246">
        <ele>292.577688</ele>
        <time>2021-11-14T23:40:56.044Z</time>
      </trkpt>
      <trkpt lat="47.505161" lon="7.724267">
        <ele>292.486041</ele>
        <time>2021-11-14T23:40:57.464Z</time>
      </trkpt>
      <trkpt lat="47.505365" lon="7.724317">
        <ele>292.268962</ele>
        <time>2021-11-14T23:41:00.818Z</time>
      </trkpt>
      <trkpt lat="47.505646" lon="7.724350">
        <ele>291.649253</ele>
        <time>2021-11-14T23:41:05.116Z</time>
      </trkpt>
      <trkpt lat="47.505783" lon="7.724344">
        <ele>291.347932</ele>
        <time>2021-11-14T23:41:07.151Z</time>
      </trkpt>
      <trkpt lat="47.505851" lon="7.724341">
        <ele>291.198370</ele>
        <time>2021-11-14T23:41:08.232Z</time>
      </trkpt>
      <trkpt lat="47.505891" lon="7.724339">
        <ele>291.110382</ele>
        <time>2021-11-14T23:41:08.828Z</time>
      </trkpt>
      <trkpt lat="47.505930" lon="7.724337">
        <ele>291.024590</ele>
        <time>2021-11-14T23:41:09.431Z</time>
      </trkpt>
      <trkpt lat="47.506453" lon="7.724284">
        <ele>289.872104</ele>
        <time>2021-11-14T23:41:17.399Z</time>
      </trkpt>
      <trkpt lat="47.506607" lon="7.724268">
        <ele>289.532708</ele>
        <time>2021-11-14T23:41:19.716Z</time>
      </trkpt>
      <trkpt lat="47.506921" lon="7.724257">
        <ele>288.842197</ele>
        <time>2021-11-14T23:41:24.713Z</time>
      </trkpt>
      <trkpt lat="47.506945" lon="7.724261">
        <ele>288.789101</ele>
        <time>2021-11-14T23:41:25.093Z</time>
      </trkpt>
      <trkpt lat="47.507064" lon="7.724278">
        <ele>288.526268</ele>
        <time>2021-11-14T23:41:26.969Z</time>
      </trkpt>
      <trkpt lat="47.507444" lon="7.724343">
        <ele>287.911196</ele>
        <time>2021-11-14T23:41:33.093Z</time>
      </trkpt>
      <trkpt lat="47.507810" lon="7.724326">
        <ele>287.391283</ele>
        <time>2021-11-14T23:41:39.075Z</time>
      </trkpt>
      <trkpt lat="47.508175" lon="7.724311">
        <ele>286.872847</ele>
        <time>2021-11-14T23:41:45.115Z</time>
      </trkpt>
      <trkpt lat="47.508425" lon="7.724317">
        <ele>286.517843</ele>
        <time>2021-11-14T23:41:49.340Z</time>
      </trkpt>
      <trkpt lat="47.508629" lon="7.724301">
        <ele>286.227792</ele>
        <time>2021-11-14T23:41:52.709Z</time>
      </trkpt>
      <trkpt lat="47.508823" lon="7.724215">
        <ele>285.940262</ele>
        <time>2021-11-14T23:41:55.192Z</time>
      </trkpt>
      <trkpt lat="47.509150" lon="7.724070">
        <ele>285.723723</ele>
        <time>2021-11-14T23:41:59.367Z</time>
      </trkpt>
      <trkpt lat="47.509672" lon="7.723906">
        <ele>285.613519</ele>
        <time>2021-11-14T23:42:06.290Z</time>
      </trkpt>
      <trkpt lat="47.509849" lon="7.723882">
        <ele>285.576813</ele>
        <time>2021-11-14T23:42:09.893Z</time>
      </trkpt>
      <trkpt lat="47.510349" lon="7.724011">
        <ele>285.471998</ele>
        <time>2021-11-14T23:42:20.861Z</time>
      </trkpt>
      <trkpt lat="47.510952" lon="7.724263">
        <ele>285.487396</ele>
        <time>2021-11-14T23:42:34.921Z</time>
      </trkpt>
      <trkpt lat="47.511606" lon="7.724590">
        <ele>285.718057</ele>
        <time>2021-11-14T23:42:47.391Z</time>
      </trkpt>
      <trkpt lat="47.511791" lon="7.724622">
        <ele>285.780295</ele>
        <time>2021-11-14T23:42:50.960Z</time>
      </trkpt>
      <trkpt lat="47.511979" lon="7.724618">
        <ele>285.843122</ele>
        <time>2021-11-14T23:42:54.803Z</time>
      </trkpt>
      <trkpt lat="47.512214" lon="7.724543">
        <ele>285.923451</ele>
        <time>2021-11-14T23:43:00.871Z</time>
      </trkpt>
      <trkpt lat="47.512277" lon="7.724501">
        <ele>285.946539</ele>
        <time>2021-11-14T23:43:01.971Z</time>
      </trkpt>
      <trkpt lat="47.512857" lon="7.723931">
        <ele>286.714390</ele>
        <time>2021-11-14T23:43:22.727Z</time>
      </trkpt>
      <trkpt lat="47.512888" lon="7.724074">
        <ele>286.848947</ele>
        <time>2021-11-14T23:43:24.826Z</time>
      </trkpt>
      <trkpt lat="47.512910" lon="7.724174">
        <ele>286.943174</ele>
        <time>2021-11-14T23:43:26.680Z</time>
      </trkpt>
      <trkpt lat="47.512976" lon="7.724418">
        <ele>287.178662</ele>
        <time>2021-11-14T23:43:30.075Z</time>
      </trkpt>
      <trkpt lat="47.513078" lon="7.724821">
        <ele>287.564243</ele>
        <time>2021-11-14T23:43:35.987Z</time>
      </trkpt>
      <trkpt lat="47.513150" lon="7.725105">
        <ele>287.836023</ele>
        <time>2021-11-14T23:43:38.361Z</time>
      </trkpt>
      <trkpt lat="47.513193" lon="7.725244">
        <ele>287.972999</ele>
        <time>2021-11-14T23:43:41.358Z</time>
      </trkpt>
      <trkpt lat="47.513232" lon="7.725318">
        <ele>288.057093</ele>
        <time>2021-11-14T23:43:42.513Z</time>
      </trkpt>
      <trkpt lat="47.513538" lon="7.725582">
        <ele>288.332433</ele>
        <time>2021-11-14T23:43:49.612Z</time>
      </trkpt>
      <trkpt lat="47.513681" lon="7.725617">
        <ele>288.261573</ele>
        <time>2021-11-14T23:43:51.939Z</time>
      </trkpt>
      <trkpt lat="47.514143" lon="7.725538">
        <ele>288.034204</ele>
        <time>2021-11-14T23:44:01.576Z</time>
      </trkpt>
      <trkpt lat="47.515140" lon="7.725368">
        <ele>287.543560</ele>
        <time>2021-11-14T23:44:13.492Z</time>
      </trkpt>
      <trkpt lat="47.515697" lon="7.725255">
        <ele>286.397222</ele>
        <time>2021-11-14T23:44:19.293Z</time>
      </trkpt>
      <trkpt lat="47.515959" lon="7.725102">
        <ele>285.752701</ele>
        <time>2021-11-14T23:44:22.276Z</time>
      </trkpt>
      <trkpt lat="47.516416" lon="7.724623">
        <ele>284.471363</ele>
        <time>2021-11-14T23:44:28.233Z</time>
      </trkpt>
      <trkpt lat="47.517269" lon="7.723372">
        <ele>282.149436</ele>
        <time>2021-11-14T23:44:41.297Z</time>
      </trkpt>
      <trkpt lat="47.517885" lon="7.722793">
        <ele>280.906378</ele>
        <time>2021-11-14T23:44:49.630Z</time>
      </trkpt>
      <trkpt lat="47.518038" lon="7.722700">
        <ele>280.624607</ele>
        <time>2021-11-14T23:44:51.510Z</time>
      </trkpt>
      <trkpt lat="47.518237" lon="7.722578">
        <ele>280.303480</ele>
        <time>2021-11-14T23:44:54.129Z</time>
      </trkpt>
      <trkpt lat="47.519305" lon="7.722165">
        <ele>279.701339</ele>
        <time>2021-11-14T23:45:07.728Z</time>
      </trkpt>
      <trkpt lat="47.520760" lon="7.721667">
        <ele>281.429605</ele>
        <time>2021-11-14T23:45:31.726Z</time>
      </trkpt>
      <trkpt lat="47.521121" lon="7.721544">
        <ele>282.351475</ele>
        <time>2021-11-14T23:45:41.168Z</time>
      </trkpt>
      <trkpt lat="47.521455" lon="7.721426">
        <ele>283.206006</ele>
        <time>2021-11-14T23:45:52.339Z</time>
      </trkpt>
      <trkpt lat="47.521722" lon="7.721283">
        <ele>284.055478</ele>
        <time>2021-11-14T23:46:01.937Z</time>
      </trkpt>
      <trkpt lat="47.521846" lon="7.721211">
        <ele>284.898657</ele>
        <time>2021-11-14T23:46:08.212Z</time>
      </trkpt>
      <trkpt lat="47.521984" lon="7.721168">
        <ele>285.791404</ele>
        <time>2021-11-14T23:46:12.966Z</time>
      </trkpt>
      <trkpt lat="47.522249" lon="7.721165">
        <ele>287.469048</ele>
        <time>2021-11-14T23:46:25.022Z</time>
      </trkpt>
      <trkpt lat="47.522498" lon="7.721207">
        <ele>289.055547</ele>
        <time>2021-11-14T23:46:35.660Z</time>
      </trkpt>
      <trkpt lat="47.522682" lon="7.721170">
        <ele>290.231058</ele>
        <time>2021-11-14T23:46:43.111Z</time>
      </trkpt>
      <trkpt lat="47.522888" lon="7.721170">
        <ele>291.535150</ele>
        <time>2021-11-14T23:46:52.845Z</time>
      </trkpt>
      <trkpt lat="47.523111" lon="7.721224">
        <ele>292.965612</ele>
        <time>2021-11-14T23:47:01.209Z</time>
      </trkpt>
      <trkpt lat="47.523300" lon="7.721328">
        <ele>294.242019</ele>
        <time>2021-11-14T23:47:10.533Z</time>
      </trkpt>
      <trkpt lat="47.523671" lon="7.721634">
        <ele>296.019244</ele>
        <time>2021-11-14T23:47:26.450Z</time>
      </trkpt>
      <trkpt lat="47.523902" lon="7.721670">
        <ele>296.712526</ele>
        <time>2021-11-14T23:47:35.265Z</time>
      </trkpt>
      <trkpt lat="47.524263" lon="7.721598">
        <ele>297.799743</ele>
        <time>2021-11-14T23:47:46.608Z</time>
      </trkpt>
      <trkpt lat="47.524632" lon="7.721805">
        <ele>298.977485</ele>
        <time>2021-11-14T23:47:55.967Z</time>
      </trkpt>
      <trkpt lat="47.524884" lon="7.722022">
        <ele>299.847556</ele>
        <time>2021-11-14T23:48:01.215Z</time>
      </trkpt>
      <trkpt lat="47.525258" lon="7.722384">
        <ele>300.339361</ele>
        <time>2021-11-14T23:48:07.353Z</time>
      </trkpt>
      <trkpt lat="47.525373" lon="7.722545">
        <ele>300.155829</ele>
        <time>2021-11-14T23:48:09.360Z</time>
      </trkpt>
      <trkpt lat="47.526099" lon="7.723563">
        <ele>298.996331</ele>
        <time>2021-11-14T23:48:20.758Z</time>
      </trkpt>
      <trkpt lat="47.526744" lon="7.724750">
        <ele>298.262452</ele>
        <time>2021-11-14T23:48:32.694Z</time>
      </trkpt>
      <trkpt lat="47.526894" lon="7.725042">
        <ele>298.167547</ele>
        <time>2021-11-14T23:48:35.730Z</time>
      </trkpt>
      <trkpt lat="47.527862" lon="7.727114">
        <ele>298.094465</ele>
        <time>2021-11-14T23:49:03.943Z</time>
      </trkpt>
      <trkpt lat="47.528009" lon="7.727429">
        <ele>298.197118</ele>
        <time>2021-11-14T23:49:08.820Z</time>
      </trkpt>
      <trkpt lat="47.528065" lon="7.727556">
        <ele>298.237782</ele>
        <time>2021-11-14T23:49:10.604Z</time>
      </trkpt>
      <trkpt lat="47.528164" lon="7.727824">
        <ele>298.319679</ele>
        <time>2021-11-14T23:49:14.168Z</time>
      </trkpt>
      <trkpt lat="47.528320" lon="7.728136">
        <ele>298.423758</ele>
        <time>2021-11-14T23:49:18.343Z</time>
      </trkpt>
      <trkpt lat="47.528408" lon="7.728307">
        <ele>298.481397</ele>
        <time>2021-11-14T23:49:20.476Z</time>
      </trkpt>
      <trkpt lat="47.528552" lon="7.728411">
        <ele>298.453408</ele>
        <time>2021-11-14T23:49:22.732Z</time>
      </trkpt>
      <trkpt lat="47.528614" lon="7.728431">
        <ele>298.403979</ele>
        <time>2021-11-14T23:49:23.633Z</time>
      </trkpt>
      <trkpt lat="47.528688" lon="7.728441">
        <ele>298.346095</ele>
        <time>2021-11-14T23:49:24.628Z</time>
      </trkpt>
      <trkpt lat="47.528715" lon="7.728334">
        <ele>298.286013</ele>
        <time>2021-11-14T23:49:25.635Z</time>
      </trkpt>
      <trkpt lat="47.528746" lon="7.728265">
        <ele>298.242421</ele>
        <time>2021-11-14T23:49:26.402Z</time>
      </trkpt>
      <trkpt lat="47.528803" lon="7.728159">
        <ele>298.171146</ele>
        <time>2021-11-14T23:49:27.636Z</time>
      </trkpt>
      <trkpt lat="47.528848" lon="7.728118">
        <ele>298.129990</ele>
        <time>2021-11-14T23:49:28.340Z</time>
      </trkpt>
      <trkpt lat="47.528941" lon="7.728048">
        <ele>298.048726</ele>
        <time>2021-11-14T23:49:29.690Z</time>
      </trkpt>
      <trkpt lat="47.528941" lon="7.728048">
        <ele>298.048726</ele>
        <time>2021-11-14T23:49:29.693Z</time>
      </trkpt>
      <trkpt lat="47.528941" lon="7.728048">
        <ele>298.048726</ele>
        <time>2021-11-14T23:49:29.733Z</time>
      </trkpt>
      <trkpt lat="47.529269" lon="7.727844">
        <ele>297.771604</ele>
        <time>2021-11-14T23:49:34.197Z</time>
      </trkpt>
      <trkpt lat="47.529976" lon="7.727410">
        <ele>297.175432</ele>
        <time>2021-11-14T23:49:43.363Z</time>
      </trkpt>
      <trkpt lat="47.530372" lon="7.727161">
        <ele>296.824732</ele>
        <time>2021-11-14T23:49:48.485Z</time>
      </trkpt>
      <trkpt lat="47.530756" lon="7.726844">
        <ele>296.462715</ele>
        <time>2021-11-14T23:49:53.829Z</time>
      </trkpt>
      <trkpt lat="47.531031" lon="7.726569">
        <ele>296.189474</ele>
        <time>2021-11-14T23:49:57.992Z</time>
      </trkpt>
      <trkpt lat="47.531193" lon="7.726888">
        <ele>295.967541</ele>
        <time>2021-11-14T23:50:01.429Z</time>
      </trkpt>
      <trkpt lat="47.531296" lon="7.727089">
        <ele>295.827243</ele>
        <time>2021-11-14T23:50:03.763Z</time>
      </trkpt>
      <trkpt lat="47.531623" lon="7.727725">
        <ele>295.542859</ele>
        <time>2021-11-14T23:50:10.974Z</time>
      </trkpt>
      <trkpt lat="47.531815" lon="7.728165">
        <ele>295.438795</ele>
        <time>2021-11-14T23:50:15.723Z</time>
      </trkpt>
      <trkpt lat="47.531944" lon="7.728603">
        <ele>295.343875</ele>
        <time>2021-11-14T23:50:20.061Z</time>
      </trkpt>
      <trkpt lat="47.532193" lon="7.730459">
        <ele>295.180173</ele>
        <time>2021-11-14T23:50:38.333Z</time>
      </trkpt>
      <trkpt lat="47.532405" lon="7.731493">
        <ele>295.303662</ele>
        <time>2021-11-14T23:50:50.290Z</time>
      </trkpt>
      <trkpt lat="47.532473" lon="7.731703">
        <ele>295.330277</ele>
        <time>2021-11-14T23:50:52.758Z</time>
      </trkpt>
      <trkpt lat="47.532665" lon="7.732105">
        <ele>295.386548</ele>
        <time>2021-11-14T23:50:58.242Z</time>
      </trkpt>
      <trkpt lat="47.532776" lon="7.732283">
        <ele>295.394554</ele>
        <time>2021-11-14T23:51:00.817Z</time>
      </trkpt>
      <trkpt lat="47.532853" lon="7.732416">
        <ele>295.359249</ele>
        <time>2021-11-14T23:51:02.734Z</time>
      </trkpt>
      <trkpt lat="47.532961" lon="7.732599">
        <ele>295.310272</ele>
        <time>2021-11-14T23:51:05.024Z</time>
      </trkpt>
      <trkpt lat="47.533220" lon="7.733022">
        <ele>295.195204</ele>
        <time>2021-11-14T23:51:10.559Z</time>
      </trkpt>
      <trkpt lat="47.533324" lon="7.733190">
        <ele>295.149275</ele>
        <time>2021-11-14T23:51:12.863Z</time>
      </trkpt>
      <trkpt lat="47.533436" lon="7.733399">
        <ele>295.095507</ele>
        <time>2021-11-14T23:51:15.208Z</time>
      </trkpt>
      <trkpt lat="47.533577" lon="7.733712">
        <ele>295.019686</ele>
        <time>2021-11-14T23:51:18.721Z</time>
      </trkpt>
      <trkpt lat="47.533685" lon="7.734026">
        <ele>294.948677</ele>
        <time>2021-11-14T23:51:21.833Z</time>
      </trkpt>
      <trkpt lat="47.533860" lon="7.734479">
        <ele>294.807724</ele>
        <time>2021-11-14T23:51:26.332Z</time>
      </trkpt>
      <trkpt lat="47.534301" lon="7.735625">
        <ele>294.186895</ele>
        <time>2021-11-14T23:51:37.156Z</time>
      </trkpt>
      <trkpt lat="47.534450" lon="7.736026">
        <ele>293.971469</ele>
        <time>2021-11-14T23:51:40.934Z</time>
      </trkpt>
      <trkpt lat="47.534601" lon="7.736450">
        <ele>293.745852</ele>
        <time>2021-11-14T23:51:45.016Z</time>
      </trkpt>
      <trkpt lat="47.534670" lon="7.736644">
        <ele>293.642651</ele>
        <time>2021-11-14T23:51:46.959Z</time>
      </trkpt>
      <trkpt lat="47.534765" lon="7.736911">
        <ele>294.151112</ele>
        <time>2021-11-14T23:51:49.628Z</time>
      </trkpt>
      <trkpt lat="47.535216" lon="7.738157">
        <ele>297.222063</ele>
        <time>2021-11-14T23:52:09.041Z</time>
      </trkpt>
      <trkpt lat="47.534755" lon="7.738529">
        <ele>298.911096</ele>
        <time>2021-11-14T23:52:29.257Z</time>
      </trkpt>
      <trkpt lat="47.534011" lon="7.739126">
        <ele>304.832652</ele>
        <time>2021-11-14T23:53:11.070Z</time>
      </trkpt>
      <trkpt lat="47.533446" lon="7.739598">
        <ele>309.913444</ele>
        <time>2021-11-14T23:53:42.990Z</time>
      </trkpt>
      <trkpt lat="47.533226" lon="7.739781">
        <ele>311.889766</ele>
        <time>2021-11-14T23:53:54.327Z</time>
      </trkpt>
      <trkpt lat="47.533191" lon="7.739816">
        <ele>312.220540</ele>
        <time>2021-11-14T23:53:57.578Z</time>
      </trkpt>
      <trkpt lat="47.533352" lon="7.740430">
        <ele>314.388417</ele>
        <time>2021-11-14T23:54:16.262Z</time>
      </trkpt>
      <trkpt lat="47.533707" lon="7.742025">
        <ele>317.989397</ele>
        <time>2021-11-14T23:54:48.546Z</time>
      </trkpt>
      <trkpt lat="47.533870" lon="7.743466">
        <ele>318.999392</ele>
        <time>2021-11-14T23:55:00.625Z</time>
      </trkpt>
      <trkpt lat="47.534043" lon="7.744207">
        <ele>318.820580</ele>
        <time>2021-11-14T23:55:07.708Z</time>
      </trkpt>
      <trkpt lat="47.534097" lon="7.744343">
        <ele>318.784597</ele>
        <time>2021-11-14T23:55:09.156Z</time>
      </trkpt>
      <trkpt lat="47.534179" lon="7.744495">
        <ele>318.740225</ele>
        <time>2021-11-14T23:55:11.035Z</time>
      </trkpt>
      <trkpt lat="47.534370" lon="7.744709">
        <ele>318.659326</ele>
        <time>2021-11-14T23:55:14.329Z</time>
      </trkpt>
      <trkpt lat="47.534429" lon="7.744856">
        <ele>318.620325</ele>
        <time>2021-11-14T23:55:16.091Z</time>
      </trkpt>
      <trkpt lat="47.534874" lon="7.746551">
        <ele>318.634870</ele>
        <time>2021-11-14T23:55:33.641Z</time>
      </trkpt>
      <trkpt lat="47.535912" lon="7.749669">
        <ele>319.260942</ele>
        <time>2021-11-14T23:56:11.981Z</time>
      </trkpt>
      <trkpt lat="47.537134" lon="7.752309">
        <ele>320.109544</ele>
        <time>2021-11-14T23:56:46.134Z</time>
      </trkpt>
      <trkpt lat="47.537371" lon="7.752851">
        <ele>320.718852</ele>
        <time>2021-11-14T23:56:52.783Z</time>
      </trkpt>
      <trkpt lat="47.537564" lon="7.753073">
        <ele>321.060375</ele>
        <time>2021-11-14T23:56:56.598Z</time>
      </trkpt>
      <trkpt lat="47.537715" lon="7.753194">
        <ele>321.300320</ele>
        <time>2021-11-14T23:57:00.443Z</time>
      </trkpt>
      <trkpt lat="47.538052" lon="7.753460">
        <ele>321.834019</ele>
        <time>2021-11-14T23:57:09.527Z</time>
      </trkpt>
      <trkpt lat="47.538359" lon="7.753900">
        <ele>322.902932</ele>
        <time>2021-11-14T23:57:20.781Z</time>
      </trkpt>
      <trkpt lat="47.538494" lon="7.754103">
        <ele>323.869501</ele>
        <time>2021-11-14T23:57:26.563Z</time>
      </trkpt>
      <trkpt lat="47.538723" lon="7.754445">
        <ele>325.503420</ele>
        <time>2021-11-14T23:57:36.556Z</time>
      </trkpt>
      <trkpt lat="47.538792" lon="7.754549">
        <ele>325.998034</ele>
        <time>2021-11-14T23:57:40.718Z</time>
      </trkpt>
      <trkpt lat="47.539079" lon="7.754976">
        <ele>328.041880</ele>
        <time>2021-11-14T23:57:56.509Z</time>
      </trkpt>
      <trkpt lat="47.539230" lon="7.755294">
        <ele>329.360640</ele>
        <time>2021-11-14T23:58:06.977Z</time>
      </trkpt>
      <trkpt lat="47.539266" lon="7.755431">
        <ele>329.859305</ele>
        <time>2021-11-14T23:58:11.499Z</time>
      </trkpt>
      <trkpt lat="47.539339" lon="7.755710">
        <ele>330.874262</ele>
        <time>2021-11-14T23:58:19.007Z</time>
      </trkpt>
      <trkpt lat="47.539346" lon="7.755736">
        <ele>330.969209</ele>
        <time>2021-11-14T23:58:20.268Z</time>
      </trkpt>
      <trkpt lat="47.539595" lon="7.757548">
        <ele>335.613687</ele>
        <time>2021-11-14T23:59:04.289Z</time>
      </trkpt>
      <trkpt lat="47.539722" lon="7.758107">
        <ele>337.067412</ele>
        <time>2021-11-14T23:59:13.198Z</time>
      </trkpt>
      <trkpt lat="47.539949" lon="7.758688">
        <ele>337.179315</ele>
        <time>2021-11-14T23:59:20.411Z</time>
      </trkpt>
      <trkpt lat="47.540447" lon="7.759585">
        <ele>334.957211</ele>
        <time>2021-11-14T23:59:28.934Z</time>
      </trkpt>
      <trkpt lat="47.540567" lon="7.759901">
        <ele>334.263506</ele>
        <time>2021-11-14T23:59:31.320Z</time>
      </trkpt>
      <trkpt lat="47.540921" lon="7.761599">
        <ele>327.310359</ele>
        <time>2021-11-14T23:59:42.443Z</time>
      </trkpt>
      <trkpt lat="47.541004" lon="7.762306">
        <ele>323.359525</ele>
        <time>2021-11-14T23:59:46.664Z</time>
      </trkpt>
      <trkpt lat="47.541023" lon="7.762922">
        <ele>319.964580</ele>
        <time>2021-11-14T23:59:50.247Z</time>
      </trkpt>
      <trkpt lat="47.541219" lon="7.763853">
        <ele>314.529466</ele>
        <time>2021-11-14T23:59:55.870Z</time>
      </trkpt>
      <trkpt lat="47.541334" lon="7.764020">
        <ele>313.191253</ele>
        <time>2021-11-14T23:59:57.337Z</time>
      </trkpt>
      <trkpt lat="47.541377" lon="7.764045">
        <ele>312.807398</ele>
        <time>2021-11-14T23:59:57.709Z</time>
      </trkpt>
      <trkpt lat="47.541364" lon="7.764150">
        <ele>312.208568</ele>
        <time>2021-11-14T23:59:58.321Z</time>
      </trkpt>
      <trkpt lat="47.541443" lon="7.764512">
        <ele>310.074427</ele>
        <time>2021-11-15T00:00:00.631Z</time>
      </trkpt>
      <trkpt lat="47.541552" lon="7.764869">
        <ele>307.876502</ele>
        <time>2021-11-15T00:00:02.925Z</time>
      </trkpt>
      <trkpt lat="47.541697" lon="7.765479">
        <ele>304.248733</ele>
        <time>2021-11-15T00:00:06.807Z</time>
      </trkpt>
      <trkpt lat="47.542317" lon="7.768533">
        <ele>296.400849</ele>
        <time>2021-11-15T00:00:28.281Z</time>
      </trkpt>
      <trkpt lat="47.542450" lon="7.769311">
        <ele>296.131471</ele>
        <time>2021-11-15T00:00:35.995Z</time>
      </trkpt>
      <trkpt lat="47.542720" lon="7.770771">
        <ele>295.623368</ele>
        <time>2021-11-15T00:00:52.539Z</time>
      </trkpt>
      <trkpt lat="47.543108" lon="7.773069">
        <ele>296.168322</ele>
        <time>2021-11-15T00:01:19.391Z</time>
      </trkpt>
      <trkpt lat="47.543145" lon="7.773277">
        <ele>296.218899</ele>
        <time>2021-11-15T00:01:21.517Z</time>
      </trkpt>
      <trkpt lat="47.543350" lon="7.774507">
        <ele>296.371469</ele>
        <time>2021-11-15T00:01:33.980Z</time>
      </trkpt>
      <trkpt lat="47.543402" lon="7.775016">
        <ele>296.428311</ele>
        <time>2021-11-15T00:01:39.044Z</time>
      </trkpt>
      <trkpt lat="47.543449" lon="7.775478">
        <ele>296.479899</ele>
        <time>2021-11-15T00:01:43.737Z</time>
      </trkpt>
      <trkpt lat="47.543482" lon="7.776095">
        <ele>296.679694</ele>
        <time>2021-11-15T00:01:50.445Z</time>
      </trkpt>
      <trkpt lat="47.543527" lon="7.776532">
        <ele>297.300001</ele>
        <time>2021-11-15T00:01:55.604Z</time>
      </trkpt>
      <trkpt lat="47.543707" lon="7.777394">
        <ele>298.566138</ele>
        <time>2021-11-15T00:02:07.890Z</time>
      </trkpt>
      <trkpt lat="47.543933" lon="7.778374">
        <ele>300.019334</ele>
        <time>2021-11-15T00:02:26.217Z</time>
      </trkpt>
      <trkpt lat="47.544100" lon="7.779438">
        <ele>303.816960</ele>
        <time>2021-11-15T00:02:50.417Z</time>
      </trkpt>
      <trkpt lat="47.544461" lon="7.782254">
        <ele>312.420289</ele>
        <time>2021-11-15T00:04:11.019Z</time>
      </trkpt>
      <trkpt lat="47.544469" lon="7.782455">
        <ele>312.741023</ele>
        <time>2021-11-15T00:04:16.052Z</time>
      </trkpt>
      <trkpt lat="47.544474" lon="7.782623">
        <ele>313.008894</ele>
        <time>2021-11-15T00:04:18.440Z</time>
      </trkpt>
      <trkpt lat="47.544490" lon="7.783060">
        <ele>313.706026</ele>
        <time>2021-11-15T00:04:22.331Z</time>
      </trkpt>
      <trkpt lat="47.544555" lon="7.783372">
        <ele>314.226150</ele>
        <time>2021-11-15T00:04:24.816Z</time>
      </trkpt>
      <trkpt lat="47.544627" lon="7.783499">
        <ele>314.490336</ele>
        <time>2021-11-15T00:04:26.213Z</time>
      </trkpt>
      <trkpt lat="47.544950" lon="7.784008">
        <ele>313.164530</ele>
        <time>2021-11-15T00:04:33.025Z</time>
      </trkpt>
      <trkpt lat="47.545054" lon="7.784227">
        <ele>312.123014</ele>
        <time>2021-11-15T00:04:35.598Z</time>
      </trkpt>
      <trkpt lat="47.545240" lon="7.784746">
        <ele>309.837416</ele>
        <time>2021-11-15T00:04:40.752Z</time>
      </trkpt>
      <trkpt lat="47.545250" lon="7.784778">
        <ele>309.700256</ele>
        <time>2021-11-15T00:04:41.026Z</time>
      </trkpt>
      <trkpt lat="47.545624" lon="7.785548">
        <ele>306.010471</ele>
        <time>2021-11-15T00:04:49.189Z</time>
      </trkpt>
      <trkpt lat="47.545672" lon="7.785654">
        <ele>305.513992</ele>
        <time>2021-11-15T00:04:50.198Z</time>
      </trkpt>
      <trkpt lat="47.545856" lon="7.785973">
        <ele>304.216968</ele>
        <time>2021-11-15T00:04:54.039Z</time>
      </trkpt>
      <trkpt lat="47.546102" lon="7.786217">
        <ele>303.392666</ele>
        <time>2021-11-15T00:04:58.026Z</time>
      </trkpt>
      <trkpt lat="47.546417" lon="7.786331">
        <ele>302.489793</ele>
        <time>2021-11-15T00:05:02.611Z</time>
      </trkpt>
      <trkpt lat="47.546464" lon="7.786335">
        <ele>302.358710</ele>
        <time>2021-11-15T00:05:03.378Z</time>
      </trkpt>
      <trkpt lat="47.546526" lon="7.786353">
        <ele>302.182795</ele>
        <time>2021-11-15T00:05:04.382Z</time>
      </trkpt>
      <trkpt lat="47.546913" lon="7.786470">
        <ele>301.083028</ele>
        <time>2021-11-15T00:05:10.565Z</time>
      </trkpt>
      <trkpt lat="47.546952" lon="7.786540">
        <ele>300.912440</ele>
        <time>2021-11-15T00:05:11.499Z</time>
      </trkpt>
      <trkpt lat="47.546959" lon="7.786598">
        <ele>300.801705</ele>
        <time>2021-11-15T00:05:12.197Z</time>
      </trkpt>
      <trkpt lat="47.546897" lon="7.787133">
        <ele>299.781500</ele>
        <time>2021-11-15T00:05:19.384Z</time>
      </trkpt>
      <trkpt lat="47.546743" lon="7.788378">
        <ele>299.869336</ele>
        <time>2021-11-15T00:05:37.689Z</time>
      </trkpt>
      <trkpt lat="47.546695" lon="7.788763">
        <ele>299.989878</ele>
        <time>2021-11-15T00:05:43.349Z</time>
      </trkpt>
      <trkpt lat="47.546673" lon="7.788921">
        <ele>300.039548</ele>
        <time>2021-11-15T00:05:46.003Z</time>
      </trkpt>
      <trkpt lat="47.546483" lon="7.790312">
        <ele>300.635176</ele>
        <time>2021-11-15T00:06:08.252Z</time>
      </trkpt>
      <trkpt lat="47.546253" lon="7.791998">
        <ele>301.792128</ele>
        <time>2021-11-15T00:06:38.048Z</time>
      </trkpt>
      <trkpt lat="47.546027" lon="7.793254">
        <ele>302.005134</ele>
        <time>2021-11-15T00:06:57.579Z</time>
      </trkpt>
      <trkpt lat="47.545969" lon="7.793663">
        <ele>301.936540</ele>
        <time>2021-11-15T00:07:02.719Z</time>
      </trkpt>
      <trkpt lat="47.545950" lon="7.793982">
        <ele>301.883979</ele>
        <time>2021-11-15T00:07:06.713Z</time>
      </trkpt>
      <trkpt lat="47.545921" lon="7.794468">
        <ele>301.803902</ele>
        <time>2021-11-15T00:07:12.568Z</time>
      </trkpt>
      <trkpt lat="47.545947" lon="7.794710">
        <ele>301.763682</ele>
        <time>2021-11-15T00:07:15.401Z</time>
      </trkpt>
      <trkpt lat="47.546019" lon="7.795020">
        <ele>301.709875</ele>
        <time>2021-11-15T00:07:19.426Z</time>
      </trkpt>
      <trkpt lat="47.546165" lon="7.795511">
        <ele>301.648315</ele>
        <time>2021-11-15T00:07:26.364Z</time>
      </trkpt>
      <trkpt lat="47.546170" lon="7.795612">
        <ele>301.637513</ele>
        <time>2021-11-15T00:07:27.419Z</time>
      </trkpt>
      <trkpt lat="47.546154" lon="7.795747">
        <ele>301.622893</ele>
        <time>2021-11-15T00:07:29.244Z</time>
      </trkpt>
      <trkpt lat="47.546105" lon="7.795928">
        <ele>301.602093</ele>
        <time>2021-11-15T00:07:32.382Z</time>
      </trkpt>
      <trkpt lat="47.546038" lon="7.796107">
        <ele>301.580261</ele>
        <time>2021-11-15T00:07:34.707Z</time>
      </trkpt>
      <trkpt lat="47.545889" lon="7.796500">
        <ele>301.532183</ele>
        <time>2021-11-15T00:07:41.580Z</time>
      </trkpt>
      <trkpt lat="47.545788" lon="7.796748">
        <ele>301.501289</ele>
        <time>2021-11-15T00:07:45.226Z</time>
      </trkpt>
      <trkpt lat="47.545728" lon="7.796950">
        <ele>301.477749</ele>
        <time>2021-11-15T00:07:48.557Z</time>
      </trkpt>
      <trkpt lat="47.545689" lon="7.797076">
        <ele>301.462964</ele>
        <time>2021-11-15T00:07:50.018Z</time>
      </trkpt>
      <trkpt lat="47.545670" lon="7.797142">
        <ele>301.455311</ele>
        <time>2021-11-15T00:07:51.070Z</time>
      </trkpt>
      <trkpt lat="47.545645" lon="7.797258">
        <ele>301.442323</ele>
        <time>2021-11-15T00:07:52.821Z</time>
      </trkpt>
      <trkpt lat="47.545637" lon="7.797310">
        <ele>301.436634</ele>
        <time>2021-11-15T00:07:54.163Z</time>
      </trkpt>
      <trkpt lat="47.545612" lon="7.797567">
        <ele>301.411761</ele>
        <time>2021-11-15T00:07:57.139Z</time>
      </trkpt>
      <trkpt lat="47.545558" lon="7.798144">
        <ele>301.390006</ele>
        <time>2021-11-15T00:08:05.725Z</time>
      </trkpt>
      <trkpt lat="47.545511" lon="7.798680">
        <ele>301.369821</ele>
        <time>2021-11-15T00:08:13.793Z</time>
      </trkpt>
      <trkpt lat="47.545581" lon="7.798713">
        <ele>301.365757</ele>
        <time>2021-11-15T00:08:15.294Z</time>
      </trkpt>
      <trkpt lat="47.545731" lon="7.798810">
        <ele>301.356702</ele>
        <time>2021-11-15T00:08:19.305Z</time>
      </trkpt>
      <trkpt lat="47.545807" lon="7.798846">
        <ele>301.352287</ele>
        <time>2021-11-15T00:08:20.650Z</time>
      </trkpt>
      <trkpt lat="47.546418" lon="7.798980">
        <ele>301.318114</ele>
        <time>2021-11-15T00:08:32.670Z</time>
      </trkpt>
      <trkpt lat="47.547540" lon="7.799538">
        <ele>300.694138</ele>
        <time>2021-11-15T00:08:53.300Z</time>
      </trkpt>
      <trkpt lat="47.547912" lon="7.799646">
        <ele>300.481569</ele>
        <time>2021-11-15T00:09:00.681Z</time>
      </trkpt>
      <trkpt lat="47.548459" lon="7.799691">
        <ele>300.288165</ele>
        <time>2021-11-15T00:09:11.619Z</time>
      </trkpt>
      <trkpt lat="47.548535" lon="7.799720">
        <ele>300.282445</ele>
        <time>2021-11-15T00:09:13.138Z</time>
      </trkpt>
      <trkpt lat="47.548514" lon="7.799795">
        <ele>300.278450</ele>
        <time>2021-11-15T00:09:14.202Z</time>
      </trkpt>
      <trkpt lat="47.548519" lon="7.799896">
        <ele>300.273467</ele>
        <time>2021-11-15T00:09:15.557Z</time>
      </trkpt>
      <trkpt lat="47.548545" lon="7.800404">
        <ele>300.248401</ele>
        <time>2021-11-15T00:09:22.348Z</time>
      </trkpt>
      <trkpt lat="47.548560" lon="7.800672">
        <ele>300.235170</ele>
        <time>2021-11-15T00:09:26.040Z</time>
      </trkpt>
      <trkpt lat="47.548569" lon="7.800838">
        <ele>300.226977</ele>
        <time>2021-11-15T00:09:28.284Z</time>
      </trkpt>
      <trkpt lat="47.548576" lon="7.800968">
        <ele>300.220560</ele>
        <time>2021-11-15T00:09:30.060Z</time>
      </trkpt>
      <trkpt lat="47.548596" lon="7.801213">
        <ele>300.208418</ele>
        <time>2021-11-15T00:09:33.439Z</time>
      </trkpt>
      <trkpt lat="47.548607" lon="7.801690">
        <ele>300.184936</ele>
        <time>2021-11-15T00:09:39.939Z</time>
      </trkpt>
      <trkpt lat="47.548626" lon="7.802129">
        <ele>300.137078</ele>
        <time>2021-11-15T00:09:45.858Z</time>
      </trkpt>
      <trkpt lat="47.548877" lon="7.802168">
        <ele>300.073891</ele>
        <time>2021-11-15T00:09:50.850Z</time>
      </trkpt>
      <trkpt lat="47.549410" lon="7.802226">
        <ele>299.940084</ele>
        <time>2021-11-15T00:10:01.266Z</time>
      </trkpt>
      <trkpt lat="47.549481" lon="7.802234">
        <ele>299.922257</ele>
        <time>2021-11-15T00:10:02.606Z</time>
      </trkpt>
      <trkpt lat="47.549879" lon="7.802247">
        <ele>299.822585</ele>
        <time>2021-11-15T00:10:10.084Z</time>
      </trkpt>
      <trkpt lat="47.550146" lon="7.802262">
        <ele>299.755689</ele>
        <time>2021-11-15T00:10:15.154Z</time>
      </trkpt>
      <trkpt lat="47.550134" lon="7.803051">
        <ele>299.619155</ele>
        <time>2021-11-15T00:10:25.386Z</time>
      </trkpt>
      <trkpt lat="47.550196" lon="7.803120">
        <ele>299.599134</ele>
        <time>2021-11-15T00:10:26.840Z</time>
      </trkpt>
      <trkpt lat="47.550758" lon="7.803129">
        <ele>299.454020</ele>
        <time>2021-11-15T00:10:37.287Z</time>
      </trkpt>
      <trkpt lat="47.550817" lon="7.803130">
        <ele>299.438785</ele>
        <time>2021-11-15T00:10:38.356Z</time>
      </trkpt>
      <trkpt lat="47.550981" lon="7.803132">
        <ele>299.396440</ele>
        <time>2021-11-15T00:10:41.489Z</time>
      </trkpt>
      <trkpt lat="47.551163" lon="7.803129">
        <ele>299.349445</ele>
        <time>2021-11-15T00:10:44.902Z</time>
      </trkpt>
      <trkpt lat="47.551598" lon="7.803160">
        <ele>299.319308</ele>
        <time>2021-11-15T00:10:53.490Z</time>
      </trkpt>
      <trkpt lat="47.551666" lon="7.803144">
        <ele>299.367052</ele>
        <time>2021-11-15T00:10:58.234Z</time>
      </trkpt>
      <trkpt lat="47.551732" lon="7.803125">
        <ele>299.413674</ele>
        <time>2021-11-15T00:11:02.901Z</time>
      </trkpt>
      <trkpt lat="47.551744" lon="7.803277">
        <ele>299.485297</ele>
        <time>2021-11-15T00:11:04.601Z</time>
      </trkpt>
      <trkpt lat="47.551751" lon="7.803369">
        <ele>299.528626</ele>
        <time>2021-11-15T00:11:05.682Z</time>
      </trkpt>
      <trkpt lat="47.551692" lon="7.803510">
        <ele>299.606269</ele>
        <time>2021-11-15T00:11:08.264Z</time>
      </trkpt>
      <trkpt lat="47.551741" lon="7.804294">
        <ele>299.974760</ele>
        <time>2021-11-15T00:11:21.265Z</time>
      </trkpt>
      <trkpt lat="47.551744" lon="7.804473">
        <ele>300.058560</ele>
        <time>2021-11-15T00:11:23.785Z</time>
      </trkpt>
      <trkpt lat="47.551731" lon="7.804667">
        <ele>300.149800</ele>
        <time>2021-11-15T00:11:27.765Z</time>
      </trkpt>
      <trkpt lat="47.551709" lon="7.805000">
        <ele>300.306393</ele>
        <time>2021-11-15T00:11:32.256Z</time>
      </trkpt>
      <trkpt lat="47.551681" lon="7.805477">
        <ele>300.514768</ele>
        <time>2021-11-15T00:11:39.993Z</time>
      </trkpt>
      <trkpt lat="47.551671" lon="7.806117">
        <ele>300.617590</ele>
        <time>2021-11-15T00:11:50.082Z</time>
      </trkpt>
      <trkpt lat="47.551651" lon="7.806246">
        <ele>300.638850</ele>
        <time>2021-11-15T00:11:52.985Z</time>
      </trkpt>
      <trkpt lat="47.551895" lon="7.806278">
        <ele>300.697143</ele>
        <time>2021-11-15T00:11:56.510Z</time>
      </trkpt>
      <trkpt lat="47.552015" lon="7.806307">
        <ele>300.726077</ele>
        <time>2021-11-15T00:11:59.380Z</time>
      </trkpt>
      <trkpt lat="47.552068" lon="7.806445">
        <ele>300.751580</ele>
        <time>2021-11-15T00:12:00.837Z</time>
      </trkpt>
      <trkpt lat="47.552398" lon="7.808880">
        <ele>300.377943</ele>
        <time>2021-11-15T00:12:22.980Z</time>
      </trkpt>
      <trkpt lat="47.552566" lon="7.810386">
        <ele>299.747143</ele>
        <time>2021-11-15T00:12:35.991Z</time>
      </trkpt>
      <trkpt lat="47.552711" lon="7.812955">
        <ele>298.729760</ele>
        <time>2021-11-15T00:12:58.600Z</time>
      </trkpt>
      <trkpt lat="47.552844" lon="7.816432">
        <ele>299.093547</ele>
        <time>2021-11-15T00:13:32.279Z</time>
      </trkpt>
      <trkpt lat="47.552527" lon="7.816463">
        <ele>299.438155</ele>
        <time>2021-11-15T00:13:40.425Z</time>
      </trkpt>
      <trkpt lat="47.552368" lon="7.816478">
        <ele>299.610977</ele>
        <time>2021-11-15T00:13:44.697Z</time>
      </trkpt>
      <trkpt lat="47.551537" lon="7.816539">
        <ele>300.506132</ele>
        <time>2021-11-15T00:14:08.473Z</time>
      </trkpt>
      <trkpt lat="47.550839" lon="7.816590">
        <ele>301.228006</ele>
        <time>2021-11-15T00:14:27.242Z</time>
      </trkpt>
      <trkpt lat="47.550457" lon="7.816559">
        <ele>301.623184</ele>
        <time>2021-11-15T00:14:36.668Z</time>
      </trkpt>
      <trkpt lat="47.550240" lon="7.817600">
        <ele>302.135688</ele>
        <time>2021-11-15T00:14:52.116Z</time>
      </trkpt>
      <trkpt lat="47.549870" lon="7.819908">
        <ele>301.321943</ele>
        <time>2021-11-15T00:15:20.792Z</time>
      </trkpt>
      <trkpt lat="47.549781" lon="7.820506">
        <ele>301.352220</ele>
        <time>2021-11-15T00:15:28.629Z</time>
      </trkpt>
      <trkpt lat="47.549636" lon="7.821487">
        <ele>301.440865</ele>
        <time>2021-11-15T00:15:42.018Z</time>
      </trkpt>
      <trkpt lat="47.549580" lon="7.821865">
        <ele>301.475025</ele>
        <time>2021-11-15T00:15:47.566Z</time>
      </trkpt>
      <trkpt lat="47.549309" lon="7.823603">
        <ele>302.707476</ele>
        <time>2021-11-15T00:16:15.987Z</time>
      </trkpt>
      <trkpt lat="47.548993" lon="7.825343">
        <ele>304.763230</ele>
        <time>2021-11-15T00:16:50.956Z</time>
      </trkpt>
      <trkpt lat="47.548679" lon="7.826710">
        <ele>306.924054</ele>
        <time>2021-11-15T00:17:20.130Z</time>
      </trkpt>
      <trkpt lat="47.548237" lon="7.826410">
        <ele>308.001930</ele>
        <time>2021-11-15T00:17:33.903Z</time>
      </trkpt>
      <trkpt lat="47.547666" lon="7.826091">
        <ele>309.237739</ele>
        <time>2021-11-15T00:17:51.185Z</time>
      </trkpt>
      <trkpt lat="47.547233" lon="7.825872">
        <ele>310.121533</ele>
        <time>2021-11-15T00:18:04.012Z</time>
      </trkpt>
      <trkpt lat="47.546693" lon="7.825618">
        <ele>311.215926</ele>
        <time>2021-11-15T00:18:19.308Z</time>
      </trkpt>
      <trkpt lat="47.546589" lon="7.825597">
        <ele>311.418674</ele>
        <time>2021-11-15T00:18:22.303Z</time>
      </trkpt>
      <trkpt lat="47.546580" lon="7.825992">
        <ele>311.935968</ele>
        <time>2021-11-15T00:18:29.703Z</time>
      </trkpt>
      <trkpt lat="47.546574" lon="7.826239">
        <ele>312.301737</ele>
        <time>2021-11-15T00:18:34.615Z</time>
      </trkpt>
      <trkpt lat="47.546592" lon="7.826850">
        <ele>313.206808</ele>
        <time>2021-11-15T00:18:46.388Z</time>
      </trkpt>
      <trkpt lat="47.546721" lon="7.828140">
        <ele>315.136697</ele>
        <time>2021-11-15T00:19:12.628Z</time>
      </trkpt>
      <trkpt lat="47.546823" lon="7.829336">
        <ele>316.840021</ele>
        <time>2021-11-15T00:19:36.041Z</time>
      </trkpt>
      <trkpt lat="47.546946" lon="7.830852">
        <ele>318.927336</ele>
        <time>2021-11-15T00:20:05.284Z</time>
      </trkpt>
      <trkpt lat="47.547020" lon="7.831965">
        <ele>320.350189</ele>
        <time>2021-11-15T00:20:26.122Z</time>
      </trkpt>
      <trkpt lat="47.547190" lon="7.835066">
        <ele>324.138433</ele>
        <time>2021-11-15T00:21:23.213Z</time>
      </trkpt>
      <trkpt lat="47.547240" lon="7.836221">
        <ele>325.553655</ele>
        <time>2021-11-15T00:21:44.687Z</time>
      </trkpt>
      <trkpt lat="47.547276" lon="7.837287">
        <ele>326.857957</ele>
        <time>2021-11-15T00:22:04.798Z</time>
      </trkpt>
      <trkpt lat="47.547300" lon="7.838688">
        <ele>328.569997</ele>
        <time>2021-11-15T00:22:31.545Z</time>
      </trkpt>
      <trkpt lat="47.547332" lon="7.840572">
        <ele>330.055299</ele>
        <time>2021-11-15T00:23:04.173Z</time>
      </trkpt>
      <trkpt lat="47.547339" lon="7.841072">
        <ele>330.357491</ele>
        <time>2021-11-15T00:23:11.950Z</time>
      </trkpt>
      <trkpt lat="47.547362" lon="7.841665">
        <ele>330.716405</ele>
        <time>2021-11-15T00:23:20.720Z</time>
      </trkpt>
      <trkpt lat="47.547448" lon="7.842262">
        <ele>330.922739</ele>
        <time>2021-11-15T00:23:29.116Z</time>
      </trkpt>
      <trkpt lat="47.547354" lon="7.842839">
        <ele>331.015711</ele>
        <time>2021-11-15T00:23:36.998Z</time>
      </trkpt>
      <trkpt lat="47.547313" lon="7.843735">
        <ele>331.156376</ele>
        <time>2021-11-15T00:23:49.321Z</time>
      </trkpt>
      <trkpt lat="47.547295" lon="7.844722">
        <ele>331.467600</ele>
        <time>2021-11-15T00:24:04.068Z</time>
      </trkpt>
      <trkpt lat="47.547274" lon="7.845536">
        <ele>332.314358</ele>
        <time>2021-11-15T00:24:17.520Z</time>
      </trkpt>
      <trkpt lat="47.547124" lon="7.848795">
        <ele>336.212220</ele>
        <time>2021-11-15T00:25:19.674Z</time>
      </trkpt>
      <trkpt lat="47.547143" lon="7.849985">
        <ele>337.763307</ele>
        <time>2021-11-15T00:25:42.526Z</time>
      </trkpt>
      <trkpt lat="47.547141" lon="7.850355">
        <ele>338.074246</ele>
        <time>2021-11-15T00:25:49.625Z</time>
      </trkpt>
      <trkpt lat="47.546945" lon="7.851719">
        <ele>339.246169</ele>
        <time>2021-11-15T00:26:14.158Z</time>
      </trkpt>
      <trkpt lat="47.546582" lon="7.856413">
        <ele>340.671508</ele>
        <time>2021-11-15T00:27:22.470Z</time>
      </trkpt>
      <trkpt lat="47.546537" lon="7.857497">
        <ele>340.854253</ele>
        <time>2021-11-15T00:27:37.778Z</time>
      </trkpt>
      <trkpt lat="47.546487" lon="7.859119">
        <ele>341.207353</ele>
        <time>2021-11-15T00:28:01.226Z</time>
      </trkpt>
      <trkpt lat="47.546526" lon="7.861665">
        <ele>341.212868</ele>
        <time>2021-11-15T00:28:38.400Z</time>
      </trkpt>
      <trkpt lat="47.546592" lon="7.863006">
        <ele>340.877487</ele>
        <time>2021-11-15T00:28:54.867Z</time>
      </trkpt>
      <trkpt lat="47.546877" lon="7.864345">
        <ele>339.229717</ele>
        <time>2021-11-15T00:29:10.036Z</time>
      </trkpt>
      <trkpt lat="47.546885" lon="7.864500">
        <ele>339.034594</ele>
        <time>2021-11-15T00:29:11.715Z</time>
      </trkpt>
      <trkpt lat="47.546894" lon="7.864837">
        <ele>338.611262</ele>
        <time>2021-11-15T00:29:15.195Z</time>
      </trkpt>
      <trkpt lat="47.546889" lon="7.865225">
        <ele>338.124157</ele>
        <time>2021-11-15T00:29:19.316Z</time>
      </trkpt>
      <trkpt lat="47.546819" lon="7.865489">
        <ele>337.768135</ele>
        <time>2021-11-15T00:29:22.393Z</time>
      </trkpt>
      <trkpt lat="47.546510" lon="7.865766">
        <ele>337.199947</ele>
        <time>2021-11-15T00:29:28.088Z</time>
      </trkpt>
      <trkpt lat="47.546327" lon="7.865959">
        <ele>336.888158</ele>
        <time>2021-11-15T00:29:31.419Z</time>
      </trkpt>
      <trkpt lat="47.546096" lon="7.866147">
        <ele>336.522338</ele>
        <time>2021-11-15T00:29:35.485Z</time>
      </trkpt>
      <trkpt lat="47.545240" lon="7.866887">
        <ele>335.146730</ele>
        <time>2021-11-15T00:29:52.159Z</time>
      </trkpt>
      <trkpt lat="47.545160" lon="7.866985">
        <ele>335.011603</ele>
        <time>2021-11-15T00:29:54.115Z</time>
      </trkpt>
      <trkpt lat="47.545003" lon="7.867278">
        <ele>335.263900</ele>
        <time>2021-11-15T00:29:59.783Z</time>
      </trkpt>
      <trkpt lat="47.544568" lon="7.867693">
        <ele>335.780844</ele>
        <time>2021-11-15T00:30:12.574Z</time>
      </trkpt>
      <trkpt lat="47.544469" lon="7.867776">
        <ele>335.894498</ele>
        <time>2021-11-15T00:30:15.436Z</time>
      </trkpt>
      <trkpt lat="47.544410" lon="7.867825">
        <ele>335.962078</ele>
        <time>2021-11-15T00:30:17.524Z</time>
      </trkpt>
      <trkpt lat="47.544246" lon="7.867967">
        <ele>336.151870</ele>
        <time>2021-11-15T00:30:22.208Z</time>
      </trkpt>
      <trkpt lat="47.544214" lon="7.867988">
        <ele>336.186838</ele>
        <time>2021-11-15T00:30:23.056Z</time>
      </trkpt>
      <trkpt lat="47.543801" lon="7.868269">
        <ele>336.640917</ele>
        <time>2021-11-15T00:30:34.659Z</time>
      </trkpt>
      <trkpt lat="47.543657" lon="7.868359">
        <ele>336.797072</ele>
        <time>2021-11-15T00:30:39.008Z</time>
      </trkpt>
      <trkpt lat="47.543201" lon="7.868657">
        <ele>337.407341</ele>
        <time>2021-11-15T00:30:49.209Z</time>
      </trkpt>
      <trkpt lat="47.543105" lon="7.868711">
        <ele>337.533449</ele>
        <time>2021-11-15T00:30:51.793Z</time>
      </trkpt>
      <trkpt lat="47.543049" lon="7.868759">
        <ele>337.612903</ele>
        <time>2021-11-15T00:30:53.170Z</time>
      </trkpt>
      <trkpt lat="47.542722" lon="7.869201">
        <ele>338.156527</ele>
        <time>2021-11-15T00:31:03.002Z</time>
      </trkpt>
      <trkpt lat="47.542696" lon="7.869257">
        <ele>338.212872</ele>
        <time>2021-11-15T00:31:03.832Z</time>
      </trkpt>
      <trkpt lat="47.542657" lon="7.869354">
        <ele>338.306468</ele>
        <time>2021-11-15T00:31:05.267Z</time>
      </trkpt>
      <trkpt lat="47.542372" lon="7.869746">
        <ele>338.784071</ele>
        <time>2021-11-15T00:31:12.343Z</time>
      </trkpt>
      <trkpt lat="47.542329" lon="7.869820">
        <ele>338.865015</ele>
        <time>2021-11-15T00:31:13.526Z</time>
      </trkpt>
      <trkpt lat="47.542348" lon="7.869983">
        <ele>339.002143</ele>
        <time>2021-11-15T00:31:15.084Z</time>
      </trkpt>
      <trkpt lat="47.542317" lon="7.870012">
        <ele>339.013792</ele>
        <time>2021-11-15T00:31:15.788Z</time>
      </trkpt>
      <trkpt lat="47.542181" lon="7.870131">
        <ele>339.013792</ele>
        <time>2021-11-15T00:31:18.271Z</time>
      </trkpt>
      <trkpt lat="47.542118" lon="7.870135">
        <ele>339.013792</ele>
        <time>2021-11-15T00:31:19.274Z</time>
      </trkpt>
      <trkpt lat="47.542014" lon="7.870126">
        <ele>339.013792</ele>
        <time>2021-11-15T00:31:20.646Z</time>
      </trkpt>
      <trkpt lat="47.541910" lon="7.870106">
        <ele>339.013792</ele>
        <time>2021-11-15T00:31:22.266Z</time>
      </trkpt>
      <trkpt lat="47.541606" lon="7.870424">
        <ele>339.013792</ele>
        <time>2021-11-15T00:31:27.480Z</time>
      </trkpt>
      <trkpt lat="47.541521" lon="7.870517">
        <ele>339.013792</ele>
        <time>2021-11-15T00:31:28.908Z</time>
      </trkpt>
      <trkpt lat="47.541550" lon="7.870601">
        <ele>339.013792</ele>
        <time>2021-11-15T00:31:29.768Z</time>
      </trkpt>
      <trkpt lat="47.541576" lon="7.870664">
        <ele>339.013792</ele>
        <time>2021-11-15T00:31:30.439Z</time>
      </trkpt>
      <trkpt lat="47.541491" lon="7.870729">
        <ele>339.013792</ele>
        <time>2021-11-15T00:31:32.135Z</time>
      </trkpt>
    </trkseg>
  </trk>
</gpx>